<?xml version="1.0" encoding="utf-8"?>
<gpx xmlns:xsi="http://www.w3.org/2001/XMLSchema-instance" xmlns:xsd="http://www.w3.org/2001/XMLSchema" version="1.1" creator="Shapelink.com" xmlns="http://www.topografix.com/GPX/1/1" xmlns:gpxtpx="http://www.garmin.com/xmlschemas/TrackPointExtension/v1">
  <metadata>
    <name>Cykling 31.10 km, 2016-07-07</name>
    <desc></desc>
    <author><name>Alexander Engvall</name></author> 
    <time>2016-07-07T19:37:47Z</time>
  </metadata>
  <trk>
    <name>Cykling 31.10 km, 2016-07-07</name>
    <trkseg>
      <trkpt lat="59.219754031007" lon="17.907066768671">
        <ele>64</ele>
        <time>2016-07-07T19:37:47Z</time>
      </trkpt>
      <trkpt lat="59.219734920275" lon="17.907023685705">
        <ele>64</ele>
        <time>2016-07-07T19:37:49Z</time>
      </trkpt>
      <trkpt lat="59.219724861995" lon="17.906991666847">
        <ele>63.8</ele>
        <time>2016-07-07T19:37:50Z</time>
      </trkpt>
      <trkpt lat="59.219690747662" lon="17.906866022166">
        <ele>63.8</ele>
        <time>2016-07-07T19:37:55Z</time>
      </trkpt>
      <trkpt lat="59.219549680285" lon="17.906789076324">
        <ele>63.8</ele>
        <time>2016-07-07T19:37:59Z</time>
      </trkpt>
      <trkpt lat="59.219376091136" lon="17.906878930292">
        <ele>63.8</ele>
        <time>2016-07-07T19:38:02Z</time>
      </trkpt>
      <trkpt lat="59.21927349668" lon="17.907035671822">
        <ele>63.8</ele>
        <time>2016-07-07T19:38:04Z</time>
      </trkpt>
      <trkpt lat="59.219109127621" lon="17.907266509348">
        <ele>63.8</ele>
        <time>2016-07-07T19:38:07Z</time>
      </trkpt>
      <trkpt lat="59.219065541741" lon="17.907345718303">
        <ele>63.8</ele>
        <time>2016-07-07T19:38:08Z</time>
      </trkpt>
      <trkpt lat="59.218990439917" lon="17.907518804538">
        <ele>63.8</ele>
        <time>2016-07-07T19:38:10Z</time>
      </trkpt>
      <trkpt lat="59.218971664461" lon="17.907620560804">
        <ele>63.8</ele>
        <time>2016-07-07T19:38:11Z</time>
      </trkpt>
      <trkpt lat="59.219016842902" lon="17.907909568716">
        <ele>63.8</ele>
        <time>2016-07-07T19:38:14Z</time>
      </trkpt>
      <trkpt lat="59.219047855932" lon="17.907998668313">
        <ele>63.8</ele>
        <time>2016-07-07T19:38:15Z</time>
      </trkpt>
      <trkpt lat="59.219195377372" lon="17.908365879352">
        <ele>63.8</ele>
        <time>2016-07-07T19:38:19Z</time>
      </trkpt>
      <trkpt lat="59.219352202721" lon="17.908765947439">
        <ele>63.8</ele>
        <time>2016-07-07T19:38:23Z</time>
      </trkpt>
      <trkpt lat="59.219427975097" lon="17.908978428604">
        <ele>63.8</ele>
        <time>2016-07-07T19:38:25Z</time>
      </trkpt>
      <trkpt lat="59.219680689382" lon="17.909559210455">
        <ele>63.8</ele>
        <time>2016-07-07T19:38:31Z</time>
      </trkpt>
      <trkpt lat="59.219739362682" lon="17.909608496027">
        <ele>63.8</ele>
        <time>2016-07-07T19:38:32Z</time>
      </trkpt>
      <trkpt lat="59.219856290187" lon="17.909752580888">
        <ele>63.8</ele>
        <time>2016-07-07T19:38:34Z</time>
      </trkpt>
      <trkpt lat="59.219901803904" lon="17.909858528104">
        <ele>63.8</ele>
        <time>2016-07-07T19:38:35Z</time>
      </trkpt>
      <trkpt lat="59.220189051617" lon="17.910628154162">
        <ele>63.8</ele>
        <time>2016-07-07T19:38:42Z</time>
      </trkpt>
      <trkpt lat="59.220526506911" lon="17.911484532885">
        <ele>63.8</ele>
        <time>2016-07-07T19:38:50Z</time>
      </trkpt>
      <trkpt lat="59.220563974004" lon="17.911590312463">
        <ele>63.8</ele>
        <time>2016-07-07T19:38:51Z</time>
      </trkpt>
      <trkpt lat="59.220780646119" lon="17.912145278062">
        <ele>63.8</ele>
        <time>2016-07-07T19:38:57Z</time>
      </trkpt>
      <trkpt lat="59.220920707668" lon="17.912500586803">
        <ele>64.2</ele>
        <time>2016-07-07T19:39:01Z</time>
      </trkpt>
      <trkpt lat="59.22095322944" lon="17.912594464083">
        <ele>64.6</ele>
        <time>2016-07-07T19:39:02Z</time>
      </trkpt>
      <trkpt lat="59.220988852515" lon="17.912686832621">
        <ele>65</ele>
        <time>2016-07-07T19:39:03Z</time>
      </trkpt>
      <trkpt lat="59.22102615197" lon="17.912776518951">
        <ele>65.4</ele>
        <time>2016-07-07T19:39:04Z</time>
      </trkpt>
      <trkpt lat="59.221064289615" lon="17.912870312412">
        <ele>65.8</ele>
        <time>2016-07-07T19:39:05Z</time>
      </trkpt>
      <trkpt lat="59.221321111031" lon="17.913571625985">
        <ele>65.8</ele>
        <time>2016-07-07T19:39:12Z</time>
      </trkpt>
      <trkpt lat="59.221344580351" lon="17.913688888766">
        <ele>65.8</ele>
        <time>2016-07-07T19:39:13Z</time>
      </trkpt>
      <trkpt lat="59.221424040763" lon="17.914030870286">
        <ele>65.8</ele>
        <time>2016-07-07T19:39:16Z</time>
      </trkpt>
      <trkpt lat="59.221540884449" lon="17.914138745339">
        <ele>65.8</ele>
        <time>2016-07-07T19:39:18Z</time>
      </trkpt>
      <trkpt lat="59.221648843321" lon="17.914273442472">
        <ele>65.8</ele>
        <time>2016-07-07T19:39:20Z</time>
      </trkpt>
      <trkpt lat="59.221699469997" lon="17.914357345291">
        <ele>65.8</ele>
        <time>2016-07-07T19:39:21Z</time>
      </trkpt>
      <trkpt lat="59.221883536521" lon="17.914688765617">
        <ele>66.2</ele>
        <time>2016-07-07T19:39:25Z</time>
      </trkpt>
      <trkpt lat="59.2219288826" lon="17.914773925721">
        <ele>66.8</ele>
        <time>2016-07-07T19:39:26Z</time>
      </trkpt>
      <trkpt lat="59.221974312498" lon="17.914861013662">
        <ele>67.2</ele>
        <time>2016-07-07T19:39:27Z</time>
      </trkpt>
      <trkpt lat="59.222019658577" lon="17.91494583849">
        <ele>67.6</ele>
        <time>2016-07-07T19:39:28Z</time>
      </trkpt>
      <trkpt lat="59.22206383119" lon="17.915033345526">
        <ele>68</ele>
        <time>2016-07-07T19:39:29Z</time>
      </trkpt>
      <trkpt lat="59.222333644551" lon="17.915543048865">
        <ele>68</ele>
        <time>2016-07-07T19:39:35Z</time>
      </trkpt>
      <trkpt lat="59.22249130809" lon="17.915839851944">
        <ele>68.4</ele>
        <time>2016-07-07T19:39:39Z</time>
      </trkpt>
      <trkpt lat="59.222527182622" lon="17.915912774474">
        <ele>68.8</ele>
        <time>2016-07-07T19:39:40Z</time>
      </trkpt>
      <trkpt lat="59.222562386602" lon="17.915987121927">
        <ele>69.2</ele>
        <time>2016-07-07T19:39:41Z</time>
      </trkpt>
      <trkpt lat="59.22259859641" lon="17.916059793">
        <ele>69.8</ele>
        <time>2016-07-07T19:39:42Z</time>
      </trkpt>
      <trkpt lat="59.222633129838" lon="17.916130787693">
        <ele>70.2</ele>
        <time>2016-07-07T19:39:43Z</time>
      </trkpt>
      <trkpt lat="59.222731533344" lon="17.916349555283">
        <ele>70.6</ele>
        <time>2016-07-07T19:39:46Z</time>
      </trkpt>
      <trkpt lat="59.22276371984" lon="17.916434547749">
        <ele>71.4</ele>
        <time>2016-07-07T19:39:47Z</time>
      </trkpt>
      <trkpt lat="59.222793475585" lon="17.916520546043">
        <ele>71.8</ele>
        <time>2016-07-07T19:39:48Z</time>
      </trkpt>
      <trkpt lat="59.222823566606" lon="17.916606460518">
        <ele>72.4</ele>
        <time>2016-07-07T19:39:49Z</time>
      </trkpt>
      <trkpt lat="59.222972345331" lon="17.917171903492">
        <ele>72.4</ele>
        <time>2016-07-07T19:39:55Z</time>
      </trkpt>
      <trkpt lat="59.22310821593" lon="17.91773784938">
        <ele>72.4</ele>
        <time>2016-07-07T19:40:01Z</time>
      </trkpt>
      <trkpt lat="59.223169990533" lon="17.917920239524">
        <ele>72.4</ele>
        <time>2016-07-07T19:40:04Z</time>
      </trkpt>
      <trkpt lat="59.223208463454" lon="17.917918227868">
        <ele>72.4</ele>
        <time>2016-07-07T19:40:05Z</time>
      </trkpt>
      <trkpt lat="59.223457405884" lon="17.917885789915">
        <ele>72.4</ele>
        <time>2016-07-07T19:40:10Z</time>
      </trkpt>
      <trkpt lat="59.223619763287" lon="17.917894423272">
        <ele>72.4</ele>
        <time>2016-07-07T19:40:13Z</time>
      </trkpt>
      <trkpt lat="59.223674245637" lon="17.917905738837">
        <ele>72.8</ele>
        <time>2016-07-07T19:40:14Z</time>
      </trkpt>
      <trkpt lat="59.223727303064" lon="17.917929878709">
        <ele>73.2</ele>
        <time>2016-07-07T19:40:15Z</time>
      </trkpt>
      <trkpt lat="59.223774493161" lon="17.917941278093">
        <ele>73.6</ele>
        <time>2016-07-07T19:40:16Z</time>
      </trkpt>
      <trkpt lat="59.22382486838" lon="17.917954353857">
        <ele>74.2</ele>
        <time>2016-07-07T19:40:17Z</time>
      </trkpt>
      <trkpt lat="59.223878344902" lon="17.91797505715">
        <ele>74.6</ele>
        <time>2016-07-07T19:40:18Z</time>
      </trkpt>
      <trkpt lat="59.223927211379" lon="17.918001795411">
        <ele>75.2</ele>
        <time>2016-07-07T19:40:19Z</time>
      </trkpt>
      <trkpt lat="59.223979430616" lon="17.918028449853">
        <ele>75.8</ele>
        <time>2016-07-07T19:40:20Z</time>
      </trkpt>
      <trkpt lat="59.224036427536" lon="17.918048482594">
        <ele>76.4</ele>
        <time>2016-07-07T19:40:21Z</time>
      </trkpt>
      <trkpt lat="59.22409392737" lon="17.918073544475">
        <ele>77</ele>
        <time>2016-07-07T19:40:22Z</time>
      </trkpt>
      <trkpt lat="59.224150421376" lon="17.91810162384">
        <ele>77.6</ele>
        <time>2016-07-07T19:40:23Z</time>
      </trkpt>
      <trkpt lat="59.22420708302" lon="17.918136995458">
        <ele>78.2</ele>
        <time>2016-07-07T19:40:24Z</time>
      </trkpt>
      <trkpt lat="59.224260978637" lon="17.918158285484">
        <ele>78.8</ele>
        <time>2016-07-07T19:40:25Z</time>
      </trkpt>
      <trkpt lat="59.224365417111" lon="17.918221317372">
        <ele>78.8</ele>
        <time>2016-07-07T19:40:27Z</time>
      </trkpt>
      <trkpt lat="59.224708823554" lon="17.918377136893">
        <ele>78.8</ele>
        <time>2016-07-07T19:40:33Z</time>
      </trkpt>
      <trkpt lat="59.225036472025" lon="17.918536225355">
        <ele>78.8</ele>
        <time>2016-07-07T19:40:38Z</time>
      </trkpt>
      <trkpt lat="59.225104533053" lon="17.918568579489">
        <ele>78.8</ele>
        <time>2016-07-07T19:40:39Z</time>
      </trkpt>
      <trkpt lat="59.225422039425" lon="17.918745018484">
        <ele>78.8</ele>
        <time>2016-07-07T19:40:44Z</time>
      </trkpt>
      <trkpt lat="59.225549444305" lon="17.918838644307">
        <ele>78.8</ele>
        <time>2016-07-07T19:40:46Z</time>
      </trkpt>
      <trkpt lat="59.225672406778" lon="17.919002342814">
        <ele>78.8</ele>
        <time>2016-07-07T19:40:48Z</time>
      </trkpt>
      <trkpt lat="59.22578288022" lon="17.919186074062">
        <ele>78.8</ele>
        <time>2016-07-07T19:40:50Z</time>
      </trkpt>
      <trkpt lat="59.225829902679" lon="17.919289003794">
        <ele>78.8</ele>
        <time>2016-07-07T19:40:51Z</time>
      </trkpt>
      <trkpt lat="59.225905423598" lon="17.919508525755">
        <ele>78.8</ele>
        <time>2016-07-07T19:40:53Z</time>
      </trkpt>
      <trkpt lat="59.226178002986" lon="17.920470013504">
        <ele>78.8</ele>
        <time>2016-07-07T19:41:01Z</time>
      </trkpt>
      <trkpt lat="59.226332146127" lon="17.921115587442">
        <ele>78.8</ele>
        <time>2016-07-07T19:41:06Z</time>
      </trkpt>
      <trkpt lat="59.226370535229" lon="17.921237208811">
        <ele>78.8</ele>
        <time>2016-07-07T19:41:07Z</time>
      </trkpt>
      <trkpt lat="59.226687706325" lon="17.922017396063">
        <ele>78.8</ele>
        <time>2016-07-07T19:41:14Z</time>
      </trkpt>
      <trkpt lat="59.226841095095" lon="17.922308750907">
        <ele>78.4</ele>
        <time>2016-07-07T19:41:17Z</time>
      </trkpt>
      <trkpt lat="59.226893901065" lon="17.922410507173">
        <ele>78</ele>
        <time>2016-07-07T19:41:18Z</time>
      </trkpt>
      <trkpt lat="59.226946455578" lon="17.92250798867">
        <ele>77.6</ele>
        <time>2016-07-07T19:41:19Z</time>
      </trkpt>
      <trkpt lat="59.227002279032" lon="17.922593735507">
        <ele>77.2</ele>
        <time>2016-07-07T19:41:20Z</time>
      </trkpt>
      <trkpt lat="59.227056426106" lon="17.922686690778">
        <ele>76.8</ele>
        <time>2016-07-07T19:41:21Z</time>
      </trkpt>
      <trkpt lat="59.227306039088" lon="17.923053901817">
        <ele>76.4</ele>
        <time>2016-07-07T19:41:25Z</time>
      </trkpt>
      <trkpt lat="59.227375105944" lon="17.923140486844">
        <ele>76</ele>
        <time>2016-07-07T19:41:26Z</time>
      </trkpt>
      <trkpt lat="59.227451381234" lon="17.923214666659">
        <ele>75.4</ele>
        <time>2016-07-07T19:41:27Z</time>
      </trkpt>
      <trkpt lat="59.227530757827" lon="17.923278201461">
        <ele>75</ele>
        <time>2016-07-07T19:41:28Z</time>
      </trkpt>
      <trkpt lat="59.227612732809" lon="17.923335952752">
        <ele>74.6</ele>
        <time>2016-07-07T19:41:29Z</time>
      </trkpt>
      <trkpt lat="59.2276956298" lon="17.923396972984">
        <ele>74.6</ele>
        <time>2016-07-07T19:41:30Z</time>
      </trkpt>
      <trkpt lat="59.227777520963" lon="17.923460926881">
        <ele>74</ele>
        <time>2016-07-07T19:41:31Z</time>
      </trkpt>
      <trkpt lat="59.227858154841" lon="17.923534100868">
        <ele>73.6</ele>
        <time>2016-07-07T19:41:32Z</time>
      </trkpt>
      <trkpt lat="59.227926299688" lon="17.923657901531">
        <ele>73.2</ele>
        <time>2016-07-07T19:41:33Z</time>
      </trkpt>
      <trkpt lat="59.227964772609" lon="17.923811877034">
        <ele>72.8</ele>
        <time>2016-07-07T19:41:34Z</time>
      </trkpt>
      <trkpt lat="59.22799318725" lon="17.923972893333">
        <ele>72.2</ele>
        <time>2016-07-07T19:41:35Z</time>
      </trkpt>
      <trkpt lat="59.228064684857" lon="17.924447225054">
        <ele>72.2</ele>
        <time>2016-07-07T19:41:38Z</time>
      </trkpt>
      <trkpt lat="59.228241375309" lon="17.925494124364">
        <ele>72.2</ele>
        <time>2016-07-07T19:41:45Z</time>
      </trkpt>
      <trkpt lat="59.228349753276" lon="17.926508334264">
        <ele>72.2</ele>
        <time>2016-07-07T19:41:52Z</time>
      </trkpt>
      <trkpt lat="59.228331564553" lon="17.927375860914">
        <ele>72.2</ele>
        <time>2016-07-07T19:41:58Z</time>
      </trkpt>
      <trkpt lat="59.228275322004" lon="17.928287560177">
        <ele>71.8</ele>
        <time>2016-07-07T19:42:04Z</time>
      </trkpt>
      <trkpt lat="59.22826643719" lon="17.928438350558">
        <ele>71.2</ele>
        <time>2016-07-07T19:42:05Z</time>
      </trkpt>
      <trkpt lat="59.228256043634" lon="17.928586039636">
        <ele>70.6</ele>
        <time>2016-07-07T19:42:06Z</time>
      </trkpt>
      <trkpt lat="59.228245063345" lon="17.928735488913">
        <ele>70</ele>
        <time>2016-07-07T19:42:07Z</time>
      </trkpt>
      <trkpt lat="59.228234669789" lon="17.928886027837">
        <ele>69.6</ele>
        <time>2016-07-07T19:42:08Z</time>
      </trkpt>
      <trkpt lat="59.228172140815" lon="17.929831003243">
        <ele>69.6</ele>
        <time>2016-07-07T19:42:14Z</time>
      </trkpt>
      <trkpt lat="59.228110701488" lon="17.930911430153">
        <ele>69.6</ele>
        <time>2016-07-07T19:42:21Z</time>
      </trkpt>
      <trkpt lat="59.228108689832" lon="17.931054593005">
        <ele>69.6</ele>
        <time>2016-07-07T19:42:22Z</time>
      </trkpt>
      <trkpt lat="59.228073737309" lon="17.931630094259">
        <ele>69.6</ele>
        <time>2016-07-07T19:42:26Z</time>
      </trkpt>
      <trkpt lat="59.228051609093" lon="17.931765964858">
        <ele>69.6</ele>
        <time>2016-07-07T19:42:27Z</time>
      </trkpt>
      <trkpt lat="59.227941806203" lon="17.931907367511">
        <ele>69.6</ele>
        <time>2016-07-07T19:42:29Z</time>
      </trkpt>
      <trkpt lat="59.227744496277" lon="17.931906026407">
        <ele>69.6</ele>
        <time>2016-07-07T19:42:32Z</time>
      </trkpt>
      <trkpt lat="59.227604770004" lon="17.932093278053">
        <ele>69.6</ele>
        <time>2016-07-07T19:42:35Z</time>
      </trkpt>
      <trkpt lat="59.22756571035" lon="17.932143653272">
        <ele>70</ele>
        <time>2016-07-07T19:42:36Z</time>
      </trkpt>
      <trkpt lat="59.227525058135" lon="17.93219075955">
        <ele>70.4</ele>
        <time>2016-07-07T19:42:37Z</time>
      </trkpt>
      <trkpt lat="59.227486333757" lon="17.932235686534">
        <ele>70.8</ele>
        <time>2016-07-07T19:42:38Z</time>
      </trkpt>
      <trkpt lat="59.227451967967" lon="17.932279775328">
        <ele>71.6</ele>
        <time>2016-07-07T19:42:39Z</time>
      </trkpt>
      <trkpt lat="59.227418105091" lon="17.932321684828">
        <ele>72</ele>
        <time>2016-07-07T19:42:40Z</time>
      </trkpt>
      <trkpt lat="59.227390193364" lon="17.932368791106">
        <ele>72.6</ele>
        <time>2016-07-07T19:42:41Z</time>
      </trkpt>
      <trkpt lat="59.227362365456" lon="17.932418076678">
        <ele>73</ele>
        <time>2016-07-07T19:42:42Z</time>
      </trkpt>
      <trkpt lat="59.227335878652" lon="17.932464512404">
        <ele>73.4</ele>
        <time>2016-07-07T19:42:43Z</time>
      </trkpt>
      <trkpt lat="59.227307883106" lon="17.932518072745">
        <ele>73.8</ele>
        <time>2016-07-07T19:42:44Z</time>
      </trkpt>
      <trkpt lat="59.227261363561" lon="17.932624355237">
        <ele>74.2</ele>
        <time>2016-07-07T19:42:46Z</time>
      </trkpt>
      <trkpt lat="59.227237642784" lon="17.932673389352">
        <ele>74.8</ele>
        <time>2016-07-07T19:42:47Z</time>
      </trkpt>
      <trkpt lat="59.227214844016" lon="17.932722255829">
        <ele>75.2</ele>
        <time>2016-07-07T19:42:48Z</time>
      </trkpt>
      <trkpt lat="59.227192464343" lon="17.932770535573">
        <ele>75.6</ele>
        <time>2016-07-07T19:42:49Z</time>
      </trkpt>
      <trkpt lat="59.227170671403" lon="17.932824682647">
        <ele>76</ele>
        <time>2016-07-07T19:42:50Z</time>
      </trkpt>
      <trkpt lat="59.227127169342" lon="17.932916548271">
        <ele>76.4</ele>
        <time>2016-07-07T19:42:52Z</time>
      </trkpt>
      <trkpt lat="59.227103700022" lon="17.932960301789">
        <ele>76.8</ele>
        <time>2016-07-07T19:42:53Z</time>
      </trkpt>
      <trkpt lat="59.227080733616" lon="17.933012856302">
        <ele>77.2</ele>
        <time>2016-07-07T19:42:54Z</time>
      </trkpt>
      <trkpt lat="59.227055001183" lon="17.933074379448">
        <ele>77.6</ele>
        <time>2016-07-07T19:42:55Z</time>
      </trkpt>
      <trkpt lat="59.227028933474" lon="17.933134729128">
        <ele>78.2</ele>
        <time>2016-07-07T19:42:56Z</time>
      </trkpt>
      <trkpt lat="59.226935894384" lon="17.933311922494">
        <ele>78.2</ele>
        <time>2016-07-07T19:42:59Z</time>
      </trkpt>
      <trkpt lat="59.226817458137" lon="17.933451062034">
        <ele>78.2</ele>
        <time>2016-07-07T19:43:02Z</time>
      </trkpt>
      <trkpt lat="59.226763813977" lon="17.933498587407">
        <ele>78.2</ele>
        <time>2016-07-07T19:43:03Z</time>
      </trkpt>
      <trkpt lat="59.226705392134" lon="17.933550387549">
        <ele>77.6</ele>
        <time>2016-07-07T19:43:04Z</time>
      </trkpt>
      <trkpt lat="59.226641773513" lon="17.93359053685">
        <ele>77.2</ele>
        <time>2016-07-07T19:43:05Z</time>
      </trkpt>
      <trkpt lat="59.226579747453" lon="17.933633535997">
        <ele>76.6</ele>
        <time>2016-07-07T19:43:06Z</time>
      </trkpt>
      <trkpt lat="59.226523923999" lon="17.933670835452">
        <ele>75.8</ele>
        <time>2016-07-07T19:43:07Z</time>
      </trkpt>
      <trkpt lat="59.226472794409" lon="17.933708302545">
        <ele>75.2</ele>
        <time>2016-07-07T19:43:08Z</time>
      </trkpt>
      <trkpt lat="59.226425604312" lon="17.933740489041">
        <ele>74.4</ele>
        <time>2016-07-07T19:43:09Z</time>
      </trkpt>
      <trkpt lat="59.226390651789" lon="17.933774435736">
        <ele>73.8</ele>
        <time>2016-07-07T19:43:10Z</time>
      </trkpt>
      <trkpt lat="59.226371624876" lon="17.93379254064">
        <ele>73</ele>
        <time>2016-07-07T19:43:11Z</time>
      </trkpt>
      <trkpt lat="59.226286129496" lon="17.933866385179">
        <ele>73</ele>
        <time>2016-07-07T19:43:15Z</time>
      </trkpt>
      <trkpt lat="59.226236173372" lon="17.933946516143">
        <ele>73</ele>
        <time>2016-07-07T19:43:17Z</time>
      </trkpt>
      <trkpt lat="59.226224773988" lon="17.934103676768">
        <ele>73</ele>
        <time>2016-07-07T19:43:19Z</time>
      </trkpt>
      <trkpt lat="59.22622460635" lon="17.934266034171">
        <ele>73</ele>
        <time>2016-07-07T19:43:21Z</time>
      </trkpt>
      <trkpt lat="59.226237263019" lon="17.934372484301">
        <ele>72.6</ele>
        <time>2016-07-07T19:43:22Z</time>
      </trkpt>
      <trkpt lat="59.226238939399" lon="17.934482622467">
        <ele>72.2</ele>
        <time>2016-07-07T19:43:23Z</time>
      </trkpt>
      <trkpt lat="59.226216727364" lon="17.934566273829">
        <ele>71.8</ele>
        <time>2016-07-07T19:43:24Z</time>
      </trkpt>
      <trkpt lat="59.226169956362" lon="17.934649003182">
        <ele>71.4</ele>
        <time>2016-07-07T19:43:25Z</time>
      </trkpt>
      <trkpt lat="59.226111953614" lon="17.934705748645">
        <ele>71</ele>
        <time>2016-07-07T19:43:26Z</time>
      </trkpt>
      <trkpt lat="59.226013550108" lon="17.93484530728">
        <ele>71</ele>
        <time>2016-07-07T19:43:28Z</time>
      </trkpt>
      <trkpt lat="59.225926629805" lon="17.934989224503">
        <ele>71</ele>
        <time>2016-07-07T19:43:30Z</time>
      </trkpt>
      <trkpt lat="59.225838703674" lon="17.935130794794">
        <ele>71</ele>
        <time>2016-07-07T19:43:32Z</time>
      </trkpt>
      <trkpt lat="59.225759243262" lon="17.935277897139">
        <ele>71</ele>
        <time>2016-07-07T19:43:34Z</time>
      </trkpt>
      <trkpt lat="59.225641561386" lon="17.935494820711">
        <ele>71.4</ele>
        <time>2016-07-07T19:43:37Z</time>
      </trkpt>
      <trkpt lat="59.225604094293" lon="17.935565228671">
        <ele>71.8</ele>
        <time>2016-07-07T19:43:38Z</time>
      </trkpt>
      <trkpt lat="59.225552964703" lon="17.935591883113">
        <ele>72.4</ele>
        <time>2016-07-07T19:43:39Z</time>
      </trkpt>
      <trkpt lat="59.22549621924" lon="17.935586518697">
        <ele>72.8</ele>
        <time>2016-07-07T19:43:40Z</time>
      </trkpt>
      <trkpt lat="59.225439892872" lon="17.935574448761">
        <ele>73.2</ele>
        <time>2016-07-07T19:43:41Z</time>
      </trkpt>
      <trkpt lat="59.225343752479" lon="17.935473446866">
        <ele>73.2</ele>
        <time>2016-07-07T19:43:43Z</time>
      </trkpt>
      <trkpt lat="59.225298490219" lon="17.935418126326">
        <ele>73.2</ele>
        <time>2016-07-07T19:43:44Z</time>
      </trkpt>
      <trkpt lat="59.225159769774" lon="17.935252332344">
        <ele>73.6</ele>
        <time>2016-07-07T19:43:47Z</time>
      </trkpt>
      <trkpt lat="59.225117022084" lon="17.93519064156">
        <ele>74</ele>
        <time>2016-07-07T19:43:48Z</time>
      </trkpt>
      <trkpt lat="59.225071424548" lon="17.935133560821">
        <ele>74.4</ele>
        <time>2016-07-07T19:43:49Z</time>
      </trkpt>
      <trkpt lat="59.225026162288" lon="17.935076144806">
        <ele>74.8</ele>
        <time>2016-07-07T19:43:50Z</time>
      </trkpt>
      <trkpt lat="59.224982995503" lon="17.935018393515">
        <ele>75.2</ele>
        <time>2016-07-07T19:43:51Z</time>
      </trkpt>
      <trkpt lat="59.224745620095" lon="17.934749669801">
        <ele>75.2</ele>
        <time>2016-07-07T19:43:56Z</time>
      </trkpt>
      <trkpt lat="59.224694490505" lon="17.934715723106">
        <ele>75.2</ele>
        <time>2016-07-07T19:43:57Z</time>
      </trkpt>
      <trkpt lat="59.224487457575" lon="17.934664677335">
        <ele>75.2</ele>
        <time>2016-07-07T19:44:01Z</time>
      </trkpt>
      <trkpt lat="59.224432723768" lon="17.934660570204">
        <ele>75.2</ele>
        <time>2016-07-07T19:44:02Z</time>
      </trkpt>
      <trkpt lat="59.224379917798" lon="17.934671969588">
        <ele>75.2</ele>
        <time>2016-07-07T19:44:03Z</time>
      </trkpt>
      <trkpt lat="59.224331051321" lon="17.934695858003">
        <ele>75.6</ele>
        <time>2016-07-07T19:44:04Z</time>
      </trkpt>
      <trkpt lat="59.224283274491" lon="17.934726787214">
        <ele>76.2</ele>
        <time>2016-07-07T19:44:05Z</time>
      </trkpt>
      <trkpt lat="59.224238850421" lon="17.934767439429">
        <ele>76.6</ele>
        <time>2016-07-07T19:44:06Z</time>
      </trkpt>
      <trkpt lat="59.22419953931" lon="17.934818066105">
        <ele>77</ele>
        <time>2016-07-07T19:44:07Z</time>
      </trkpt>
      <trkpt lat="59.224162072217" lon="17.934876990862">
        <ele>77.4</ele>
        <time>2016-07-07T19:44:08Z</time>
      </trkpt>
      <trkpt lat="59.22409560375" lon="17.93502300356">
        <ele>77.4</ele>
        <time>2016-07-07T19:44:10Z</time>
      </trkpt>
      <trkpt lat="59.224039780296" lon="17.935191731207">
        <ele>77.4</ele>
        <time>2016-07-07T19:44:12Z</time>
      </trkpt>
      <trkpt lat="59.224011365655" lon="17.935276891311">
        <ele>77.8</ele>
        <time>2016-07-07T19:44:13Z</time>
      </trkpt>
      <trkpt lat="59.223986136136" lon="17.935362302872">
        <ele>78.2</ele>
        <time>2016-07-07T19:44:14Z</time>
      </trkpt>
      <trkpt lat="59.223959649332" lon="17.935444026397">
        <ele>78.6</ele>
        <time>2016-07-07T19:44:15Z</time>
      </trkpt>
      <trkpt lat="59.223933581623" lon="17.935526839569">
        <ele>79</ele>
        <time>2016-07-07T19:44:16Z</time>
      </trkpt>
      <trkpt lat="59.223908435923" lon="17.935609485103">
        <ele>79.4</ele>
        <time>2016-07-07T19:44:17Z</time>
      </trkpt>
      <trkpt lat="59.223883122585" lon="17.935692801189">
        <ele>79.8</ele>
        <time>2016-07-07T19:44:18Z</time>
      </trkpt>
      <trkpt lat="59.223859066532" lon="17.935770501402">
        <ele>80.2</ele>
        <time>2016-07-07T19:44:19Z</time>
      </trkpt>
      <trkpt lat="59.223832831185" lon="17.935844094484">
        <ele>80.8</ele>
        <time>2016-07-07T19:44:20Z</time>
      </trkpt>
      <trkpt lat="59.223801901974" lon="17.935908886571">
        <ele>81.2</ele>
        <time>2016-07-07T19:44:21Z</time>
      </trkpt>
      <trkpt lat="59.223759573379" lon="17.935941073067">
        <ele>81.6</ele>
        <time>2016-07-07T19:44:22Z</time>
      </trkpt>
      <trkpt lat="59.223618757459" lon="17.935857924619">
        <ele>81.6</ele>
        <time>2016-07-07T19:44:25Z</time>
      </trkpt>
      <trkpt lat="59.223515324813" lon="17.935595654968">
        <ele>81.6</ele>
        <time>2016-07-07T19:44:28Z</time>
      </trkpt>
      <trkpt lat="59.223483222136" lon="17.935510411045">
        <ele>81.6</ele>
        <time>2016-07-07T19:44:29Z</time>
      </trkpt>
      <trkpt lat="59.22344097736" lon="17.935437572334">
        <ele>81.6</ele>
        <time>2016-07-07T19:44:30Z</time>
      </trkpt>
      <trkpt lat="59.223325223321" lon="17.935386694201">
        <ele>81.6</ele>
        <time>2016-07-07T19:44:32Z</time>
      </trkpt>
      <trkpt lat="59.223215252793" lon="17.935524576456">
        <ele>81.6</ele>
        <time>2016-07-07T19:44:34Z</time>
      </trkpt>
      <trkpt lat="59.223119363857" lon="17.935870162193">
        <ele>81.6</ele>
        <time>2016-07-07T19:44:37Z</time>
      </trkpt>
      <trkpt lat="59.223039568169" lon="17.936089767973">
        <ele>81.6</ele>
        <time>2016-07-07T19:44:39Z</time>
      </trkpt>
      <trkpt lat="59.222925322872" lon="17.936416745892">
        <ele>81.6</ele>
        <time>2016-07-07T19:44:42Z</time>
      </trkpt>
      <trkpt lat="59.222616868952" lon="17.93726180905">
        <ele>81.6</ele>
        <time>2016-07-07T19:44:50Z</time>
      </trkpt>
      <trkpt lat="59.222443698898" lon="17.93778148685">
        <ele>81.6</ele>
        <time>2016-07-07T19:44:55Z</time>
      </trkpt>
      <trkpt lat="59.222360047536" lon="17.938063789242">
        <ele>81.6</ele>
        <time>2016-07-07T19:44:57Z</time>
      </trkpt>
      <trkpt lat="59.222144716525" lon="17.938580114282">
        <ele>81.6</ele>
        <time>2016-07-07T19:45:01Z</time>
      </trkpt>
      <trkpt lat="59.222095514772" lon="17.938712464483">
        <ele>82</ele>
        <time>2016-07-07T19:45:02Z</time>
      </trkpt>
      <trkpt lat="59.222043882268" lon="17.938849843824">
        <ele>82.4</ele>
        <time>2016-07-07T19:45:03Z</time>
      </trkpt>
      <trkpt lat="59.221991243936" lon="17.938977919256">
        <ele>82.8</ele>
        <time>2016-07-07T19:45:04Z</time>
      </trkpt>
      <trkpt lat="59.221940198165" lon="17.939108844534">
        <ele>83.2</ele>
        <time>2016-07-07T19:45:05Z</time>
      </trkpt>
      <trkpt lat="59.221886805462" lon="17.939241362373">
        <ele>83.8</ele>
        <time>2016-07-07T19:45:06Z</time>
      </trkpt>
      <trkpt lat="59.22183249075" lon="17.939379244628">
        <ele>83.2</ele>
        <time>2016-07-07T19:45:07Z</time>
      </trkpt>
      <trkpt lat="59.221784211006" lon="17.939515785779">
        <ele>82.4</ele>
        <time>2016-07-07T19:45:08Z</time>
      </trkpt>
      <trkpt lat="59.221731656493" lon="17.939660038278">
        <ele>82</ele>
        <time>2016-07-07T19:45:09Z</time>
      </trkpt>
      <trkpt lat="59.221673905202" lon="17.939815187247">
        <ele>81.6</ele>
        <time>2016-07-07T19:45:10Z</time>
      </trkpt>
      <trkpt lat="59.221617327377" lon="17.939962876325">
        <ele>81</ele>
        <time>2016-07-07T19:45:11Z</time>
      </trkpt>
      <trkpt lat="59.221562342113" lon="17.940114840172">
        <ele>80.6</ele>
        <time>2016-07-07T19:45:12Z</time>
      </trkpt>
      <trkpt lat="59.221509284686" lon="17.940265965829">
        <ele>80</ele>
        <time>2016-07-07T19:45:13Z</time>
      </trkpt>
      <trkpt lat="59.221454047965" lon="17.940419354599">
        <ele>79.6</ele>
        <time>2016-07-07T19:45:14Z</time>
      </trkpt>
      <trkpt lat="59.221395207027" lon="17.940567127496">
        <ele>79</ele>
        <time>2016-07-07T19:45:15Z</time>
      </trkpt>
      <trkpt lat="59.22133963503" lon="17.940718253153">
        <ele>78.4</ele>
        <time>2016-07-07T19:45:16Z</time>
      </trkpt>
      <trkpt lat="59.221287164336" lon="17.940867953887">
        <ele>78</ele>
        <time>2016-07-07T19:45:17Z</time>
      </trkpt>
      <trkpt lat="59.221231592339" lon="17.941022599942">
        <ele>77.4</ele>
        <time>2016-07-07T19:45:18Z</time>
      </trkpt>
      <trkpt lat="59.220905620248" lon="17.941870512946">
        <ele>77.4</ele>
        <time>2016-07-07T19:45:24Z</time>
      </trkpt>
      <trkpt lat="59.220644691701" lon="17.942471411357">
        <ele>77.4</ele>
        <time>2016-07-07T19:45:29Z</time>
      </trkpt>
      <trkpt lat="59.22049390132" lon="17.94244349963">
        <ele>77.4</ele>
        <time>2016-07-07T19:45:31Z</time>
      </trkpt>
      <trkpt lat="59.220322994379" lon="17.942132195864">
        <ele>77.4</ele>
        <time>2016-07-07T19:45:34Z</time>
      </trkpt>
      <trkpt lat="59.220197014422" lon="17.941954248127">
        <ele>77.4</ele>
        <time>2016-07-07T19:45:36Z</time>
      </trkpt>
      <trkpt lat="59.220141190968" lon="17.941849642015">
        <ele>77.4</ele>
        <time>2016-07-07T19:45:37Z</time>
      </trkpt>
      <trkpt lat="59.220078242899" lon="17.941754172174">
        <ele>77.4</ele>
        <time>2016-07-07T19:45:38Z</time>
      </trkpt>
      <trkpt lat="59.219941785567" lon="17.941552336022">
        <ele>77.8</ele>
        <time>2016-07-07T19:45:40Z</time>
      </trkpt>
      <trkpt lat="59.219868527761" lon="17.941461476226">
        <ele>78.2</ele>
        <time>2016-07-07T19:45:41Z</time>
      </trkpt>
      <trkpt lat="59.219802143113" lon="17.941368018041">
        <ele>78.8</ele>
        <time>2016-07-07T19:45:42Z</time>
      </trkpt>
      <trkpt lat="59.219743972727" lon="17.94128763562">
        <ele>79.2</ele>
        <time>2016-07-07T19:45:43Z</time>
      </trkpt>
      <trkpt lat="59.219682952495" lon="17.941216976203">
        <ele>79.6</ele>
        <time>2016-07-07T19:45:44Z</time>
      </trkpt>
      <trkpt lat="59.219560241479" lon="17.941064006528">
        <ele>79.6</ele>
        <time>2016-07-07T19:45:46Z</time>
      </trkpt>
      <trkpt lat="59.219387406701" lon="17.940821099066">
        <ele>80</ele>
        <time>2016-07-07T19:45:49Z</time>
      </trkpt>
      <trkpt lat="59.219328062849" lon="17.940737280066">
        <ele>80.4</ele>
        <time>2016-07-07T19:45:50Z</time>
      </trkpt>
      <trkpt lat="59.21926846754" lon="17.940652958152">
        <ele>80.8</ele>
        <time>2016-07-07T19:45:51Z</time>
      </trkpt>
      <trkpt lat="59.21920727967" lon="17.940577353414">
        <ele>81.2</ele>
        <time>2016-07-07T19:45:52Z</time>
      </trkpt>
      <trkpt lat="59.219149109284" lon="17.940500323753">
        <ele>81.8</ele>
        <time>2016-07-07T19:45:53Z</time>
      </trkpt>
      <trkpt lat="59.218888432194" lon="17.940170998902">
        <ele>81.8</ele>
        <time>2016-07-07T19:45:57Z</time>
      </trkpt>
      <trkpt lat="59.218581403197" lon="17.939738828138">
        <ele>81.8</ele>
        <time>2016-07-07T19:46:02Z</time>
      </trkpt>
      <trkpt lat="59.218226262094" lon="17.939266088978">
        <ele>81.8</ele>
        <time>2016-07-07T19:46:08Z</time>
      </trkpt>
      <trkpt lat="59.218104389268" lon="17.939120579194">
        <ele>81.8</ele>
        <time>2016-07-07T19:46:10Z</time>
      </trkpt>
      <trkpt lat="59.217806077447" lon="17.938719589098">
        <ele>81.8</ele>
        <time>2016-07-07T19:46:15Z</time>
      </trkpt>
      <trkpt lat="59.217386563352" lon="17.938137969057">
        <ele>81.8</ele>
        <time>2016-07-07T19:46:22Z</time>
      </trkpt>
      <trkpt lat="59.217201826276" lon="17.937887182609">
        <ele>81.8</ele>
        <time>2016-07-07T19:46:25Z</time>
      </trkpt>
      <trkpt lat="59.217027734213" lon="17.937625164415">
        <ele>81.8</ele>
        <time>2016-07-07T19:46:28Z</time>
      </trkpt>
      <trkpt lat="59.216675023861" lon="17.937094673964">
        <ele>81.8</ele>
        <time>2016-07-07T19:46:34Z</time>
      </trkpt>
      <trkpt lat="59.216268250254" lon="17.93643451552">
        <ele>81.8</ele>
        <time>2016-07-07T19:46:41Z</time>
      </trkpt>
      <trkpt lat="59.216135983872" lon="17.936086918127">
        <ele>81.8</ele>
        <time>2016-07-07T19:46:44Z</time>
      </trkpt>
      <trkpt lat="59.21606406717" lon="17.935823642648">
        <ele>81.8</ele>
        <time>2016-07-07T19:46:46Z</time>
      </trkpt>
      <trkpt lat="59.216002795481" lon="17.935530695243">
        <ele>81.8</ele>
        <time>2016-07-07T19:46:48Z</time>
      </trkpt>
      <trkpt lat="59.215949402778" lon="17.935065667431">
        <ele>81.2</ele>
        <time>2016-07-07T19:46:51Z</time>
      </trkpt>
      <trkpt lat="59.215939428317" lon="17.934901717467">
        <ele>80.8</ele>
        <time>2016-07-07T19:46:52Z</time>
      </trkpt>
      <trkpt lat="59.215933225711" lon="17.934738186598">
        <ele>80.4</ele>
        <time>2016-07-07T19:46:53Z</time>
      </trkpt>
      <trkpt lat="59.215931549331" lon="17.93457289553">
        <ele>79.8</ele>
        <time>2016-07-07T19:46:54Z</time>
      </trkpt>
      <trkpt lat="59.215932052245" lon="17.934402575322">
        <ele>79.4</ele>
        <time>2016-07-07T19:46:55Z</time>
      </trkpt>
      <trkpt lat="59.215934063901" lon="17.93422169392">
        <ele>79.4</ele>
        <time>2016-07-07T19:46:56Z</time>
      </trkpt>
      <trkpt lat="59.215946301475" lon="17.933071278145">
        <ele>79.4</ele>
        <time>2016-07-07T19:47:03Z</time>
      </trkpt>
      <trkpt lat="59.215949654235" lon="17.932739774">
        <ele>79</ele>
        <time>2016-07-07T19:47:05Z</time>
      </trkpt>
      <trkpt lat="59.21595342609" lon="17.932570962534">
        <ele>78.6</ele>
        <time>2016-07-07T19:47:06Z</time>
      </trkpt>
      <trkpt lat="59.215957784678" lon="17.932402905439">
        <ele>78</ele>
        <time>2016-07-07T19:47:07Z</time>
      </trkpt>
      <trkpt lat="59.215957868497" lon="17.932237111457">
        <ele>77.6</ele>
        <time>2016-07-07T19:47:08Z</time>
      </trkpt>
      <trkpt lat="59.215959377239" lon="17.932072910036">
        <ele>77.2</ele>
        <time>2016-07-07T19:47:09Z</time>
      </trkpt>
      <trkpt lat="59.215967759139" lon="17.931734951828">
        <ele>77.2</ele>
        <time>2016-07-07T19:47:11Z</time>
      </trkpt>
      <trkpt lat="59.215940601783" lon="17.930735158796">
        <ele>77.2</ele>
        <time>2016-07-07T19:47:17Z</time>
      </trkpt>
      <trkpt lat="59.215826524124" lon="17.929566135203">
        <ele>77.2</ele>
        <time>2016-07-07T19:47:24Z</time>
      </trkpt>
      <trkpt lat="59.215654695174" lon="17.928669439541">
        <ele>77.2</ele>
        <time>2016-07-07T19:47:30Z</time>
      </trkpt>
      <trkpt lat="59.215583532843" lon="17.928419658921">
        <ele>77.2</ele>
        <time>2016-07-07T19:47:32Z</time>
      </trkpt>
      <trkpt lat="59.215482866224" lon="17.928061500334">
        <ele>77.2</ele>
        <time>2016-07-07T19:47:35Z</time>
      </trkpt>
      <trkpt lat="59.21535495843" lon="17.927634610167">
        <ele>77.6</ele>
        <time>2016-07-07T19:47:39Z</time>
      </trkpt>
      <trkpt lat="59.215322939572" lon="17.927535368471">
        <ele>78</ele>
        <time>2016-07-07T19:47:40Z</time>
      </trkpt>
      <trkpt lat="59.215284634289" lon="17.927433696024">
        <ele>78.4</ele>
        <time>2016-07-07T19:47:41Z</time>
      </trkpt>
      <trkpt lat="59.215246077549" lon="17.927343925875">
        <ele>79</ele>
        <time>2016-07-07T19:47:42Z</time>
      </trkpt>
      <trkpt lat="59.21520576061" lon="17.927251808794">
        <ele>79.4</ele>
        <time>2016-07-07T19:47:43Z</time>
      </trkpt>
      <trkpt lat="59.214919351087" lon="17.926593075273">
        <ele>79.8</ele>
        <time>2016-07-07T19:47:50Z</time>
      </trkpt>
      <trkpt lat="59.214872915361" lon="17.926504730047">
        <ele>80.2</ele>
        <time>2016-07-07T19:47:51Z</time>
      </trkpt>
      <trkpt lat="59.214828407472" lon="17.926422503608">
        <ele>80.6</ele>
        <time>2016-07-07T19:47:52Z</time>
      </trkpt>
      <trkpt lat="59.214783061393" lon="17.926341450635">
        <ele>81.2</ele>
        <time>2016-07-07T19:47:53Z</time>
      </trkpt>
      <trkpt lat="59.214740397522" lon="17.9262521834">
        <ele>81.6</ele>
        <time>2016-07-07T19:47:54Z</time>
      </trkpt>
      <trkpt lat="59.214613411737" lon="17.925981699487">
        <ele>81.6</ele>
        <time>2016-07-07T19:47:57Z</time>
      </trkpt>
      <trkpt lat="59.214400511477" lon="17.925532262009">
        <ele>82</ele>
        <time>2016-07-07T19:48:02Z</time>
      </trkpt>
      <trkpt lat="59.214353489018" lon="17.925438803824">
        <ele>82.4</ele>
        <time>2016-07-07T19:48:03Z</time>
      </trkpt>
      <trkpt lat="59.214312333889" lon="17.925343753078">
        <ele>82.8</ele>
        <time>2016-07-07T19:48:04Z</time>
      </trkpt>
      <trkpt lat="59.214272268407" lon="17.925247947961">
        <ele>83.4</ele>
        <time>2016-07-07T19:48:05Z</time>
      </trkpt>
      <trkpt lat="59.214226167957" lon="17.925152897215">
        <ele>83.8</ele>
        <time>2016-07-07T19:48:06Z</time>
      </trkpt>
      <trkpt lat="59.213934813113" lon="17.924557111763">
        <ele>83.8</ele>
        <time>2016-07-07T19:48:12Z</time>
      </trkpt>
      <trkpt lat="59.213700203732" lon="17.923835346354">
        <ele>83.8</ele>
        <time>2016-07-07T19:48:18Z</time>
      </trkpt>
      <trkpt lat="59.21367941662" lon="17.923695536262">
        <ele>83.8</ele>
        <time>2016-07-07T19:48:19Z</time>
      </trkpt>
      <trkpt lat="59.213614792171" lon="17.923139648654">
        <ele>83.8</ele>
        <time>2016-07-07T19:48:23Z</time>
      </trkpt>
      <trkpt lat="59.213611607049" lon="17.923005957349">
        <ele>83.8</ele>
        <time>2016-07-07T19:48:24Z</time>
      </trkpt>
      <trkpt lat="59.213608924841" lon="17.922562638658">
        <ele>83.8</ele>
        <time>2016-07-07T19:48:27Z</time>
      </trkpt>
      <trkpt lat="59.213666759951" lon="17.921861827999">
        <ele>83.8</ele>
        <time>2016-07-07T19:48:32Z</time>
      </trkpt>
      <trkpt lat="59.213687630882" lon="17.921583716557">
        <ele>83.8</ele>
        <time>2016-07-07T19:48:34Z</time>
      </trkpt>
      <trkpt lat="59.213718895369" lon="17.92102858332">
        <ele>83.8</ele>
        <time>2016-07-07T19:48:38Z</time>
      </trkpt>
      <trkpt lat="59.213749656942" lon="17.920739156313">
        <ele>83.8</ele>
        <time>2016-07-07T19:48:40Z</time>
      </trkpt>
      <trkpt lat="59.213777736307" lon="17.920430450936">
        <ele>83.8</ele>
        <time>2016-07-07T19:48:42Z</time>
      </trkpt>
      <trkpt lat="59.213795338297" lon="17.920275469605">
        <ele>83.8</ele>
        <time>2016-07-07T19:48:43Z</time>
      </trkpt>
      <trkpt lat="59.213805899491" lon="17.92011411803">
        <ele>83.4</ele>
        <time>2016-07-07T19:48:44Z</time>
      </trkpt>
      <trkpt lat="59.213812772649" lon="17.91995402374">
        <ele>83</ele>
        <time>2016-07-07T19:48:45Z</time>
      </trkpt>
      <trkpt lat="59.213820903092" lon="17.919788984129">
        <ele>82.6</ele>
        <time>2016-07-07T19:48:46Z</time>
      </trkpt>
      <trkpt lat="59.213821741282" lon="17.919630817676">
        <ele>82</ele>
        <time>2016-07-07T19:48:47Z</time>
      </trkpt>
      <trkpt lat="59.213815790133" lon="17.919462173848">
        <ele>81.6</ele>
        <time>2016-07-07T19:48:48Z</time>
      </trkpt>
      <trkpt lat="59.213800451256" lon="17.919306270508">
        <ele>81.6</ele>
        <time>2016-07-07T19:48:49Z</time>
      </trkpt>
      <trkpt lat="59.213764912" lon="17.918986249566">
        <ele>81.2</ele>
        <time>2016-07-07T19:48:51Z</time>
      </trkpt>
      <trkpt lat="59.213742197051" lon="17.918832022606">
        <ele>80.8</ele>
        <time>2016-07-07T19:48:52Z</time>
      </trkpt>
      <trkpt lat="59.213714872057" lon="17.918675281076">
        <ele>80.4</ele>
        <time>2016-07-07T19:48:53Z</time>
      </trkpt>
      <trkpt lat="59.213674303661" lon="17.918522227582">
        <ele>80</ele>
        <time>2016-07-07T19:48:54Z</time>
      </trkpt>
      <trkpt lat="59.213624682813" lon="17.918366743337">
        <ele>79.6</ele>
        <time>2016-07-07T19:48:55Z</time>
      </trkpt>
      <trkpt lat="59.213537678691" lon="17.91808905099">
        <ele>79.6</ele>
        <time>2016-07-07T19:48:57Z</time>
      </trkpt>
      <trkpt lat="59.213483531617" lon="17.917960221187">
        <ele>79.6</ele>
        <time>2016-07-07T19:48:58Z</time>
      </trkpt>
      <trkpt lat="59.213306924984" lon="17.917606672645">
        <ele>79.6</ele>
        <time>2016-07-07T19:49:01Z</time>
      </trkpt>
      <trkpt lat="59.212973744459" lon="17.917140136091">
        <ele>79.6</ele>
        <time>2016-07-07T19:49:06Z</time>
      </trkpt>
      <trkpt lat="59.212565797386" lon="17.916736882882">
        <ele>79.6</ele>
        <time>2016-07-07T19:49:12Z</time>
      </trkpt>
      <trkpt lat="59.212502933136" lon="17.916647112733">
        <ele>79.6</ele>
        <time>2016-07-07T19:49:13Z</time>
      </trkpt>
      <trkpt lat="59.212464627853" lon="17.916499926569">
        <ele>79.2</ele>
        <time>2016-07-07T19:49:14Z</time>
      </trkpt>
      <trkpt lat="59.21244811551" lon="17.916330947465">
        <ele>78.4</ele>
        <time>2016-07-07T19:49:15Z</time>
      </trkpt>
      <trkpt lat="59.212442331999" lon="17.916168841519">
        <ele>78</ele>
        <time>2016-07-07T19:49:16Z</time>
      </trkpt>
      <trkpt lat="59.21241039696" lon="17.916046130503">
        <ele>77.6</ele>
        <time>2016-07-07T19:49:17Z</time>
      </trkpt>
      <trkpt lat="59.212360776112" lon="17.915960132209">
        <ele>77.6</ele>
        <time>2016-07-07T19:49:18Z</time>
      </trkpt>
      <trkpt lat="59.212238232734" lon="17.91608745327">
        <ele>77.6</ele>
        <time>2016-07-07T19:49:20Z</time>
      </trkpt>
      <trkpt lat="59.212178385968" lon="17.916160208162">
        <ele>77.6</ele>
        <time>2016-07-07T19:49:21Z</time>
      </trkpt>
      <trkpt lat="59.212110576397" lon="17.916211337752">
        <ele>77.6</ele>
        <time>2016-07-07T19:49:22Z</time>
      </trkpt>
      <trkpt lat="59.211967078269" lon="17.916298006598">
        <ele>77.6</ele>
        <time>2016-07-07T19:49:24Z</time>
      </trkpt>
      <trkpt lat="59.211618055953" lon="17.916529849952">
        <ele>78</ele>
        <time>2016-07-07T19:49:29Z</time>
      </trkpt>
      <trkpt lat="59.211543540862" lon="17.916574274022">
        <ele>78.4</ele>
        <time>2016-07-07T19:49:30Z</time>
      </trkpt>
      <trkpt lat="59.211472546169" lon="17.916633282598">
        <ele>78.8</ele>
        <time>2016-07-07T19:49:31Z</time>
      </trkpt>
      <trkpt lat="59.211403144037" lon="17.91669514102">
        <ele>79.2</ele>
        <time>2016-07-07T19:49:32Z</time>
      </trkpt>
      <trkpt lat="59.211335418285" lon="17.916748868999">
        <ele>79.8</ele>
        <time>2016-07-07T19:49:33Z</time>
      </trkpt>
      <trkpt lat="59.211198793315" lon="17.916857330785">
        <ele>79.8</ele>
        <time>2016-07-07T19:49:35Z</time>
      </trkpt>
      <trkpt lat="59.210774166261" lon="17.917190259853">
        <ele>79.8</ele>
        <time>2016-07-07T19:49:41Z</time>
      </trkpt>
      <trkpt lat="59.210702668654" lon="17.917229403326">
        <ele>79.8</ele>
        <time>2016-07-07T19:49:42Z</time>
      </trkpt>
      <trkpt lat="59.210413576923" lon="17.91743526279">
        <ele>79.8</ele>
        <time>2016-07-07T19:49:46Z</time>
      </trkpt>
      <trkpt lat="59.210049634825" lon="17.917723264874">
        <ele>79.8</ele>
        <time>2016-07-07T19:49:51Z</time>
      </trkpt>
      <trkpt lat="59.209840087325" lon="17.917887466295">
        <ele>79.4</ele>
        <time>2016-07-07T19:49:54Z</time>
      </trkpt>
      <trkpt lat="59.209786191708" lon="17.917931387451">
        <ele>78.8</ele>
        <time>2016-07-07T19:49:55Z</time>
      </trkpt>
      <trkpt lat="59.209752412651" lon="17.917966004698">
        <ele>78.4</ele>
        <time>2016-07-07T19:49:56Z</time>
      </trkpt>
      <trkpt lat="59.209724668562" lon="17.917987127086">
        <ele>78</ele>
        <time>2016-07-07T19:49:57Z</time>
      </trkpt>
      <trkpt lat="59.209701450699" lon="17.91801780484">
        <ele>77.6</ele>
        <time>2016-07-07T19:49:58Z</time>
      </trkpt>
      <trkpt lat="59.209668761289" lon="17.918027360206">
        <ele>77.6</ele>
        <time>2016-07-07T19:50:00Z</time>
      </trkpt>
      <trkpt lat="59.209646297797" lon="17.918060133435">
        <ele>77.6</ele>
        <time>2016-07-07T19:50:05Z</time>
      </trkpt>
      <trkpt lat="59.209634898413" lon="17.918069856439">
        <ele>79.8</ele>
        <time>2016-07-07T19:50:21Z</time>
      </trkpt>
      <trkpt lat="59.209494920683" lon="17.918155854733">
        <ele>79.8</ele>
        <time>2016-07-07T19:50:25Z</time>
      </trkpt>
      <trkpt lat="59.209439097229" lon="17.918215282404">
        <ele>79.8</ele>
        <time>2016-07-07T19:50:26Z</time>
      </trkpt>
      <trkpt lat="59.209330467805" lon="17.918348303157">
        <ele>79.8</ele>
        <time>2016-07-07T19:50:28Z</time>
      </trkpt>
      <trkpt lat="59.209234411231" lon="17.918515773519">
        <ele>79.2</ele>
        <time>2016-07-07T19:50:30Z</time>
      </trkpt>
      <trkpt lat="59.209186215306" lon="17.918602442365">
        <ele>78.8</ele>
        <time>2016-07-07T19:50:31Z</time>
      </trkpt>
      <trkpt lat="59.209135923906" lon="17.918685339356">
        <ele>78.4</ele>
        <time>2016-07-07T19:50:32Z</time>
      </trkpt>
      <trkpt lat="59.209082698841" lon="17.918770750917">
        <ele>78</ele>
        <time>2016-07-07T19:50:33Z</time>
      </trkpt>
      <trkpt lat="59.209031569251" lon="17.918869154423">
        <ele>77.6</ele>
        <time>2016-07-07T19:50:34Z</time>
      </trkpt>
      <trkpt lat="59.208797043689" lon="17.919372068423">
        <ele>77.6</ele>
        <time>2016-07-07T19:50:39Z</time>
      </trkpt>
      <trkpt lat="59.208497977497" lon="17.92020631893">
        <ele>78</ele>
        <time>2016-07-07T19:50:46Z</time>
      </trkpt>
      <trkpt lat="59.20846168387" lon="17.920307320825">
        <ele>78.6</ele>
        <time>2016-07-07T19:50:47Z</time>
      </trkpt>
      <trkpt lat="59.208418433266" lon="17.920431624402">
        <ele>79</ele>
        <time>2016-07-07T19:50:48Z</time>
      </trkpt>
      <trkpt lat="59.208371494626" lon="17.920559532196">
        <ele>79.4</ele>
        <time>2016-07-07T19:50:49Z</time>
      </trkpt>
      <trkpt lat="59.208324723624" lon="17.920679309547">
        <ele>80</ele>
        <time>2016-07-07T19:50:50Z</time>
      </trkpt>
      <trkpt lat="59.208138896901" lon="17.921132854156">
        <ele>80</ele>
        <time>2016-07-07T19:50:54Z</time>
      </trkpt>
      <trkpt lat="59.207876291974" lon="17.92173517749">
        <ele>79.6</ele>
        <time>2016-07-07T19:50:59Z</time>
      </trkpt>
      <trkpt lat="59.20782046852" lon="17.921854116651">
        <ele>79</ele>
        <time>2016-07-07T19:51:00Z</time>
      </trkpt>
      <trkpt lat="59.207763303962" lon="17.921971966165">
        <ele>78.6</ele>
        <time>2016-07-07T19:51:01Z</time>
      </trkpt>
      <trkpt lat="59.207703205739" lon="17.922083948349">
        <ele>78.2</ele>
        <time>2016-07-07T19:51:02Z</time>
      </trkpt>
      <trkpt lat="59.207640006213" lon="17.922204312433">
        <ele>77.8</ele>
        <time>2016-07-07T19:51:03Z</time>
      </trkpt>
      <trkpt lat="59.207375976363" lon="17.922647463486">
        <ele>77.4</ele>
        <time>2016-07-07T19:51:07Z</time>
      </trkpt>
      <trkpt lat="59.207303724385" lon="17.922761373507">
        <ele>76.8</ele>
        <time>2016-07-07T19:51:08Z</time>
      </trkpt>
      <trkpt lat="59.207228371104" lon="17.922870338207">
        <ele>76.4</ele>
        <time>2016-07-07T19:51:09Z</time>
      </trkpt>
      <trkpt lat="59.207153353099" lon="17.922975866328">
        <ele>76</ele>
        <time>2016-07-07T19:51:10Z</time>
      </trkpt>
      <trkpt lat="59.207072216307" lon="17.923085082485">
        <ele>75.4</ele>
        <time>2016-07-07T19:51:11Z</time>
      </trkpt>
      <trkpt lat="59.206992420619" lon="17.923192957538">
        <ele>75</ele>
        <time>2016-07-07T19:51:12Z</time>
      </trkpt>
      <trkpt lat="59.206909439809" lon="17.923296641641">
        <ele>74.4</ele>
        <time>2016-07-07T19:51:13Z</time>
      </trkpt>
      <trkpt lat="59.206821932773" lon="17.923397894993">
        <ele>74</ele>
        <time>2016-07-07T19:51:14Z</time>
      </trkpt>
      <trkpt lat="59.206734006642" lon="17.92349370011">
        <ele>73.4</ele>
        <time>2016-07-07T19:51:15Z</time>
      </trkpt>
      <trkpt lat="59.206639961724" lon="17.923579614585">
        <ele>73.4</ele>
        <time>2016-07-07T19:51:16Z</time>
      </trkpt>
      <trkpt lat="59.206549185747" lon="17.923669636191">
        <ele>73</ele>
        <time>2016-07-07T19:51:17Z</time>
      </trkpt>
      <trkpt lat="59.206452207164" lon="17.923751359716">
        <ele>72.2</ele>
        <time>2016-07-07T19:51:18Z</time>
      </trkpt>
      <trkpt lat="59.20635195964" lon="17.923835765449">
        <ele>71.8</ele>
        <time>2016-07-07T19:51:19Z</time>
      </trkpt>
      <trkpt lat="59.206256154523" lon="17.923919249173">
        <ele>71.2</ele>
        <time>2016-07-07T19:51:20Z</time>
      </trkpt>
      <trkpt lat="59.206065801574" lon="17.92406283112">
        <ele>71.2</ele>
        <time>2016-07-07T19:51:22Z</time>
      </trkpt>
      <trkpt lat="59.20559339769" lon="17.924298194872">
        <ele>71.2</ele>
        <time>2016-07-07T19:51:27Z</time>
      </trkpt>
      <trkpt lat="59.205106996033" lon="17.924464575587">
        <ele>71.2</ele>
        <time>2016-07-07T19:51:33Z</time>
      </trkpt>
      <trkpt lat="59.204964922828" lon="17.924496678264">
        <ele>71.8</ele>
        <time>2016-07-07T19:51:35Z</time>
      </trkpt>
      <trkpt lat="59.204897113257" lon="17.924505898354">
        <ele>72.4</ele>
        <time>2016-07-07T19:51:36Z</time>
      </trkpt>
      <trkpt lat="59.204833578455" lon="17.924521991602">
        <ele>72.8</ele>
        <time>2016-07-07T19:51:37Z</time>
      </trkpt>
      <trkpt lat="59.204772474404" lon="17.924534145357">
        <ele>73.4</ele>
        <time>2016-07-07T19:51:38Z</time>
      </trkpt>
      <trkpt lat="59.204712795276" lon="17.924548646044">
        <ele>74.2</ele>
        <time>2016-07-07T19:51:39Z</time>
      </trkpt>
      <trkpt lat="59.204654121976" lon="17.924561135075">
        <ele>74.8</ele>
        <time>2016-07-07T19:51:40Z</time>
      </trkpt>
      <trkpt lat="59.204594191391" lon="17.924575049029">
        <ele>75.4</ele>
        <time>2016-07-07T19:51:41Z</time>
      </trkpt>
      <trkpt lat="59.204535350453" lon="17.924586029318">
        <ele>76</ele>
        <time>2016-07-07T19:51:42Z</time>
      </trkpt>
      <trkpt lat="59.204480113732" lon="17.924597763978">
        <ele>76.6</ele>
        <time>2016-07-07T19:51:43Z</time>
      </trkpt>
      <trkpt lat="59.20442412264" lon="17.924609833914">
        <ele>77</ele>
        <time>2016-07-07T19:51:44Z</time>
      </trkpt>
      <trkpt lat="59.204366874263" lon="17.924616539434">
        <ele>77.4</ele>
        <time>2016-07-07T19:51:45Z</time>
      </trkpt>
      <trkpt lat="59.204309374429" lon="17.924629363741">
        <ele>77.8</ele>
        <time>2016-07-07T19:51:46Z</time>
      </trkpt>
      <trkpt lat="59.204252461328" lon="17.924640846944">
        <ele>78.4</ele>
        <time>2016-07-07T19:51:47Z</time>
      </trkpt>
      <trkpt lat="59.204135114728" lon="17.924666411739">
        <ele>78.8</ele>
        <time>2016-07-07T19:51:49Z</time>
      </trkpt>
      <trkpt lat="59.204080213283" lon="17.924681582978">
        <ele>79.2</ele>
        <time>2016-07-07T19:51:50Z</time>
      </trkpt>
      <trkpt lat="59.204021875259" lon="17.924700861348">
        <ele>79.6</ele>
        <time>2016-07-07T19:51:51Z</time>
      </trkpt>
      <trkpt lat="59.203966638538" lon="17.924717876605">
        <ele>80</ele>
        <time>2016-07-07T19:51:52Z</time>
      </trkpt>
      <trkpt lat="59.203909809256" lon="17.924737993165">
        <ele>80.4</ele>
        <time>2016-07-07T19:51:53Z</time>
      </trkpt>
      <trkpt lat="59.203566989546" lon="17.924818207948">
        <ele>80.8</ele>
        <time>2016-07-07T19:51:59Z</time>
      </trkpt>
      <trkpt lat="59.203511082273" lon="17.924828852961">
        <ele>81.2</ele>
        <time>2016-07-07T19:52:00Z</time>
      </trkpt>
      <trkpt lat="59.203451738421" lon="17.92484150963">
        <ele>81.8</ele>
        <time>2016-07-07T19:52:01Z</time>
      </trkpt>
      <trkpt lat="59.203394322406" lon="17.924850310625">
        <ele>82.2</ele>
        <time>2016-07-07T19:52:02Z</time>
      </trkpt>
      <trkpt lat="59.203336571115" lon="17.924866320054">
        <ele>82.6</ele>
        <time>2016-07-07T19:52:03Z</time>
      </trkpt>
      <trkpt lat="59.203028871566" lon="17.924933542892">
        <ele>82.6</ele>
        <time>2016-07-07T19:52:08Z</time>
      </trkpt>
      <trkpt lat="59.202564095211" lon="17.925067569473">
        <ele>82.6</ele>
        <time>2016-07-07T19:52:16Z</time>
      </trkpt>
      <trkpt lat="59.202386398931" lon="17.925123644384">
        <ele>83.2</ele>
        <time>2016-07-07T19:52:19Z</time>
      </trkpt>
      <trkpt lat="59.20233116221" lon="17.925151975206">
        <ele>83.6</ele>
        <time>2016-07-07T19:52:20Z</time>
      </trkpt>
      <trkpt lat="59.20227500348" lon="17.925175695983">
        <ele>84</ele>
        <time>2016-07-07T19:52:21Z</time>
      </trkpt>
      <trkpt lat="59.202218090379" lon="17.925198494751">
        <ele>84.6</ele>
        <time>2016-07-07T19:52:22Z</time>
      </trkpt>
      <trkpt lat="59.202162266925" lon="17.9252295916">
        <ele>85</ele>
        <time>2016-07-07T19:52:23Z</time>
      </trkpt>
      <trkpt lat="59.202106359652" lon="17.925257922422">
        <ele>85</ele>
        <time>2016-07-07T19:52:24Z</time>
      </trkpt>
      <trkpt lat="59.201679301847" lon="17.925547852343">
        <ele>85</ele>
        <time>2016-07-07T19:52:31Z</time>
      </trkpt>
      <trkpt lat="59.201619035986" lon="17.925591773499">
        <ele>85.4</ele>
        <time>2016-07-07T19:52:32Z</time>
      </trkpt>
      <trkpt lat="59.201559859772" lon="17.92563695194">
        <ele>85.8</ele>
        <time>2016-07-07T19:52:33Z</time>
      </trkpt>
      <trkpt lat="59.201500348282" lon="17.925688416806">
        <ele>86.2</ele>
        <time>2016-07-07T19:52:34Z</time>
      </trkpt>
      <trkpt lat="59.201440333878" lon="17.925742899156">
        <ele>86.8</ele>
        <time>2016-07-07T19:52:35Z</time>
      </trkpt>
      <trkpt lat="59.201381995854" lon="17.925795453669">
        <ele>87.2</ele>
        <time>2016-07-07T19:52:36Z</time>
      </trkpt>
      <trkpt lat="59.201204802488" lon="17.925968204628">
        <ele>87.2</ele>
        <time>2016-07-07T19:52:39Z</time>
      </trkpt>
      <trkpt lat="59.200760813245" lon="17.926491654283">
        <ele>87.2</ele>
        <time>2016-07-07T19:52:47Z</time>
      </trkpt>
      <trkpt lat="59.200422100666" lon="17.926949222204">
        <ele>87.6</ele>
        <time>2016-07-07T19:52:53Z</time>
      </trkpt>
      <trkpt lat="59.200364181737" lon="17.92702750915">
        <ele>88</ele>
        <time>2016-07-07T19:52:54Z</time>
      </trkpt>
      <trkpt lat="59.200305592256" lon="17.927107472476">
        <ele>88.4</ele>
        <time>2016-07-07T19:52:55Z</time>
      </trkpt>
      <trkpt lat="59.200245410214" lon="17.927190788562">
        <ele>89.2</ele>
        <time>2016-07-07T19:52:56Z</time>
      </trkpt>
      <trkpt lat="59.200122950655" lon="17.927364377711">
        <ele>89.2</ele>
        <time>2016-07-07T19:52:58Z</time>
      </trkpt>
      <trkpt lat="59.199879037365" lon="17.92767459183">
        <ele>89.2</ele>
        <time>2016-07-07T19:53:02Z</time>
      </trkpt>
      <trkpt lat="59.199424403109" lon="17.928171554681">
        <ele>89.2</ele>
        <time>2016-07-07T19:53:09Z</time>
      </trkpt>
      <trkpt lat="59.198926602068" lon="17.928580088487">
        <ele>89.2</ele>
        <time>2016-07-07T19:53:16Z</time>
      </trkpt>
      <trkpt lat="59.19840340387" lon="17.928861301232">
        <ele>89.2</ele>
        <time>2016-07-07T19:53:23Z</time>
      </trkpt>
      <trkpt lat="59.197857909818" lon="17.929064059393">
        <ele>89.2</ele>
        <time>2016-07-07T19:53:30Z</time>
      </trkpt>
      <trkpt lat="59.19770351522" lon="17.929114015517">
        <ele>89.2</ele>
        <time>2016-07-07T19:53:32Z</time>
      </trkpt>
      <trkpt lat="59.197150645096" lon="17.929206300236">
        <ele>89.2</ele>
        <time>2016-07-07T19:53:39Z</time>
      </trkpt>
      <trkpt lat="59.197072106693" lon="17.92922021419">
        <ele>89.2</ele>
        <time>2016-07-07T19:53:40Z</time>
      </trkpt>
      <trkpt lat="59.196513704515" lon="17.929239744017">
        <ele>89.2</ele>
        <time>2016-07-07T19:53:47Z</time>
      </trkpt>
      <trkpt lat="59.195904591842" lon="17.929167324401">
        <ele>89.2</ele>
        <time>2016-07-07T19:53:54Z</time>
      </trkpt>
      <trkpt lat="59.195810463105" lon="17.929149387135">
        <ele>88.8</ele>
        <time>2016-07-07T19:53:55Z</time>
      </trkpt>
      <trkpt lat="59.195714741807" lon="17.929128683842">
        <ele>88.2</ele>
        <time>2016-07-07T19:53:56Z</time>
      </trkpt>
      <trkpt lat="59.195613404636" lon="17.929108818739">
        <ele>87.8</ele>
        <time>2016-07-07T19:53:57Z</time>
      </trkpt>
      <trkpt lat="59.195516509872" lon="17.929073866216">
        <ele>87.4</ele>
        <time>2016-07-07T19:53:58Z</time>
      </trkpt>
      <trkpt lat="59.195416178529" lon="17.929047127955">
        <ele>87</ele>
        <time>2016-07-07T19:53:59Z</time>
      </trkpt>
      <trkpt lat="59.195316266281" lon="17.929021646979">
        <ele>86.4</ele>
        <time>2016-07-07T19:54:00Z</time>
      </trkpt>
      <trkpt lat="59.195217276042" lon="17.928996501279">
        <ele>86</ele>
        <time>2016-07-07T19:54:01Z</time>
      </trkpt>
      <trkpt lat="59.195117279975" lon="17.928967499905">
        <ele>85.4</ele>
        <time>2016-07-07T19:54:02Z</time>
      </trkpt>
      <trkpt lat="59.195019295564" lon="17.928938749988">
        <ele>85</ele>
        <time>2016-07-07T19:54:03Z</time>
      </trkpt>
      <trkpt lat="59.194920389144" lon="17.928905557664">
        <ele>84.4</ele>
        <time>2016-07-07T19:54:04Z</time>
      </trkpt>
      <trkpt lat="59.19471452968" lon="17.928850153305">
        <ele>84</ele>
        <time>2016-07-07T19:54:06Z</time>
      </trkpt>
      <trkpt lat="59.194609672111" lon="17.928821822483">
        <ele>83.6</ele>
        <time>2016-07-07T19:54:07Z</time>
      </trkpt>
      <trkpt lat="59.194504227809" lon="17.928789468349">
        <ele>83.2</ele>
        <time>2016-07-07T19:54:08Z</time>
      </trkpt>
      <trkpt lat="59.194400292249" lon="17.928759544966">
        <ele>82.8</ele>
        <time>2016-07-07T19:54:09Z</time>
      </trkpt>
      <trkpt lat="59.194295518499" lon="17.92872149114">
        <ele>82.4</ele>
        <time>2016-07-07T19:54:10Z</time>
      </trkpt>
      <trkpt lat="59.194191834396" lon="17.928691483938">
        <ele>81</ele>
        <time>2016-07-07T19:54:11Z</time>
      </trkpt>
      <trkpt lat="59.194083707886" lon="17.928666254419">
        <ele>80.4</ele>
        <time>2016-07-07T19:54:12Z</time>
      </trkpt>
      <trkpt lat="59.193984969104" lon="17.928650412628">
        <ele>79.8</ele>
        <time>2016-07-07T19:54:13Z</time>
      </trkpt>
      <trkpt lat="59.193887319969" lon="17.928644880574">
        <ele>79.2</ele>
        <time>2016-07-07T19:54:14Z</time>
      </trkpt>
      <trkpt lat="59.193790089929" lon="17.928638342692">
        <ele>79.2</ele>
        <time>2016-07-07T19:54:15Z</time>
      </trkpt>
      <trkpt lat="59.193207044965" lon="17.928712522507">
        <ele>79.2</ele>
        <time>2016-07-07T19:54:21Z</time>
      </trkpt>
      <trkpt lat="59.192635231747" lon="17.929007984482">
        <ele>79.2</ele>
        <time>2016-07-07T19:54:27Z</time>
      </trkpt>
      <trkpt lat="59.192255783134" lon="17.929254496161">
        <ele>78.8</ele>
        <time>2016-07-07T19:54:31Z</time>
      </trkpt>
      <trkpt lat="59.192165258614" lon="17.929323814474">
        <ele>78.4</ele>
        <time>2016-07-07T19:54:32Z</time>
      </trkpt>
      <trkpt lat="59.19207506937" lon="17.929391456407">
        <ele>78</ele>
        <time>2016-07-07T19:54:33Z</time>
      </trkpt>
      <trkpt lat="59.191984041936" lon="17.929468234611">
        <ele>77.6</ele>
        <time>2016-07-07T19:54:34Z</time>
      </trkpt>
      <trkpt lat="59.191897708366" lon="17.929549203765">
        <ele>77.2</ele>
        <time>2016-07-07T19:54:35Z</time>
      </trkpt>
      <trkpt lat="59.19156293528" lon="17.929900908289">
        <ele>77.2</ele>
        <time>2016-07-07T19:54:39Z</time>
      </trkpt>
      <trkpt lat="59.191100673495" lon="17.930467105634">
        <ele>77.2</ele>
        <time>2016-07-07T19:54:45Z</time>
      </trkpt>
      <trkpt lat="59.191028002422" lon="17.930556959602">
        <ele>77.2</ele>
        <time>2016-07-07T19:54:46Z</time>
      </trkpt>
      <trkpt lat="59.190689457481" lon="17.930952333825">
        <ele>77.2</ele>
        <time>2016-07-07T19:54:51Z</time>
      </trkpt>
      <trkpt lat="59.190431965513" lon="17.931194067821">
        <ele>77.2</ele>
        <time>2016-07-07T19:54:55Z</time>
      </trkpt>
      <trkpt lat="59.190354852033" lon="17.931197252943">
        <ele>77.2</ele>
        <time>2016-07-07T19:54:56Z</time>
      </trkpt>
      <trkpt lat="59.190224010574" lon="17.931043612716">
        <ele>77.2</ele>
        <time>2016-07-07T19:54:58Z</time>
      </trkpt>
      <trkpt lat="59.190118482453" lon="17.930661230438">
        <ele>77.6</ele>
        <time>2016-07-07T19:55:01Z</time>
      </trkpt>
      <trkpt lat="59.190084284301" lon="17.930541285449">
        <ele>78</ele>
        <time>2016-07-07T19:55:02Z</time>
      </trkpt>
      <trkpt lat="59.190060312067" lon="17.930416227501">
        <ele>78.4</ele>
        <time>2016-07-07T19:55:03Z</time>
      </trkpt>
      <trkpt lat="59.190032819435" lon="17.930294941408">
        <ele>78.8</ele>
        <time>2016-07-07T19:55:04Z</time>
      </trkpt>
      <trkpt lat="59.190002476957" lon="17.930174661143">
        <ele>79.2</ele>
        <time>2016-07-07T19:55:05Z</time>
      </trkpt>
      <trkpt lat="59.189970458099" lon="17.93005169867">
        <ele>79.2</ele>
        <time>2016-07-07T19:55:06Z</time>
      </trkpt>
      <trkpt lat="59.189820841184" lon="17.929432862993">
        <ele>79.2</ele>
        <time>2016-07-07T19:55:11Z</time>
      </trkpt>
      <trkpt lat="59.189773064354" lon="17.929329597985">
        <ele>79.2</ele>
        <time>2016-07-07T19:55:12Z</time>
      </trkpt>
      <trkpt lat="59.189573491315" lon="17.929172102084">
        <ele>79.2</ele>
        <time>2016-07-07T19:55:15Z</time>
      </trkpt>
      <trkpt lat="59.189419012898" lon="17.929161708528">
        <ele>79.2</ele>
        <time>2016-07-07T19:55:17Z</time>
      </trkpt>
      <trkpt lat="59.189266462318" lon="17.929154164818">
        <ele>79.2</ele>
        <time>2016-07-07T19:55:19Z</time>
      </trkpt>
      <trkpt lat="59.188722141732" lon="17.929042014996">
        <ele>79.2</ele>
        <time>2016-07-07T19:55:26Z</time>
      </trkpt>
      <trkpt lat="59.188172289092" lon="17.928877059204">
        <ele>79.2</ele>
        <time>2016-07-07T19:55:33Z</time>
      </trkpt>
      <trkpt lat="59.188095427069" lon="17.928855433902">
        <ele>79.2</ele>
        <time>2016-07-07T19:55:34Z</time>
      </trkpt>
      <trkpt lat="59.187545239153" lon="17.928666673514">
        <ele>79.2</ele>
        <time>2016-07-07T19:55:41Z</time>
      </trkpt>
      <trkpt lat="59.187464772913" lon="17.928638677968">
        <ele>79.2</ele>
        <time>2016-07-07T19:55:42Z</time>
      </trkpt>
      <trkpt lat="59.186913327712" lon="17.928417731084">
        <ele>79.2</ele>
        <time>2016-07-07T19:55:49Z</time>
      </trkpt>
      <trkpt lat="59.186760358037" lon="17.92835352573">
        <ele>79.2</ele>
        <time>2016-07-07T19:55:51Z</time>
      </trkpt>
      <trkpt lat="59.186244787368" lon="17.928094776477">
        <ele>79.2</ele>
        <time>2016-07-07T19:55:58Z</time>
      </trkpt>
      <trkpt lat="59.185646822622" lon="17.927828483514">
        <ele>79.2</ele>
        <time>2016-07-07T19:56:06Z</time>
      </trkpt>
      <trkpt lat="59.185495194051" lon="17.927758913744">
        <ele>79.2</ele>
        <time>2016-07-07T19:56:08Z</time>
      </trkpt>
      <trkpt lat="59.185075428499" lon="17.927621618222">
        <ele>79.2</ele>
        <time>2016-07-07T19:56:14Z</time>
      </trkpt>
      <trkpt lat="59.185000997227" lon="17.927540397611">
        <ele>79.6</ele>
        <time>2016-07-07T19:56:16Z</time>
      </trkpt>
      <trkpt lat="59.184984652522" lon="17.92747510261">
        <ele>80</ele>
        <time>2016-07-07T19:56:17Z</time>
      </trkpt>
      <trkpt lat="59.184964787419" lon="17.927384326633">
        <ele>80.4</ele>
        <time>2016-07-07T19:56:18Z</time>
      </trkpt>
      <trkpt lat="59.184944084126" lon="17.927285504032">
        <ele>80.8</ele>
        <time>2016-07-07T19:56:19Z</time>
      </trkpt>
      <trkpt lat="59.184925895403" lon="17.927177880436">
        <ele>81.2</ele>
        <time>2016-07-07T19:56:20Z</time>
      </trkpt>
      <trkpt lat="59.184919357521" lon="17.927086685364">
        <ele>81.2</ele>
        <time>2016-07-07T19:56:21Z</time>
      </trkpt>
      <trkpt lat="59.184782313456" lon="17.926729281148">
        <ele>81.2</ele>
        <time>2016-07-07T19:56:25Z</time>
      </trkpt>
      <trkpt lat="59.18464116226" lon="17.926478075605">
        <ele>81.2</ele>
        <time>2016-07-07T19:56:29Z</time>
      </trkpt>
      <trkpt lat="59.184611155058" lon="17.926451504982">
        <ele>81.2</ele>
        <time>2016-07-07T19:56:30Z</time>
      </trkpt>
      <trkpt lat="59.1845623724" lon="17.926348659069">
        <ele>81.2</ele>
        <time>2016-07-07T19:56:32Z</time>
      </trkpt>
      <trkpt lat="59.184541166193" lon="17.92626643263">
        <ele>81.2</ele>
        <time>2016-07-07T19:56:33Z</time>
      </trkpt>
      <trkpt lat="59.184446618361" lon="17.925965773877">
        <ele>81.2</ele>
        <time>2016-07-07T19:56:37Z</time>
      </trkpt>
      <trkpt lat="59.184291301754" lon="17.925797800601">
        <ele>81.2</ele>
        <time>2016-07-07T19:56:40Z</time>
      </trkpt>
      <trkpt lat="59.183957953591" lon="17.925475600365">
        <ele>81.2</ele>
        <time>2016-07-07T19:56:46Z</time>
      </trkpt>
      <trkpt lat="59.183853347479" lon="17.925316930998">
        <ele>81.2</ele>
        <time>2016-07-07T19:56:48Z</time>
      </trkpt>
      <trkpt lat="59.183784699718" lon="17.925095229743">
        <ele>81.2</ele>
        <time>2016-07-07T19:56:50Z</time>
      </trkpt>
      <trkpt lat="59.183701886546" lon="17.924771353127">
        <ele>81.2</ele>
        <time>2016-07-07T19:56:53Z</time>
      </trkpt>
      <trkpt lat="59.183618402822" lon="17.924425013019">
        <ele>81.2</ele>
        <time>2016-07-07T19:56:56Z</time>
      </trkpt>
      <trkpt lat="59.183589317629" lon="17.924309761894">
        <ele>80.8</ele>
        <time>2016-07-07T19:56:57Z</time>
      </trkpt>
      <trkpt lat="59.18355822078" lon="17.924193169665">
        <ele>80.4</ele>
        <time>2016-07-07T19:56:58Z</time>
      </trkpt>
      <trkpt lat="59.183527710664" lon="17.924076493617">
        <ele>79.8</ele>
        <time>2016-07-07T19:56:59Z</time>
      </trkpt>
      <trkpt lat="59.183498038738" lon="17.923951184212">
        <ele>79.4</ele>
        <time>2016-07-07T19:57:00Z</time>
      </trkpt>
      <trkpt lat="59.183467612441" lon="17.923831323042">
        <ele>79</ele>
        <time>2016-07-07T19:57:01Z</time>
      </trkpt>
      <trkpt lat="59.183336770982" lon="17.923382388478">
        <ele>79</ele>
        <time>2016-07-07T19:57:05Z</time>
      </trkpt>
      <trkpt lat="59.183166702231" lon="17.922690965547">
        <ele>79</ele>
        <time>2016-07-07T19:57:11Z</time>
      </trkpt>
      <trkpt lat="59.182931338479" lon="17.921768956547">
        <ele>79</ele>
        <time>2016-07-07T19:57:19Z</time>
      </trkpt>
      <trkpt lat="59.182675522891" lon="17.920762457995">
        <ele>79</ele>
        <time>2016-07-07T19:57:28Z</time>
      </trkpt>
      <trkpt lat="59.182642582024" lon="17.9206530742">
        <ele>79</ele>
        <time>2016-07-07T19:57:29Z</time>
      </trkpt>
      <trkpt lat="59.182520960655" lon="17.920376890595">
        <ele>79</ele>
        <time>2016-07-07T19:57:32Z</time>
      </trkpt>
      <trkpt lat="59.182495144403" lon="17.920271949207">
        <ele>79</ele>
        <time>2016-07-07T19:57:33Z</time>
      </trkpt>
      <trkpt lat="59.182449882143" lon="17.920065251553">
        <ele>79</ele>
        <time>2016-07-07T19:57:35Z</time>
      </trkpt>
      <trkpt lat="59.18242750247" lon="17.919857380433">
        <ele>79</ele>
        <time>2016-07-07T19:57:37Z</time>
      </trkpt>
      <trkpt lat="59.182299510857" lon="17.919473992327">
        <ele>79</ele>
        <time>2016-07-07T19:57:41Z</time>
      </trkpt>
      <trkpt lat="59.182261624669" lon="17.919272156175">
        <ele>79</ele>
        <time>2016-07-07T19:57:43Z</time>
      </trkpt>
      <trkpt lat="59.182200269161" lon="17.918986081928">
        <ele>79</ele>
        <time>2016-07-07T19:57:46Z</time>
      </trkpt>
      <trkpt lat="59.182074037747" lon="17.918513510406">
        <ele>79</ele>
        <time>2016-07-07T19:57:50Z</time>
      </trkpt>
      <trkpt lat="59.181951913464" lon="17.918050661888">
        <ele>78.2</ele>
        <time>2016-07-07T19:57:54Z</time>
      </trkpt>
      <trkpt lat="59.181923498823" lon="17.917939266437">
        <ele>77.6</ele>
        <time>2016-07-07T19:57:55Z</time>
      </trkpt>
      <trkpt lat="59.181893491621" lon="17.917830134099">
        <ele>77.2</ele>
        <time>2016-07-07T19:57:56Z</time>
      </trkpt>
      <trkpt lat="59.181860131659" lon="17.917721337037">
        <ele>76.8</ele>
        <time>2016-07-07T19:57:57Z</time>
      </trkpt>
      <trkpt lat="59.181660642439" lon="17.917046510268">
        <ele>76.8</ele>
        <time>2016-07-07T19:58:03Z</time>
      </trkpt>
      <trkpt lat="59.18162619283" lon="17.916933019342">
        <ele>76.8</ele>
        <time>2016-07-07T19:58:04Z</time>
      </trkpt>
      <trkpt lat="59.181468277834" lon="17.916397667389">
        <ele>76.8</ele>
        <time>2016-07-07T19:58:09Z</time>
      </trkpt>
      <trkpt lat="59.181383872101" lon="17.916070605651">
        <ele>76.4</ele>
        <time>2016-07-07T19:58:12Z</time>
      </trkpt>
      <trkpt lat="59.18136216298" lon="17.915952756137">
        <ele>75.8</ele>
        <time>2016-07-07T19:58:13Z</time>
      </trkpt>
      <trkpt lat="59.181335257081" lon="17.915837588831">
        <ele>75.4</ele>
        <time>2016-07-07T19:58:14Z</time>
      </trkpt>
      <trkpt lat="59.181305501336" lon="17.915714626358">
        <ele>75</ele>
        <time>2016-07-07T19:58:15Z</time>
      </trkpt>
      <trkpt lat="59.181278260161" lon="17.915598453224">
        <ele>74.6</ele>
        <time>2016-07-07T19:58:16Z</time>
      </trkpt>
      <trkpt lat="59.181164517778" lon="17.915013061328">
        <ele>74.2</ele>
        <time>2016-07-07T19:58:21Z</time>
      </trkpt>
      <trkpt lat="59.181140294087" lon="17.914872329227">
        <ele>73.6</ele>
        <time>2016-07-07T19:58:22Z</time>
      </trkpt>
      <trkpt lat="59.181119842251" lon="17.914757664835">
        <ele>73.2</ele>
        <time>2016-07-07T19:58:23Z</time>
      </trkpt>
      <trkpt lat="59.181097043483" lon="17.914629589403">
        <ele>72.8</ele>
        <time>2016-07-07T19:58:24Z</time>
      </trkpt>
      <trkpt lat="59.181069718489" lon="17.914509728233">
        <ele>72.4</ele>
        <time>2016-07-07T19:58:25Z</time>
      </trkpt>
      <trkpt lat="59.181016409605" lon="17.914260450527">
        <ele>72.4</ele>
        <time>2016-07-07T19:58:27Z</time>
      </trkpt>
      <trkpt lat="59.180881209558" lon="17.913378171733">
        <ele>72.4</ele>
        <time>2016-07-07T19:58:34Z</time>
      </trkpt>
      <trkpt lat="59.180991599181" lon="17.913248839016">
        <ele>72.4</ele>
        <time>2016-07-07T19:58:36Z</time>
      </trkpt>
      <trkpt lat="59.181368114129" lon="17.912846675454">
        <ele>72.4</ele>
        <time>2016-07-07T19:58:43Z</time>
      </trkpt>
      <trkpt lat="59.18143005637" lon="17.912871988792">
        <ele>72.4</ele>
        <time>2016-07-07T19:58:44Z</time>
      </trkpt>
      <trkpt lat="59.181507421307" lon="17.913055049488">
        <ele>72.4</ele>
        <time>2016-07-07T19:58:46Z</time>
      </trkpt>
      <trkpt lat="59.181538853432" lon="17.913299046597">
        <ele>72.8</ele>
        <time>2016-07-07T19:58:48Z</time>
      </trkpt>
      <trkpt lat="59.181552515929" lon="17.91342620002">
        <ele>73.2</ele>
        <time>2016-07-07T19:58:49Z</time>
      </trkpt>
      <trkpt lat="59.181578164543" lon="17.913538349842">
        <ele>73.6</ele>
        <time>2016-07-07T19:58:50Z</time>
      </trkpt>
      <trkpt lat="59.181608674659" lon="17.91365754046">
        <ele>74.2</ele>
        <time>2016-07-07T19:58:51Z</time>
      </trkpt>
      <trkpt lat="59.181628791219" lon="17.913759212907">
        <ele>74.6</ele>
        <time>2016-07-07T19:58:52Z</time>
      </trkpt>
      <trkpt lat="59.181655278023" lon="17.913860969173">
        <ele>74.6</ele>
        <time>2016-07-07T19:58:53Z</time>
      </trkpt>
      <trkpt lat="59.181715962979" lon="17.91403807872">
        <ele>75</ele>
        <time>2016-07-07T19:58:55Z</time>
      </trkpt>
      <trkpt lat="59.18176114142" lon="17.914093985993">
        <ele>75.4</ele>
        <time>2016-07-07T19:58:56Z</time>
      </trkpt>
      <trkpt lat="59.18180556549" lon="17.914100188599">
        <ele>75.8</ele>
        <time>2016-07-07T19:58:57Z</time>
      </trkpt>
      <trkpt lat="59.181862478591" lon="17.914085436455">
        <ele>76.2</ele>
        <time>2016-07-07T19:58:58Z</time>
      </trkpt>
      <trkpt lat="59.181910925973" lon="17.914044113688">
        <ele>76.6</ele>
        <time>2016-07-07T19:58:59Z</time>
      </trkpt>
      <trkpt lat="59.18196063064" lon="17.914001701274">
        <ele>76.6</ele>
        <time>2016-07-07T19:59:00Z</time>
      </trkpt>
      <trkpt lat="59.182010335307" lon="17.913961887249">
        <ele>76.6</ele>
        <time>2016-07-07T19:59:01Z</time>
      </trkpt>
      <trkpt lat="59.182251231113" lon="17.913792740507">
        <ele>76.6</ele>
        <time>2016-07-07T19:59:06Z</time>
      </trkpt>
      <trkpt lat="59.18239481306" lon="17.913700371969">
        <ele>77</ele>
        <time>2016-07-07T19:59:09Z</time>
      </trkpt>
      <trkpt lat="59.182440997329" lon="17.913677489382">
        <ele>77.4</ele>
        <time>2016-07-07T19:59:10Z</time>
      </trkpt>
      <trkpt lat="59.182487097779" lon="17.913657205184">
        <ele>77.8</ele>
        <time>2016-07-07T19:59:11Z</time>
      </trkpt>
      <trkpt lat="59.182535293704" lon="17.913637842995">
        <ele>78.2</ele>
        <time>2016-07-07T19:59:12Z</time>
      </trkpt>
      <trkpt lat="59.182588015855" lon="17.913630802199">
        <ele>78.6</ele>
        <time>2016-07-07T19:59:13Z</time>
      </trkpt>
      <trkpt lat="59.182802341038" lon="17.913516137807">
        <ele>78.6</ele>
        <time>2016-07-07T19:59:17Z</time>
      </trkpt>
      <trkpt lat="59.183053378943" lon="17.913385380167">
        <ele>78.2</ele>
        <time>2016-07-07T19:59:21Z</time>
      </trkpt>
      <trkpt lat="59.183114315356" lon="17.91335411568">
        <ele>77.8</ele>
        <time>2016-07-07T19:59:22Z</time>
      </trkpt>
      <trkpt lat="59.183176173778" lon="17.913317067682">
        <ele>77.4</ele>
        <time>2016-07-07T19:59:23Z</time>
      </trkpt>
      <trkpt lat="59.183235098535" lon="17.913263423522">
        <ele>77</ele>
        <time>2016-07-07T19:59:24Z</time>
      </trkpt>
      <trkpt lat="59.183284467926" lon="17.913216736339">
        <ele>76.6</ele>
        <time>2016-07-07T19:59:25Z</time>
      </trkpt>
      <trkpt lat="59.183329143453" lon="17.913182202911">
        <ele>76.6</ele>
        <time>2016-07-07T19:59:26Z</time>
      </trkpt>
      <trkpt lat="59.18341321391" lon="17.913109783295">
        <ele>76.6</ele>
        <time>2016-07-07T19:59:28Z</time>
      </trkpt>
      <trkpt lat="59.183479347101" lon="17.913059408076">
        <ele>76.2</ele>
        <time>2016-07-07T19:59:30Z</time>
      </trkpt>
      <trkpt lat="59.18350206205" lon="17.913066448872">
        <ele>75.8</ele>
        <time>2016-07-07T19:59:31Z</time>
      </trkpt>
      <trkpt lat="59.183534500003" lon="17.913115902082">
        <ele>74.8</ele>
        <time>2016-07-07T19:59:32Z</time>
      </trkpt>
      <trkpt lat="59.183567105594" lon="17.913177928142">
        <ele>74.4</ele>
        <time>2016-07-07T19:59:33Z</time>
      </trkpt>
      <trkpt lat="59.183632568233" lon="17.913509683744">
        <ele>74.4</ele>
        <time>2016-07-07T19:59:36Z</time>
      </trkpt>
      <trkpt lat="59.183660312322" lon="17.91361982191">
        <ele>74.4</ele>
        <time>2016-07-07T19:59:37Z</time>
      </trkpt>
      <trkpt lat="59.183793835989" lon="17.914177134441">
        <ele>74.4</ele>
        <time>2016-07-07T19:59:42Z</time>
      </trkpt>
      <trkpt lat="59.183859885361" lon="17.914397075497">
        <ele>74.4</ele>
        <time>2016-07-07T19:59:44Z</time>
      </trkpt>
      <trkpt lat="59.183974214477" lon="17.914688597979">
        <ele>74.4</ele>
        <time>2016-07-07T19:59:47Z</time>
      </trkpt>
      <trkpt lat="59.184048142835" lon="17.914864450241">
        <ele>74.8</ele>
        <time>2016-07-07T19:59:49Z</time>
      </trkpt>
      <trkpt lat="59.184088962688" lon="17.914940725531">
        <ele>75.4</ele>
        <time>2016-07-07T19:59:50Z</time>
      </trkpt>
      <trkpt lat="59.184130956007" lon="17.915026975282">
        <ele>75.8</ele>
        <time>2016-07-07T19:59:51Z</time>
      </trkpt>
      <trkpt lat="59.184176888819" lon="17.915120265829">
        <ele>76.2</ele>
        <time>2016-07-07T19:59:52Z</time>
      </trkpt>
      <trkpt lat="59.184220809975" lon="17.915205509752">
        <ele>76.6</ele>
        <time>2016-07-07T19:59:53Z</time>
      </trkpt>
      <trkpt lat="59.184360033334" lon="17.915423858247">
        <ele>76.6</ele>
        <time>2016-07-07T19:59:56Z</time>
      </trkpt>
      <trkpt lat="59.184566144255" lon="17.915663664406">
        <ele>76.6</ele>
        <time>2016-07-07T20:00:00Z</time>
      </trkpt>
      <trkpt lat="59.184991693318" lon="17.915984104443">
        <ele>76.6</ele>
        <time>2016-07-07T20:00:07Z</time>
      </trkpt>
      <trkpt lat="59.185508605091" lon="17.916261210057">
        <ele>76.6</ele>
        <time>2016-07-07T20:00:15Z</time>
      </trkpt>
      <trkpt lat="59.186061978129" lon="17.916588942347">
        <ele>76.6</ele>
        <time>2016-07-07T20:00:24Z</time>
      </trkpt>
      <trkpt lat="59.186546200492" lon="17.916823048814">
        <ele>76.6</ele>
        <time>2016-07-07T20:00:32Z</time>
      </trkpt>
      <trkpt lat="59.18688080594" lon="17.916974174471">
        <ele>76.6</ele>
        <time>2016-07-07T20:00:38Z</time>
      </trkpt>
      <trkpt lat="59.186980885826" lon="17.917015748695">
        <ele>77</ele>
        <time>2016-07-07T20:00:40Z</time>
      </trkpt>
      <trkpt lat="59.187034949081" lon="17.917030081744">
        <ele>77.4</ele>
        <time>2016-07-07T20:00:41Z</time>
      </trkpt>
      <trkpt lat="59.187089682888" lon="17.917035697617">
        <ele>77.8</ele>
        <time>2016-07-07T20:00:42Z</time>
      </trkpt>
      <trkpt lat="59.187144249057" lon="17.917035781436">
        <ele>78.2</ele>
        <time>2016-07-07T20:00:43Z</time>
      </trkpt>
      <trkpt lat="59.18720015633" lon="17.917037625454">
        <ele>78.6</ele>
        <time>2016-07-07T20:00:44Z</time>
      </trkpt>
      <trkpt lat="59.187419091558" lon="17.917069392855">
        <ele>78.6</ele>
        <time>2016-07-07T20:00:48Z</time>
      </trkpt>
      <trkpt lat="59.187472232804" lon="17.917062100602">
        <ele>79</ele>
        <time>2016-07-07T20:00:49Z</time>
      </trkpt>
      <trkpt lat="59.187526798973" lon="17.917055478901">
        <ele>79.6</ele>
        <time>2016-07-07T20:00:50Z</time>
      </trkpt>
      <trkpt lat="59.187581784237" lon="17.917055311263">
        <ele>80</ele>
        <time>2016-07-07T20:00:51Z</time>
      </trkpt>
      <trkpt lat="59.187640876632" lon="17.917053551064">
        <ele>80.4</ele>
        <time>2016-07-07T20:00:52Z</time>
      </trkpt>
      <trkpt lat="59.187695442801" lon="17.917043325146">
        <ele>80.8</ele>
        <time>2016-07-07T20:00:53Z</time>
      </trkpt>
      <trkpt lat="59.188004148178" lon="17.916925810908">
        <ele>81.4</ele>
        <time>2016-07-07T20:00:59Z</time>
      </trkpt>
      <trkpt lat="59.188057457062" lon="17.916889098186">
        <ele>81.8</ele>
        <time>2016-07-07T20:01:00Z</time>
      </trkpt>
      <trkpt lat="59.188110095394" lon="17.916854564758">
        <ele>82.2</ele>
        <time>2016-07-07T20:01:01Z</time>
      </trkpt>
      <trkpt lat="59.188161895536" lon="17.916824557556">
        <ele>82.8</ele>
        <time>2016-07-07T20:01:02Z</time>
      </trkpt>
      <trkpt lat="59.188212941307" lon="17.916797148743">
        <ele>83.2</ele>
        <time>2016-07-07T20:01:03Z</time>
      </trkpt>
      <trkpt lat="59.188410837966" lon="17.91668759731">
        <ele>83.2</ele>
        <time>2016-07-07T20:01:07Z</time>
      </trkpt>
      <trkpt lat="59.188458447158" lon="17.916665469094">
        <ele>83.2</ele>
        <time>2016-07-07T20:01:08Z</time>
      </trkpt>
      <trkpt lat="59.188539667769" lon="17.916479642371">
        <ele>83.2</ele>
        <time>2016-07-07T20:01:11Z</time>
      </trkpt>
      <trkpt lat="59.188437911503" lon="17.91623916566">
        <ele>83.2</ele>
        <time>2016-07-07T20:01:14Z</time>
      </trkpt>
      <trkpt lat="59.188230710935" lon="17.915855190821">
        <ele>83.2</ele>
        <time>2016-07-07T20:01:19Z</time>
      </trkpt>
      <trkpt lat="59.188192824747" lon="17.915766007405">
        <ele>83.2</ele>
        <time>2016-07-07T20:01:20Z</time>
      </trkpt>
      <trkpt lat="59.187959305013" lon="17.915211712358">
        <ele>83.2</ele>
        <time>2016-07-07T20:01:26Z</time>
      </trkpt>
      <trkpt lat="59.187654539129" lon="17.914354160169">
        <ele>83.2</ele>
        <time>2016-07-07T20:01:34Z</time>
      </trkpt>
      <trkpt lat="59.187632997646" lon="17.914251062799">
        <ele>83.2</ele>
        <time>2016-07-07T20:01:36Z</time>
      </trkpt>
      <trkpt lat="59.187647079238" lon="17.914025924965">
        <ele>83.2</ele>
        <time>2016-07-07T20:01:38Z</time>
      </trkpt>
      <trkpt lat="59.187756630671" lon="17.913744628401">
        <ele>83.2</ele>
        <time>2016-07-07T20:01:41Z</time>
      </trkpt>
      <trkpt lat="59.187794684497" lon="17.913652846596">
        <ele>83.6</ele>
        <time>2016-07-07T20:01:42Z</time>
      </trkpt>
      <trkpt lat="59.18783466616" lon="17.913562992628">
        <ele>84</ele>
        <time>2016-07-07T20:01:43Z</time>
      </trkpt>
      <trkpt lat="59.187878671135" lon="17.913478586895">
        <ele>84.4</ele>
        <time>2016-07-07T20:01:44Z</time>
      </trkpt>
      <trkpt lat="59.187918401341" lon="17.913393594429">
        <ele>84.8</ele>
        <time>2016-07-07T20:01:45Z</time>
      </trkpt>
      <trkpt lat="59.187958969737" lon="17.913305752117">
        <ele>85.2</ele>
        <time>2016-07-07T20:01:46Z</time>
      </trkpt>
      <trkpt lat="59.18800230416" lon="17.913220927289">
        <ele>85.2</ele>
        <time>2016-07-07T20:01:47Z</time>
      </trkpt>
      <trkpt lat="59.188334897952" lon="17.912683228404">
        <ele>85.2</ele>
        <time>2016-07-07T20:01:54Z</time>
      </trkpt>
      <trkpt lat="59.188594569214" lon="17.912112840109">
        <ele>85.2</ele>
        <time>2016-07-07T20:02:00Z</time>
      </trkpt>
      <trkpt lat="59.188735804229" lon="17.911901364772">
        <ele>85.2</ele>
        <time>2016-07-07T20:02:03Z</time>
      </trkpt>
      <trkpt lat="59.188928755567" lon="17.912041342502">
        <ele>85.2</ele>
        <time>2016-07-07T20:02:06Z</time>
      </trkpt>
      <trkpt lat="59.188998241518" lon="17.912097920327">
        <ele>85.2</ele>
        <time>2016-07-07T20:02:07Z</time>
      </trkpt>
      <trkpt lat="59.189199155661" lon="17.912272599123">
        <ele>85.2</ele>
        <time>2016-07-07T20:02:10Z</time>
      </trkpt>
      <trkpt lat="59.189531497996" lon="17.912561020302">
        <ele>85.2</ele>
        <time>2016-07-07T20:02:15Z</time>
      </trkpt>
      <trkpt lat="59.189807513963" lon="17.912930326816">
        <ele>85.2</ele>
        <time>2016-07-07T20:02:20Z</time>
      </trkpt>
      <trkpt lat="59.189862163951" lon="17.913027556856">
        <ele>85.2</ele>
        <time>2016-07-07T20:02:21Z</time>
      </trkpt>
      <trkpt lat="59.189918993233" lon="17.913138533212">
        <ele>85.2</ele>
        <time>2016-07-07T20:02:22Z</time>
      </trkpt>
      <trkpt lat="59.190028628485" lon="17.913340620821">
        <ele>84.8</ele>
        <time>2016-07-07T20:02:24Z</time>
      </trkpt>
      <trkpt lat="59.190086295957" lon="17.913424104545">
        <ele>83.8</ele>
        <time>2016-07-07T20:02:25Z</time>
      </trkpt>
      <trkpt lat="59.190139437203" lon="17.913479341266">
        <ele>83.4</ele>
        <time>2016-07-07T20:02:26Z</time>
      </trkpt>
      <trkpt lat="59.190182771626" lon="17.913501888577">
        <ele>82.8</ele>
        <time>2016-07-07T20:02:27Z</time>
      </trkpt>
      <trkpt lat="59.190223088565" lon="17.913488645175">
        <ele>82.8</ele>
        <time>2016-07-07T20:02:28Z</time>
      </trkpt>
      <trkpt lat="59.190356612232" lon="17.913285551738">
        <ele>82.8</ele>
        <time>2016-07-07T20:02:31Z</time>
      </trkpt>
      <trkpt lat="59.190441688517" lon="17.913069298718">
        <ele>82.4</ele>
        <time>2016-07-07T20:02:33Z</time>
      </trkpt>
      <trkpt lat="59.190479658524" lon="17.912952371213">
        <ele>82</ele>
        <time>2016-07-07T20:02:34Z</time>
      </trkpt>
      <trkpt lat="59.19051687416" lon="17.912824128143">
        <ele>81.4</ele>
        <time>2016-07-07T20:02:35Z</time>
      </trkpt>
      <trkpt lat="59.190550988493" lon="17.912692616132">
        <ele>81</ele>
        <time>2016-07-07T20:02:36Z</time>
      </trkpt>
      <trkpt lat="59.190584013179" lon="17.912552638402">
        <ele>80.6</ele>
        <time>2016-07-07T20:02:37Z</time>
      </trkpt>
      <trkpt lat="59.190830608677" lon="17.911649907772">
        <ele>80.6</ele>
        <time>2016-07-07T20:02:44Z</time>
      </trkpt>
      <trkpt lat="59.191082233315" lon="17.910931076028">
        <ele>80.6</ele>
        <time>2016-07-07T20:02:50Z</time>
      </trkpt>
      <trkpt lat="59.191132357077" lon="17.910828230115">
        <ele>80.6</ele>
        <time>2016-07-07T20:02:51Z</time>
      </trkpt>
      <trkpt lat="59.191188515807" lon="17.910727312039">
        <ele>80.6</ele>
        <time>2016-07-07T20:02:52Z</time>
      </trkpt>
      <trkpt lat="59.191359003653" lon="17.91052438624">
        <ele>80.6</ele>
        <time>2016-07-07T20:02:55Z</time>
      </trkpt>
      <trkpt lat="59.191417676953" lon="17.910464790931">
        <ele>80.2</ele>
        <time>2016-07-07T20:02:56Z</time>
      </trkpt>
      <trkpt lat="59.191476434072" lon="17.910405447079">
        <ele>79.8</ele>
        <time>2016-07-07T20:02:57Z</time>
      </trkpt>
      <trkpt lat="59.191536616114" lon="17.910346103227">
        <ele>79.4</ele>
        <time>2016-07-07T20:02:58Z</time>
      </trkpt>
      <trkpt lat="59.191600486192" lon="17.910288687212">
        <ele>79</ele>
        <time>2016-07-07T20:02:59Z</time>
      </trkpt>
      <trkpt lat="59.191664943003" lon="17.910230013912">
        <ele>78.4</ele>
        <time>2016-07-07T20:03:00Z</time>
      </trkpt>
      <trkpt lat="59.19179679029" lon="17.910110655656">
        <ele>78.4</ele>
        <time>2016-07-07T20:03:02Z</time>
      </trkpt>
      <trkpt lat="59.191930481595" lon="17.909985681527">
        <ele>78.4</ele>
        <time>2016-07-07T20:03:04Z</time>
      </trkpt>
      <trkpt lat="59.19212871353" lon="17.909807649971">
        <ele>78.4</ele>
        <time>2016-07-07T20:03:07Z</time>
      </trkpt>
      <trkpt lat="59.1925335593" lon="17.909441528579">
        <ele>78.4</ele>
        <time>2016-07-07T20:03:13Z</time>
      </trkpt>
      <trkpt lat="59.192664987492" lon="17.909287553076">
        <ele>78.4</ele>
        <time>2016-07-07T20:03:15Z</time>
      </trkpt>
      <trkpt lat="59.192825668515" lon="17.909014722231">
        <ele>78.4</ele>
        <time>2016-07-07T20:03:18Z</time>
      </trkpt>
      <trkpt lat="59.192870595499" lon="17.908913971793">
        <ele>78.4</ele>
        <time>2016-07-07T20:03:19Z</time>
      </trkpt>
      <trkpt lat="59.192981068941" lon="17.908597471249">
        <ele>78.4</ele>
        <time>2016-07-07T20:03:22Z</time>
      </trkpt>
      <trkpt lat="59.193037479128" lon="17.908357832728">
        <ele>79</ele>
        <time>2016-07-07T20:03:24Z</time>
      </trkpt>
      <trkpt lat="59.193054829661" lon="17.908231182219">
        <ele>79.4</ele>
        <time>2016-07-07T20:03:25Z</time>
      </trkpt>
      <trkpt lat="59.193064720303" lon="17.908105034624">
        <ele>80</ele>
        <time>2016-07-07T20:03:26Z</time>
      </trkpt>
      <trkpt lat="59.193070419995" lon="17.907979473762">
        <ele>80.4</ele>
        <time>2016-07-07T20:03:27Z</time>
      </trkpt>
      <trkpt lat="59.193073772755" lon="17.907852739434">
        <ele>80.8</ele>
        <time>2016-07-07T20:03:28Z</time>
      </trkpt>
      <trkpt lat="59.193072599289" lon="17.907239771087">
        <ele>80.8</ele>
        <time>2016-07-07T20:03:33Z</time>
      </trkpt>
      <trkpt lat="59.193073688936" lon="17.906878762654">
        <ele>81.2</ele>
        <time>2016-07-07T20:03:36Z</time>
      </trkpt>
      <trkpt lat="59.193075281497" lon="17.906761667511">
        <ele>81.8</ele>
        <time>2016-07-07T20:03:37Z</time>
      </trkpt>
      <trkpt lat="59.193081567922" lon="17.906642895988">
        <ele>82.2</ele>
        <time>2016-07-07T20:03:38Z</time>
      </trkpt>
      <trkpt lat="59.193086177967" lon="17.906534853297">
        <ele>83</ele>
        <time>2016-07-07T20:03:39Z</time>
      </trkpt>
      <trkpt lat="59.193112413314" lon="17.905998830792">
        <ele>83</ele>
        <time>2016-07-07T20:03:44Z</time>
      </trkpt>
      <trkpt lat="59.193118280644" lon="17.905895146689">
        <ele>83.4</ele>
        <time>2016-07-07T20:03:45Z</time>
      </trkpt>
      <trkpt lat="59.193129260933" lon="17.905790121482">
        <ele>83.8</ele>
        <time>2016-07-07T20:03:46Z</time>
      </trkpt>
      <trkpt lat="59.193140492679" lon="17.905692304709">
        <ele>84.2</ele>
        <time>2016-07-07T20:03:47Z</time>
      </trkpt>
      <trkpt lat="59.193151221511" lon="17.905595745221">
        <ele>84.6</ele>
        <time>2016-07-07T20:03:48Z</time>
      </trkpt>
      <trkpt lat="59.193158513764" lon="17.905499940104">
        <ele>85</ele>
        <time>2016-07-07T20:03:49Z</time>
      </trkpt>
      <trkpt lat="59.193231520113" lon="17.904798291255">
        <ele>85.4</ele>
        <time>2016-07-07T20:03:56Z</time>
      </trkpt>
      <trkpt lat="59.193242500402" lon="17.904697205541">
        <ele>86</ele>
        <time>2016-07-07T20:03:57Z</time>
      </trkpt>
      <trkpt lat="59.19325607908" lon="17.904595700732">
        <ele>86.4</ele>
        <time>2016-07-07T20:03:58Z</time>
      </trkpt>
      <trkpt lat="59.19327032831" lon="17.904492016629">
        <ele>86.8</ele>
        <time>2016-07-07T20:03:59Z</time>
      </trkpt>
      <trkpt lat="59.193284493721" lon="17.904386907603">
        <ele>87.2</ele>
        <time>2016-07-07T20:04:00Z</time>
      </trkpt>
      <trkpt lat="59.193330258895" lon="17.904052637431">
        <ele>87.2</ele>
        <time>2016-07-07T20:04:03Z</time>
      </trkpt>
      <trkpt lat="59.193343083202" lon="17.903936631935">
        <ele>87.2</ele>
        <time>2016-07-07T20:04:04Z</time>
      </trkpt>
      <trkpt lat="59.193391362946" lon="17.903461378205">
        <ele>87.2</ele>
        <time>2016-07-07T20:04:08Z</time>
      </trkpt>
      <trkpt lat="59.193402259416" lon="17.903336823171">
        <ele>87.6</ele>
        <time>2016-07-07T20:04:09Z</time>
      </trkpt>
      <trkpt lat="59.193416341008" lon="17.903223583702">
        <ele>88</ele>
        <time>2016-07-07T20:04:10Z</time>
      </trkpt>
      <trkpt lat="59.193428662401" lon="17.903117971762">
        <ele>88.4</ele>
        <time>2016-07-07T20:04:11Z</time>
      </trkpt>
      <trkpt lat="59.193441738165" lon="17.903013030374">
        <ele>88.8</ele>
        <time>2016-07-07T20:04:12Z</time>
      </trkpt>
      <trkpt lat="59.193455400662" lon="17.902909094814">
        <ele>89.2</ele>
        <time>2016-07-07T20:04:13Z</time>
      </trkpt>
      <trkpt lat="59.193531592133" lon="17.902375586879">
        <ele>89.8</ele>
        <time>2016-07-07T20:04:18Z</time>
      </trkpt>
      <trkpt lat="59.193557492204" lon="17.902285565273">
        <ele>90.2</ele>
        <time>2016-07-07T20:04:19Z</time>
      </trkpt>
      <trkpt lat="59.193588589053" lon="17.902199650798">
        <ele>90.6</ele>
        <time>2016-07-07T20:04:20Z</time>
      </trkpt>
      <trkpt lat="59.19361985354" lon="17.90211650235">
        <ele>91</ele>
        <time>2016-07-07T20:04:21Z</time>
      </trkpt>
      <trkpt lat="59.193654303149" lon="17.902028995314">
        <ele>91.4</ele>
        <time>2016-07-07T20:04:22Z</time>
      </trkpt>
      <trkpt lat="59.193793777965" lon="17.901701849757">
        <ele>91.4</ele>
        <time>2016-07-07T20:04:26Z</time>
      </trkpt>
      <trkpt lat="59.193961499784" lon="17.901344110265">
        <ele>91.4</ele>
        <time>2016-07-07T20:04:31Z</time>
      </trkpt>
      <trkpt lat="59.193992345176" lon="17.901273534667">
        <ele>91.8</ele>
        <time>2016-07-07T20:04:32Z</time>
      </trkpt>
      <trkpt lat="59.194013635202" lon="17.901199773947">
        <ele>92.2</ele>
        <time>2016-07-07T20:04:33Z</time>
      </trkpt>
      <trkpt lat="59.194021933283" lon="17.901123163381">
        <ele>92.6</ele>
        <time>2016-07-07T20:04:34Z</time>
      </trkpt>
      <trkpt lat="59.194021681826" lon="17.901043702969">
        <ele>93</ele>
        <time>2016-07-07T20:04:35Z</time>
      </trkpt>
      <trkpt lat="59.194010701537" lon="17.900966338032">
        <ele>93.4</ele>
        <time>2016-07-07T20:04:36Z</time>
      </trkpt>
      <trkpt lat="59.193968456761" lon="17.900809847959">
        <ele>93.4</ele>
        <time>2016-07-07T20:04:38Z</time>
      </trkpt>
      <trkpt lat="59.193948004925" lon="17.900714294299">
        <ele>93.4</ele>
        <time>2016-07-07T20:04:39Z</time>
      </trkpt>
      <trkpt lat="59.193794448517" lon="17.900107193282">
        <ele>93.4</ele>
        <time>2016-07-07T20:04:45Z</time>
      </trkpt>
      <trkpt lat="59.193650615113" lon="17.899528255449">
        <ele>93.4</ele>
        <time>2016-07-07T20:04:51Z</time>
      </trkpt>
      <trkpt lat="59.193586158302" lon="17.899262968314">
        <ele>93.4</ele>
        <time>2016-07-07T20:04:54Z</time>
      </trkpt>
      <trkpt lat="59.193534525798" lon="17.899098263979">
        <ele>93.4</ele>
        <time>2016-07-07T20:04:56Z</time>
      </trkpt>
      <trkpt lat="59.193510637383" lon="17.899016205178">
        <ele>94</ele>
        <time>2016-07-07T20:04:57Z</time>
      </trkpt>
      <trkpt lat="59.193486497511" lon="17.898933643463">
        <ele>94.4</ele>
        <time>2016-07-07T20:04:58Z</time>
      </trkpt>
      <trkpt lat="59.193461100354" lon="17.898850411196">
        <ele>94.8</ele>
        <time>2016-07-07T20:04:59Z</time>
      </trkpt>
      <trkpt lat="59.193433523903" lon="17.898763826169">
        <ele>95.2</ele>
        <time>2016-07-07T20:05:00Z</time>
      </trkpt>
      <trkpt lat="59.19341114423" lon="17.898672463459">
        <ele>95.6</ele>
        <time>2016-07-07T20:05:01Z</time>
      </trkpt>
      <trkpt lat="59.193348866713" lon="17.898287901887">
        <ele>95.6</ele>
        <time>2016-07-07T20:05:05Z</time>
      </trkpt>
      <trkpt lat="59.193340484813" lon="17.898194862797">
        <ele>95.6</ele>
        <time>2016-07-07T20:05:06Z</time>
      </trkpt>
      <trkpt lat="59.193337886424" lon="17.898102326621">
        <ele>96</ele>
        <time>2016-07-07T20:05:07Z</time>
      </trkpt>
      <trkpt lat="59.193338556976" lon="17.898002749649">
        <ele>96.6</ele>
        <time>2016-07-07T20:05:08Z</time>
      </trkpt>
      <trkpt lat="59.193345681591" lon="17.897897472985">
        <ele>97</ele>
        <time>2016-07-07T20:05:09Z</time>
      </trkpt>
      <trkpt lat="59.193356745699" lon="17.897795968176">
        <ele>97.6</ele>
        <time>2016-07-07T20:05:10Z</time>
      </trkpt>
      <trkpt lat="59.193371330205" lon="17.897698486679">
        <ele>98</ele>
        <time>2016-07-07T20:05:11Z</time>
      </trkpt>
      <trkpt lat="59.193406618004" lon="17.897486843704">
        <ele>98</ele>
        <time>2016-07-07T20:05:13Z</time>
      </trkpt>
      <trkpt lat="59.193431176971" lon="17.897390284216">
        <ele>98</ele>
        <time>2016-07-07T20:05:14Z</time>
      </trkpt>
      <trkpt lat="59.193581548257" lon="17.897058444795">
        <ele>98</ele>
        <time>2016-07-07T20:05:18Z</time>
      </trkpt>
      <trkpt lat="59.19393668936" lon="17.896626525488">
        <ele>98</ele>
        <time>2016-07-07T20:05:25Z</time>
      </trkpt>
      <trkpt lat="59.19421580663" lon="17.896250597273">
        <ele>98</ele>
        <time>2016-07-07T20:05:31Z</time>
      </trkpt>
      <trkpt lat="59.194516800659" lon="17.895806021297">
        <ele>98</ele>
        <time>2016-07-07T20:05:37Z</time>
      </trkpt>
      <trkpt lat="59.194778567396" lon="17.895342586046">
        <ele>98</ele>
        <time>2016-07-07T20:05:42Z</time>
      </trkpt>
      <trkpt lat="59.194836989239" lon="17.895236303554">
        <ele>97</ele>
        <time>2016-07-07T20:05:43Z</time>
      </trkpt>
      <trkpt lat="59.194894489073" lon="17.89512348318">
        <ele>96.6</ele>
        <time>2016-07-07T20:05:44Z</time>
      </trkpt>
      <trkpt lat="59.194951402174" lon="17.895013931747">
        <ele>96.2</ele>
        <time>2016-07-07T20:05:45Z</time>
      </trkpt>
      <trkpt lat="59.195013847329" lon="17.894904464133">
        <ele>95.8</ele>
        <time>2016-07-07T20:05:46Z</time>
      </trkpt>
      <trkpt lat="59.195072688267" lon="17.894799774202">
        <ele>95.8</ele>
        <time>2016-07-07T20:05:47Z</time>
      </trkpt>
      <trkpt lat="59.195205289925" lon="17.894537923646">
        <ele>95.8</ele>
        <time>2016-07-07T20:05:50Z</time>
      </trkpt>
      <trkpt lat="59.19533395209" lon="17.894280599316">
        <ele>95.2</ele>
        <time>2016-07-07T20:05:53Z</time>
      </trkpt>
      <trkpt lat="59.195385165499" lon="17.894184626561">
        <ele>94.8</ele>
        <time>2016-07-07T20:05:54Z</time>
      </trkpt>
      <trkpt lat="59.195436127451" lon="17.894092090385">
        <ele>94.4</ele>
        <time>2016-07-07T20:05:55Z</time>
      </trkpt>
      <trkpt lat="59.195487508498" lon="17.893999554209">
        <ele>94</ele>
        <time>2016-07-07T20:05:56Z</time>
      </trkpt>
      <trkpt lat="59.195542996676" lon="17.893900815427">
        <ele>93.4</ele>
        <time>2016-07-07T20:05:57Z</time>
      </trkpt>
      <trkpt lat="59.195659085991" lon="17.893683891855">
        <ele>93.4</ele>
        <time>2016-07-07T20:05:59Z</time>
      </trkpt>
      <trkpt lat="59.19578322193" lon="17.893466884464">
        <ele>93</ele>
        <time>2016-07-07T20:06:01Z</time>
      </trkpt>
      <trkpt lat="59.195843236334" lon="17.893357584488">
        <ele>92.6</ele>
        <time>2016-07-07T20:06:02Z</time>
      </trkpt>
      <trkpt lat="59.195904172747" lon="17.893249793254">
        <ele>92.2</ele>
        <time>2016-07-07T20:06:03Z</time>
      </trkpt>
      <trkpt lat="59.195962007857" lon="17.893141331468">
        <ele>91.8</ele>
        <time>2016-07-07T20:06:04Z</time>
      </trkpt>
      <trkpt lat="59.196021184071" lon="17.893039156107">
        <ele>91.2</ele>
        <time>2016-07-07T20:06:05Z</time>
      </trkpt>
      <trkpt lat="59.196077594258" lon="17.892938657126">
        <ele>90.6</ele>
        <time>2016-07-07T20:06:06Z</time>
      </trkpt>
      <trkpt lat="59.196133250074" lon="17.892839750706">
        <ele>89.6</ele>
        <time>2016-07-07T20:06:07Z</time>
      </trkpt>
      <trkpt lat="59.196190666089" lon="17.89273380349">
        <ele>89</ele>
        <time>2016-07-07T20:06:08Z</time>
      </trkpt>
      <trkpt lat="59.196243639697" lon="17.892636908726">
        <ele>89</ele>
        <time>2016-07-07T20:06:09Z</time>
      </trkpt>
      <trkpt lat="59.196523092243" lon="17.892156374399">
        <ele>89</ele>
        <time>2016-07-07T20:06:15Z</time>
      </trkpt>
      <trkpt lat="59.196733058838" lon="17.891798802545">
        <ele>89</ele>
        <time>2016-07-07T20:06:19Z</time>
      </trkpt>
      <trkpt lat="59.196788127921" lon="17.891701069591">
        <ele>88.6</ele>
        <time>2016-07-07T20:06:20Z</time>
      </trkpt>
      <trkpt lat="59.196848729058" lon="17.891607527587">
        <ele>88</ele>
        <time>2016-07-07T20:06:21Z</time>
      </trkpt>
      <trkpt lat="59.196916790086" lon="17.891518260352">
        <ele>87.6</ele>
        <time>2016-07-07T20:06:22Z</time>
      </trkpt>
      <trkpt lat="59.196994993213" lon="17.891421114131">
        <ele>87</ele>
        <time>2016-07-07T20:06:23Z</time>
      </trkpt>
      <trkpt lat="59.197075878548" lon="17.891324470824">
        <ele>86.2</ele>
        <time>2016-07-07T20:06:24Z</time>
      </trkpt>
      <trkpt lat="59.197164391412" lon="17.891223888024">
        <ele>85.4</ele>
        <time>2016-07-07T20:06:25Z</time>
      </trkpt>
      <trkpt lat="59.19726514185" lon="17.891130597477">
        <ele>84.6</ele>
        <time>2016-07-07T20:06:26Z</time>
      </trkpt>
      <trkpt lat="59.19737075379" lon="17.891045185916">
        <ele>83.6</ele>
        <time>2016-07-07T20:06:27Z</time>
      </trkpt>
      <trkpt lat="59.197470917495" lon="17.890963210934">
        <ele>82.4</ele>
        <time>2016-07-07T20:06:28Z</time>
      </trkpt>
      <trkpt lat="59.197566806431" lon="17.890890372223">
        <ele>81.4</ele>
        <time>2016-07-07T20:06:29Z</time>
      </trkpt>
      <trkpt lat="59.197663365919" lon="17.890820299539">
        <ele>80.2</ele>
        <time>2016-07-07T20:06:30Z</time>
      </trkpt>
      <trkpt lat="59.197756153552" lon="17.890753411977">
        <ele>79.2</ele>
        <time>2016-07-07T20:06:31Z</time>
      </trkpt>
      <trkpt lat="59.197847851538" lon="17.890688033157">
        <ele>77</ele>
        <time>2016-07-07T20:06:32Z</time>
      </trkpt>
      <trkpt lat="59.197932760185" lon="17.890632209703">
        <ele>77</ele>
        <time>2016-07-07T20:06:33Z</time>
      </trkpt>
      <trkpt lat="59.198124454238" lon="17.89050673266">
        <ele>77</ele>
        <time>2016-07-07T20:06:36Z</time>
      </trkpt>
      <trkpt lat="59.198359566533" lon="17.890308668363">
        <ele>77</ele>
        <time>2016-07-07T20:06:40Z</time>
      </trkpt>
      <trkpt lat="59.198426789371" lon="17.890255862393">
        <ele>76.4</ele>
        <time>2016-07-07T20:06:41Z</time>
      </trkpt>
      <trkpt lat="59.198501555919" lon="17.890198446378">
        <ele>76</ele>
        <time>2016-07-07T20:06:42Z</time>
      </trkpt>
      <trkpt lat="59.198579507589" lon="17.890136001223">
        <ele>75.2</ele>
        <time>2016-07-07T20:06:43Z</time>
      </trkpt>
      <trkpt lat="59.198660225286" lon="17.890101300157">
        <ele>74.4</ele>
        <time>2016-07-07T20:06:44Z</time>
      </trkpt>
      <trkpt lat="59.198742451725" lon="17.890091325696">
        <ele>73.8</ele>
        <time>2016-07-07T20:06:45Z</time>
      </trkpt>
      <trkpt lat="59.198821493042" lon="17.890085709823">
        <ele>73</ele>
        <time>2016-07-07T20:06:46Z</time>
      </trkpt>
      <trkpt lat="59.198881004532" lon="17.890086380375">
        <ele>72.2</ele>
        <time>2016-07-07T20:06:47Z</time>
      </trkpt>
      <trkpt lat="59.198927691715" lon="17.890082524701">
        <ele>71.6</ele>
        <time>2016-07-07T20:06:48Z</time>
      </trkpt>
      <trkpt lat="59.198970942319" lon="17.890044806151">
        <ele>70.8</ele>
        <time>2016-07-07T20:06:49Z</time>
      </trkpt>
      <trkpt lat="59.199001368616" lon="17.889965010463">
        <ele>70</ele>
        <time>2016-07-07T20:06:50Z</time>
      </trkpt>
      <trkpt lat="59.199013019457" lon="17.889596206863">
        <ele>69.6</ele>
        <time>2016-07-07T20:06:53Z</time>
      </trkpt>
      <trkpt lat="59.19900773886" lon="17.889456312952">
        <ele>69.2</ele>
        <time>2016-07-07T20:06:54Z</time>
      </trkpt>
      <trkpt lat="59.199009582878" lon="17.889307785684">
        <ele>68.8</ele>
        <time>2016-07-07T20:06:55Z</time>
      </trkpt>
      <trkpt lat="59.19901109162" lon="17.889157917312">
        <ele>68</ele>
        <time>2016-07-07T20:06:56Z</time>
      </trkpt>
      <trkpt lat="59.199008660869" lon="17.889021879075">
        <ele>67.4</ele>
        <time>2016-07-07T20:06:57Z</time>
      </trkpt>
      <trkpt lat="59.199006984489" lon="17.888921799189">
        <ele>67</ele>
        <time>2016-07-07T20:06:58Z</time>
      </trkpt>
      <trkpt lat="59.199005978661" lon="17.888853067609">
        <ele>66.6</ele>
        <time>2016-07-07T20:06:59Z</time>
      </trkpt>
      <trkpt lat="59.199005391928" lon="17.888796992698">
        <ele>66.2</ele>
        <time>2016-07-07T20:07:00Z</time>
      </trkpt>
      <trkpt lat="59.199006649213" lon="17.88873982814">
        <ele>65.8</ele>
        <time>2016-07-07T20:07:01Z</time>
      </trkpt>
      <trkpt lat="59.198994663096" lon="17.888521228188">
        <ele>65.8</ele>
        <time>2016-07-07T20:07:04Z</time>
      </trkpt>
      <trkpt lat="59.19896750574" lon="17.888259629089">
        <ele>65.8</ele>
        <time>2016-07-07T20:07:07Z</time>
      </trkpt>
      <trkpt lat="59.198914280675" lon="17.88811789116">
        <ele>65.2</ele>
        <time>2016-07-07T20:07:09Z</time>
      </trkpt>
      <trkpt lat="59.198886788043" lon="17.88806005605">
        <ele>64.8</ele>
        <time>2016-07-07T20:07:10Z</time>
      </trkpt>
      <trkpt lat="59.1988618938" lon="17.888011608668">
        <ele>64.4</ele>
        <time>2016-07-07T20:07:11Z</time>
      </trkpt>
      <trkpt lat="59.19883423353" lon="17.887961401087">
        <ele>64</ele>
        <time>2016-07-07T20:07:12Z</time>
      </trkpt>
      <trkpt lat="59.198806657079" lon="17.887911612601">
        <ele>63.6</ele>
        <time>2016-07-07T20:07:13Z</time>
      </trkpt>
      <trkpt lat="59.198778661533" lon="17.887858974269">
        <ele>63.6</ele>
        <time>2016-07-07T20:07:14Z</time>
      </trkpt>
      <trkpt lat="59.198644132038" lon="17.887645738733">
        <ele>63.2</ele>
        <time>2016-07-07T20:07:18Z</time>
      </trkpt>
      <trkpt lat="59.198615717397" lon="17.887601649939">
        <ele>62.8</ele>
        <time>2016-07-07T20:07:19Z</time>
      </trkpt>
      <trkpt lat="59.19859702576" lon="17.887560997724">
        <ele>62.4</ele>
        <time>2016-07-07T20:07:20Z</time>
      </trkpt>
      <trkpt lat="59.198581770702" lon="17.887528140676">
        <ele>61.6</ele>
        <time>2016-07-07T20:07:21Z</time>
      </trkpt>
      <trkpt lat="59.198555367717" lon="17.887458570906">
        <ele>61.6</ele>
        <time>2016-07-07T20:07:23Z</time>
      </trkpt>
      <trkpt lat="59.198519996099" lon="17.887309205448">
        <ele>61.2</ele>
        <time>2016-07-07T20:07:26Z</time>
      </trkpt>
      <trkpt lat="59.198506668878" lon="17.887234774176">
        <ele>60.8</ele>
        <time>2016-07-07T20:07:27Z</time>
      </trkpt>
      <trkpt lat="59.198491497639" lon="17.887146093674">
        <ele>60.4</ele>
        <time>2016-07-07T20:07:28Z</time>
      </trkpt>
      <trkpt lat="59.198475823486" lon="17.887041990476">
        <ele>60</ele>
        <time>2016-07-07T20:07:29Z</time>
      </trkpt>
      <trkpt lat="59.198462831541" lon="17.886919782374">
        <ele>59.4</ele>
        <time>2016-07-07T20:07:30Z</time>
      </trkpt>
      <trkpt lat="59.198448833768" lon="17.886758095523">
        <ele>58.8</ele>
        <time>2016-07-07T20:07:31Z</time>
      </trkpt>
      <trkpt lat="59.198442631162" lon="17.886587104763">
        <ele>58.2</ele>
        <time>2016-07-07T20:07:32Z</time>
      </trkpt>
      <trkpt lat="59.198447241207" lon="17.886413180338">
        <ele>57.6</ele>
        <time>2016-07-07T20:07:33Z</time>
      </trkpt>
      <trkpt lat="59.198457802401" lon="17.886228527081">
        <ele>56.8</ele>
        <time>2016-07-07T20:07:34Z</time>
      </trkpt>
      <trkpt lat="59.198473225097" lon="17.886030378965">
        <ele>56</ele>
        <time>2016-07-07T20:07:35Z</time>
      </trkpt>
      <trkpt lat="59.198504154308" lon="17.885839020188">
        <ele>55.2</ele>
        <time>2016-07-07T20:07:36Z</time>
      </trkpt>
      <trkpt lat="59.198532233673" lon="17.885637519312">
        <ele>54.2</ele>
        <time>2016-07-07T20:07:37Z</time>
      </trkpt>
      <trkpt lat="59.198560815952" lon="17.88541808117">
        <ele>53.4</ele>
        <time>2016-07-07T20:07:38Z</time>
      </trkpt>
      <trkpt lat="59.198595936113" lon="17.885233847008">
        <ele>52.6</ele>
        <time>2016-07-07T20:07:39Z</time>
      </trkpt>
      <trkpt lat="59.198636504509" lon="17.885044667525">
        <ele>52</ele>
        <time>2016-07-07T20:07:40Z</time>
      </trkpt>
      <trkpt lat="59.198680509484" lon="17.884856996784">
        <ele>51.2</ele>
        <time>2016-07-07T20:07:41Z</time>
      </trkpt>
      <trkpt lat="59.198719233862" lon="17.88467544483">
        <ele>50.4</ele>
        <time>2016-07-07T20:07:42Z</time>
      </trkpt>
      <trkpt lat="59.198759383163" lon="17.884503364423">
        <ele>49.8</ele>
        <time>2016-07-07T20:07:43Z</time>
      </trkpt>
      <trkpt lat="59.198801041206" lon="17.88433262512">
        <ele>49.2</ele>
        <time>2016-07-07T20:07:44Z</time>
      </trkpt>
      <trkpt lat="59.198845046181" lon="17.884169010432">
        <ele>48.4</ele>
        <time>2016-07-07T20:07:45Z</time>
      </trkpt>
      <trkpt lat="59.198892571554" lon="17.88403003853">
        <ele>48</ele>
        <time>2016-07-07T20:07:46Z</time>
      </trkpt>
      <trkpt lat="59.198946467171" lon="17.883913194844">
        <ele>47.4</ele>
        <time>2016-07-07T20:07:47Z</time>
      </trkpt>
      <trkpt lat="59.199121481243" lon="17.88370398262">
        <ele>47.4</ele>
        <time>2016-07-07T20:07:50Z</time>
      </trkpt>
      <trkpt lat="59.199378554116" lon="17.883629718986">
        <ele>47.4</ele>
        <time>2016-07-07T20:07:54Z</time>
      </trkpt>
      <trkpt lat="59.19942767205" lon="17.883622175276">
        <ele>47</ele>
        <time>2016-07-07T20:07:55Z</time>
      </trkpt>
      <trkpt lat="59.199471677025" lon="17.883615553575">
        <ele>46.6</ele>
        <time>2016-07-07T20:07:56Z</time>
      </trkpt>
      <trkpt lat="59.199502606236" lon="17.883599711784">
        <ele>46.2</ele>
        <time>2016-07-07T20:07:57Z</time>
      </trkpt>
      <trkpt lat="59.199524818271" lon="17.883583115622">
        <ele>45.8</ele>
        <time>2016-07-07T20:07:58Z</time>
      </trkpt>
      <trkpt lat="59.199542168804" lon="17.883571632419">
        <ele>45.4</ele>
        <time>2016-07-07T20:07:59Z</time>
      </trkpt>
      <trkpt lat="59.199557926776" lon="17.883567441469">
        <ele>45.4</ele>
        <time>2016-07-07T20:08:00Z</time>
      </trkpt>
      <trkpt lat="59.199609643099" lon="17.883516814793">
        <ele>45.4</ele>
        <time>2016-07-07T20:08:02Z</time>
      </trkpt>
      <trkpt lat="59.199739394911" lon="17.883212216547">
        <ele>45.4</ele>
        <time>2016-07-07T20:08:06Z</time>
      </trkpt>
      <trkpt lat="59.199776862004" lon="17.883120853837">
        <ele>45.4</ele>
        <time>2016-07-07T20:08:07Z</time>
      </trkpt>
      <trkpt lat="59.199918683752" lon="17.882856404892">
        <ele>45.4</ele>
        <time>2016-07-07T20:08:10Z</time>
      </trkpt>
      <trkpt lat="59.199981128907" lon="17.882772250616">
        <ele>44.8</ele>
        <time>2016-07-07T20:08:11Z</time>
      </trkpt>
      <trkpt lat="59.200044915166" lon="17.882683318657">
        <ele>44.2</ele>
        <time>2016-07-07T20:08:12Z</time>
      </trkpt>
      <trkpt lat="59.200108785244" lon="17.882579550735">
        <ele>43.8</ele>
        <time>2016-07-07T20:08:13Z</time>
      </trkpt>
      <trkpt lat="59.200172236227" lon="17.882461952678">
        <ele>43</ele>
        <time>2016-07-07T20:08:14Z</time>
      </trkpt>
      <trkpt lat="59.200237531228" lon="17.882328177554">
        <ele>42.4</ele>
        <time>2016-07-07T20:08:15Z</time>
      </trkpt>
      <trkpt lat="59.200300144021" lon="17.88219104967">
        <ele>41.6</ele>
        <time>2016-07-07T20:08:16Z</time>
      </trkpt>
      <trkpt lat="59.200362337719" lon="17.882043695868">
        <ele>41</ele>
        <time>2016-07-07T20:08:17Z</time>
      </trkpt>
      <trkpt lat="59.200418244992" lon="17.881884858863">
        <ele>40.2</ele>
        <time>2016-07-07T20:08:18Z</time>
      </trkpt>
      <trkpt lat="59.20047038041" lon="17.881721160356">
        <ele>39.4</ele>
        <time>2016-07-07T20:08:19Z</time>
      </trkpt>
      <trkpt lat="59.200518911611" lon="17.881551762157">
        <ele>38.6</ele>
        <time>2016-07-07T20:08:20Z</time>
      </trkpt>
      <trkpt lat="59.200559144731" lon="17.881370964574">
        <ele>37.6</ele>
        <time>2016-07-07T20:08:21Z</time>
      </trkpt>
      <trkpt lat="59.200596444186" lon="17.881194022665">
        <ele>36.8</ele>
        <time>2016-07-07T20:08:22Z</time>
      </trkpt>
      <trkpt lat="59.200624942646" lon="17.881006016648">
        <ele>36</ele>
        <time>2016-07-07T20:08:23Z</time>
      </trkpt>
      <trkpt lat="59.200641790265" lon="17.880822201581">
        <ele>35.4</ele>
        <time>2016-07-07T20:08:24Z</time>
      </trkpt>
      <trkpt lat="59.200648160509" lon="17.880636374858">
        <ele>35</ele>
        <time>2016-07-07T20:08:25Z</time>
      </trkpt>
      <trkpt lat="59.200636258211" lon="17.880455074361">
        <ele>34.4</ele>
        <time>2016-07-07T20:08:26Z</time>
      </trkpt>
      <trkpt lat="59.200619829687" lon="17.88027662371">
        <ele>33.8</ele>
        <time>2016-07-07T20:08:27Z</time>
      </trkpt>
      <trkpt lat="59.200614297633" lon="17.880075709567">
        <ele>33.4</ele>
        <time>2016-07-07T20:08:28Z</time>
      </trkpt>
      <trkpt lat="59.200603149706" lon="17.879860462375">
        <ele>32.8</ele>
        <time>2016-07-07T20:08:29Z</time>
      </trkpt>
      <trkpt lat="59.200588229924" lon="17.879642281518">
        <ele>32.4</ele>
        <time>2016-07-07T20:08:30Z</time>
      </trkpt>
      <trkpt lat="59.200573393961" lon="17.87941999353">
        <ele>31.8</ele>
        <time>2016-07-07T20:08:31Z</time>
      </trkpt>
      <trkpt lat="59.20056174312" lon="17.879215558989">
        <ele>31</ele>
        <time>2016-07-07T20:08:32Z</time>
      </trkpt>
      <trkpt lat="59.200553696496" lon="17.879014141932">
        <ele>30.4</ele>
        <time>2016-07-07T20:08:33Z</time>
      </trkpt>
      <trkpt lat="59.200549002632" lon="17.878825213906">
        <ele>29.8</ele>
        <time>2016-07-07T20:08:34Z</time>
      </trkpt>
      <trkpt lat="59.200545985148" lon="17.878642069391">
        <ele>29.2</ele>
        <time>2016-07-07T20:08:35Z</time>
      </trkpt>
      <trkpt lat="59.200551601021" lon="17.878456326487">
        <ele>29.2</ele>
        <time>2016-07-07T20:08:36Z</time>
      </trkpt>
      <trkpt lat="59.200622595714" lon="17.877916783584">
        <ele>29.2</ele>
        <time>2016-07-07T20:08:39Z</time>
      </trkpt>
      <trkpt lat="59.200749330042" lon="17.877446642813">
        <ele>29.2</ele>
        <time>2016-07-07T20:08:42Z</time>
      </trkpt>
      <trkpt lat="59.200804985858" lon="17.877301719762">
        <ele>29.2</ele>
        <time>2016-07-07T20:08:43Z</time>
      </trkpt>
      <trkpt lat="59.200928618883" lon="17.877043976337">
        <ele>29.2</ele>
        <time>2016-07-07T20:08:45Z</time>
      </trkpt>
      <trkpt lat="59.20107220083" lon="17.876874494319">
        <ele>29.2</ele>
        <time>2016-07-07T20:08:47Z</time>
      </trkpt>
      <trkpt lat="59.201319047785" lon="17.876756141891">
        <ele>29.2</ele>
        <time>2016-07-07T20:08:50Z</time>
      </trkpt>
      <trkpt lat="59.20182992459" lon="17.876572997376">
        <ele>29.2</ele>
        <time>2016-07-07T20:08:56Z</time>
      </trkpt>
      <trkpt lat="59.202050620017" lon="17.876411394344">
        <ele>29.2</ele>
        <time>2016-07-07T20:08:59Z</time>
      </trkpt>
      <trkpt lat="59.202114741552" lon="17.876326737154">
        <ele>29.2</ele>
        <time>2016-07-07T20:09:00Z</time>
      </trkpt>
      <trkpt lat="59.202327557993" lon="17.875862296075">
        <ele>29.2</ele>
        <time>2016-07-07T20:09:04Z</time>
      </trkpt>
      <trkpt lat="59.202369299855" lon="17.875734555919">
        <ele>29.2</ele>
        <time>2016-07-07T20:09:05Z</time>
      </trkpt>
      <trkpt lat="59.202624947805" lon="17.874987728629">
        <ele>29.6</ele>
        <time>2016-07-07T20:09:11Z</time>
      </trkpt>
      <trkpt lat="59.202665767658" lon="17.874870633486">
        <ele>30</ele>
        <time>2016-07-07T20:09:12Z</time>
      </trkpt>
      <trkpt lat="59.202709521176" lon="17.874753705981">
        <ele>30.4</ele>
        <time>2016-07-07T20:09:13Z</time>
      </trkpt>
      <trkpt lat="59.202752604142" lon="17.874640885607">
        <ele>30.8</ele>
        <time>2016-07-07T20:09:14Z</time>
      </trkpt>
      <trkpt lat="59.202797028212" lon="17.874535944219">
        <ele>31.2</ele>
        <time>2016-07-07T20:09:15Z</time>
      </trkpt>
      <trkpt lat="59.202943627643" lon="17.874245679022">
        <ele>31.2</ele>
        <time>2016-07-07T20:09:18Z</time>
      </trkpt>
      <trkpt lat="59.20326574406" lon="17.873704292101">
        <ele>31.2</ele>
        <time>2016-07-07T20:09:24Z</time>
      </trkpt>
      <trkpt lat="59.203487193858" lon="17.873365160427">
        <ele>31.2</ele>
        <time>2016-07-07T20:09:29Z</time>
      </trkpt>
      <trkpt lat="59.203548968461" lon="17.873286454386">
        <ele>31.2</ele>
        <time>2016-07-07T20:09:31Z</time>
      </trkpt>
      <trkpt lat="59.20362700395" lon="17.873159636239">
        <ele>31.2</ele>
        <time>2016-07-07T20:09:33Z</time>
      </trkpt>
      <trkpt lat="59.20391785588" lon="17.872695865712">
        <ele>31.2</ele>
        <time>2016-07-07T20:09:39Z</time>
      </trkpt>
      <trkpt lat="59.204311972818" lon="17.872019111106">
        <ele>31.2</ele>
        <time>2016-07-07T20:09:47Z</time>
      </trkpt>
      <trkpt lat="59.204419512595" lon="17.87169104354">
        <ele>31.2</ele>
        <time>2016-07-07T20:09:50Z</time>
      </trkpt>
      <trkpt lat="59.204466954149" lon="17.87145635034">
        <ele>31.2</ele>
        <time>2016-07-07T20:09:52Z</time>
      </trkpt>
      <trkpt lat="59.204482293026" lon="17.871332717315">
        <ele>30.8</ele>
        <time>2016-07-07T20:09:53Z</time>
      </trkpt>
      <trkpt lat="59.204491596935" lon="17.871218388199">
        <ele>30.4</ele>
        <time>2016-07-07T20:09:54Z</time>
      </trkpt>
      <trkpt lat="59.204497799541" lon="17.871103639988">
        <ele>30</ele>
        <time>2016-07-07T20:09:55Z</time>
      </trkpt>
      <trkpt lat="59.204501906672" lon="17.870990065243">
        <ele>29.6</ele>
        <time>2016-07-07T20:09:56Z</time>
      </trkpt>
      <trkpt lat="59.20450458888" lon="17.870875149394">
        <ele>29.2</ele>
        <time>2016-07-07T20:09:57Z</time>
      </trkpt>
      <trkpt lat="59.204543648534" lon="17.870157658754">
        <ele>29.2</ele>
        <time>2016-07-07T20:10:03Z</time>
      </trkpt>
      <trkpt lat="59.2045699677" lon="17.869081255156">
        <ele>29.2</ele>
        <time>2016-07-07T20:10:11Z</time>
      </trkpt>
      <trkpt lat="59.20457080589" lon="17.868945636014">
        <ele>29.2</ele>
        <time>2016-07-07T20:10:12Z</time>
      </trkpt>
      <trkpt lat="59.204545492552" lon="17.867878284868">
        <ele>29.2</ele>
        <time>2016-07-07T20:10:20Z</time>
      </trkpt>
      <trkpt lat="59.204542391249" lon="17.867748281599">
        <ele>29.2</ele>
        <time>2016-07-07T20:10:21Z</time>
      </trkpt>
      <trkpt lat="59.204515820626" lon="17.866727114722">
        <ele>29.2</ele>
        <time>2016-07-07T20:10:29Z</time>
      </trkpt>
      <trkpt lat="59.204486316338" lon="17.865709971157">
        <ele>29.2</ele>
        <time>2016-07-07T20:10:37Z</time>
      </trkpt>
      <trkpt lat="59.204461422095" lon="17.864679668009">
        <ele>29.2</ele>
        <time>2016-07-07T20:10:45Z</time>
      </trkpt>
      <trkpt lat="59.204442227544" lon="17.863796467206">
        <ele>29.2</ele>
        <time>2016-07-07T20:10:52Z</time>
      </trkpt>
      <trkpt lat="59.204422194803" lon="17.862670778036">
        <ele>29.2</ele>
        <time>2016-07-07T20:11:01Z</time>
      </trkpt>
      <trkpt lat="59.204390008307" lon="17.861546932884">
        <ele>29.2</ele>
        <time>2016-07-07T20:11:10Z</time>
      </trkpt>
      <trkpt lat="59.204387996651" lon="17.861306539992">
        <ele>29.2</ele>
        <time>2016-07-07T20:11:12Z</time>
      </trkpt>
      <trkpt lat="59.204361593666" lon="17.860323762217">
        <ele>29.2</ele>
        <time>2016-07-07T20:11:20Z</time>
      </trkpt>
      <trkpt lat="59.204330161541" lon="17.859225146584">
        <ele>29.2</ele>
        <time>2016-07-07T20:11:29Z</time>
      </trkpt>
      <trkpt lat="59.204295711932" lon="17.858358039029">
        <ele>29.2</ele>
        <time>2016-07-07T20:11:36Z</time>
      </trkpt>
      <trkpt lat="59.204245755808" lon="17.85737308196">
        <ele>29.2</ele>
        <time>2016-07-07T20:11:44Z</time>
      </trkpt>
      <trkpt lat="59.204164870473" lon="17.85650052617">
        <ele>29.2</ele>
        <time>2016-07-07T20:11:51Z</time>
      </trkpt>
      <trkpt lat="59.204157159125" lon="17.856369265616">
        <ele>29.2</ele>
        <time>2016-07-07T20:11:52Z</time>
      </trkpt>
      <trkpt lat="59.204126732828" lon="17.855827878695">
        <ele>29.2</ele>
        <time>2016-07-07T20:11:56Z</time>
      </trkpt>
      <trkpt lat="59.204047104778" lon="17.854694394358">
        <ele>29.2</ele>
        <time>2016-07-07T20:12:05Z</time>
      </trkpt>
      <trkpt lat="59.203903522831" lon="17.853695355697">
        <ele>29.2</ele>
        <time>2016-07-07T20:12:13Z</time>
      </trkpt>
      <trkpt lat="59.20384577154" lon="17.853041483678">
        <ele>29.2</ele>
        <time>2016-07-07T20:12:18Z</time>
      </trkpt>
      <trkpt lat="59.203771088811" lon="17.851987459753">
        <ele>29.2</ele>
        <time>2016-07-07T20:12:26Z</time>
      </trkpt>
      <trkpt lat="59.203761198169" lon="17.851857540303">
        <ele>29.2</ele>
        <time>2016-07-07T20:12:27Z</time>
      </trkpt>
      <trkpt lat="59.203700345575" lon="17.850814412848">
        <ele>29.2</ele>
        <time>2016-07-07T20:12:35Z</time>
      </trkpt>
      <trkpt lat="59.203640834085" lon="17.849904892879">
        <ele>29.2</ele>
        <time>2016-07-07T20:12:42Z</time>
      </trkpt>
      <trkpt lat="59.203584759174" lon="17.849126382007">
        <ele>29.2</ele>
        <time>2016-07-07T20:12:48Z</time>
      </trkpt>
      <trkpt lat="59.203504879667" lon="17.847968003427">
        <ele>29.2</ele>
        <time>2016-07-07T20:12:57Z</time>
      </trkpt>
      <trkpt lat="59.203441428684" lon="17.846963851807">
        <ele>29.2</ele>
        <time>2016-07-07T20:13:05Z</time>
      </trkpt>
      <trkpt lat="59.203375127855" lon="17.845981493127">
        <ele>29.2</ele>
        <time>2016-07-07T20:13:13Z</time>
      </trkpt>
      <trkpt lat="59.203310335768" lon="17.844998631533">
        <ele>29.2</ele>
        <time>2016-07-07T20:13:21Z</time>
      </trkpt>
      <trkpt lat="59.203273371589" lon="17.844509547668">
        <ele>29.6</ele>
        <time>2016-07-07T20:13:25Z</time>
      </trkpt>
      <trkpt lat="59.203264235318" lon="17.844387507204">
        <ele>30</ele>
        <time>2016-07-07T20:13:26Z</time>
      </trkpt>
      <trkpt lat="59.203257781255" lon="17.84426965769">
        <ele>30.6</ele>
        <time>2016-07-07T20:13:27Z</time>
      </trkpt>
      <trkpt lat="59.203257613617" lon="17.844147198131">
        <ele>31</ele>
        <time>2016-07-07T20:13:28Z</time>
      </trkpt>
      <trkpt lat="59.203256188694" lon="17.844030522083">
        <ele>31.6</ele>
        <time>2016-07-07T20:13:29Z</time>
      </trkpt>
      <trkpt lat="59.203248728803" lon="17.843914432768">
        <ele>31.6</ele>
        <time>2016-07-07T20:13:30Z</time>
      </trkpt>
      <trkpt lat="59.203219224515" lon="17.843566248642">
        <ele>31.6</ele>
        <time>2016-07-07T20:13:33Z</time>
      </trkpt>
      <trkpt lat="59.203170944771" lon="17.843227619882">
        <ele>31.6</ele>
        <time>2016-07-07T20:13:36Z</time>
      </trkpt>
      <trkpt lat="59.203105733589" lon="17.843036931657">
        <ele>31.6</ele>
        <time>2016-07-07T20:13:38Z</time>
      </trkpt>
      <trkpt lat="59.202920912694" lon="17.842920339428">
        <ele>31.6</ele>
        <time>2016-07-07T20:13:41Z</time>
      </trkpt>
      <trkpt lat="59.202852600209" lon="17.842904916732">
        <ele>31.6</ele>
        <time>2016-07-07T20:13:42Z</time>
      </trkpt>
      <trkpt lat="59.202648417125" lon="17.84285982211">
        <ele>31.6</ele>
        <time>2016-07-07T20:13:45Z</time>
      </trkpt>
      <trkpt lat="59.202437779978" lon="17.842798550421">
        <ele>31.6</ele>
        <time>2016-07-07T20:13:48Z</time>
      </trkpt>
      <trkpt lat="59.201982810446" lon="17.842678689251">
        <ele>31.6</ele>
        <time>2016-07-07T20:13:55Z</time>
      </trkpt>
      <trkpt lat="59.2016530665" lon="17.842548937439">
        <ele>32</ele>
        <time>2016-07-07T20:14:01Z</time>
      </trkpt>
      <trkpt lat="59.201600931082" lon="17.842528150327">
        <ele>32.4</ele>
        <time>2016-07-07T20:14:02Z</time>
      </trkpt>
      <trkpt lat="59.201555333546" lon="17.842505183921">
        <ele>32.8</ele>
        <time>2016-07-07T20:14:03Z</time>
      </trkpt>
      <trkpt lat="59.201511831485" lon="17.842478864755">
        <ele>33.2</ele>
        <time>2016-07-07T20:14:04Z</time>
      </trkpt>
      <trkpt lat="59.201475454039" lon="17.842446091526">
        <ele>33.6</ele>
        <time>2016-07-07T20:14:05Z</time>
      </trkpt>
      <trkpt lat="59.201449889244" lon="17.842383562552">
        <ele>33.6</ele>
        <time>2016-07-07T20:14:06Z</time>
      </trkpt>
      <trkpt lat="59.201456510945" lon="17.842296139335">
        <ele>33.6</ele>
        <time>2016-07-07T20:14:07Z</time>
      </trkpt>
      <trkpt lat="59.201516944444" lon="17.842132692285">
        <ele>33.6</ele>
        <time>2016-07-07T20:14:09Z</time>
      </trkpt>
      <trkpt lat="59.201541168135" lon="17.841785933082">
        <ele>33.6</ele>
        <time>2016-07-07T20:14:12Z</time>
      </trkpt>
      <trkpt lat="59.201540581402" lon="17.841436240214">
        <ele>33.6</ele>
        <time>2016-07-07T20:14:15Z</time>
      </trkpt>
      <trkpt lat="59.201527170362" lon="17.841184364119">
        <ele>33.6</ele>
        <time>2016-07-07T20:14:17Z</time>
      </trkpt>
      <trkpt lat="59.201518537005" lon="17.841064502949">
        <ele>33.6</ele>
        <time>2016-07-07T20:14:18Z</time>
      </trkpt>
      <trkpt lat="59.201484338853" lon="17.840582795156">
        <ele>33.6</ele>
        <time>2016-07-07T20:14:22Z</time>
      </trkpt>
      <trkpt lat="59.201440501516" lon="17.840089268884">
        <ele>34</ele>
        <time>2016-07-07T20:14:27Z</time>
      </trkpt>
      <trkpt lat="59.201405046079" lon="17.8400024324">
        <ele>34.4</ele>
        <time>2016-07-07T20:14:28Z</time>
      </trkpt>
      <trkpt lat="59.201360705828" lon="17.839912913708">
        <ele>34.8</ele>
        <time>2016-07-07T20:14:29Z</time>
      </trkpt>
      <trkpt lat="59.201326507676" lon="17.839810067795">
        <ele>35.4</ele>
        <time>2016-07-07T20:14:30Z</time>
      </trkpt>
      <trkpt lat="59.201293399171" lon="17.839701354552">
        <ele>35.8</ele>
        <time>2016-07-07T20:14:31Z</time>
      </trkpt>
      <trkpt lat="59.201155684554" lon="17.839249402504">
        <ele>35.8</ele>
        <time>2016-07-07T20:14:35Z</time>
      </trkpt>
      <trkpt lat="59.20101771848" lon="17.838786302529">
        <ele>35.2</ele>
        <time>2016-07-07T20:14:39Z</time>
      </trkpt>
      <trkpt lat="59.200984107061" lon="17.83867138668">
        <ele>34.8</ele>
        <time>2016-07-07T20:14:40Z</time>
      </trkpt>
      <trkpt lat="59.200946220873" lon="17.838556387012">
        <ele>34.4</ele>
        <time>2016-07-07T20:14:41Z</time>
      </trkpt>
      <trkpt lat="59.200911352169" lon="17.838443399">
        <ele>33.8</ele>
        <time>2016-07-07T20:14:42Z</time>
      </trkpt>
      <trkpt lat="59.20087438799" lon="17.838328650789">
        <ele>33.4</ele>
        <time>2016-07-07T20:14:43Z</time>
      </trkpt>
      <trkpt lat="59.200718317012" lon="17.837896647663">
        <ele>33.4</ele>
        <time>2016-07-07T20:14:47Z</time>
      </trkpt>
      <trkpt lat="59.200672216562" lon="17.837798160338">
        <ele>33.4</ele>
        <time>2016-07-07T20:14:48Z</time>
      </trkpt>
      <trkpt lat="59.200355883656" lon="17.837038927836">
        <ele>33.4</ele>
        <time>2016-07-07T20:14:55Z</time>
      </trkpt>
      <trkpt lat="59.20019713047" lon="17.836413805734">
        <ele>33.4</ele>
        <time>2016-07-07T20:15:00Z</time>
      </trkpt>
      <trkpt lat="59.20016444106" lon="17.836141645441">
        <ele>33.4</ele>
        <time>2016-07-07T20:15:02Z</time>
      </trkpt>
      <trkpt lat="59.200142983396" lon="17.835715174369">
        <ele>33.4</ele>
        <time>2016-07-07T20:15:05Z</time>
      </trkpt>
      <trkpt lat="59.200136948428" lon="17.834763996357">
        <ele>33.4</ele>
        <time>2016-07-07T20:15:12Z</time>
      </trkpt>
      <trkpt lat="59.200133511849" lon="17.833857158596">
        <ele>33.4</ele>
        <time>2016-07-07T20:15:19Z</time>
      </trkpt>
      <trkpt lat="59.200115909859" lon="17.832859880134">
        <ele>33.4</ele>
        <time>2016-07-07T20:15:27Z</time>
      </trkpt>
      <trkpt lat="59.200135607324" lon="17.831913144529">
        <ele>33.4</ele>
        <time>2016-07-07T20:15:34Z</time>
      </trkpt>
      <trkpt lat="59.200154047504" lon="17.83116958618">
        <ele>33.4</ele>
        <time>2016-07-07T20:15:39Z</time>
      </trkpt>
      <trkpt lat="59.200209200406" lon="17.830301556616">
        <ele>33.4</ele>
        <time>2016-07-07T20:15:45Z</time>
      </trkpt>
      <trkpt lat="59.200269633905" lon="17.829437382726">
        <ele>33.4</ele>
        <time>2016-07-07T20:15:51Z</time>
      </trkpt>
      <trkpt lat="59.200336018553" lon="17.828493580786">
        <ele>33.4</ele>
        <time>2016-07-07T20:15:58Z</time>
      </trkpt>
      <trkpt lat="59.200399385717" lon="17.827567716112">
        <ele>33.4</ele>
        <time>2016-07-07T20:16:05Z</time>
      </trkpt>
      <trkpt lat="59.200533663755" lon="17.827092881477">
        <ele>33.4</ele>
        <time>2016-07-07T20:16:09Z</time>
      </trkpt>
      <trkpt lat="59.200638521324" lon="17.826741093134">
        <ele>33.4</ele>
        <time>2016-07-07T20:16:12Z</time>
      </trkpt>
      <trkpt lat="59.200680598462" lon="17.826629530045">
        <ele>33.4</ele>
        <time>2016-07-07T20:16:13Z</time>
      </trkpt>
      <trkpt lat="59.200865838452" lon="17.826440015286">
        <ele>33.4</ele>
        <time>2016-07-07T20:16:16Z</time>
      </trkpt>
      <trkpt lat="59.200936497869" lon="17.826389891524">
        <ele>33.4</ele>
        <time>2016-07-07T20:16:17Z</time>
      </trkpt>
      <trkpt lat="59.201421223146" lon="17.826016058784">
        <ele>33.4</ele>
        <time>2016-07-07T20:16:24Z</time>
      </trkpt>
      <trkpt lat="59.20164552279" lon="17.82587725452">
        <ele>33.4</ele>
        <time>2016-07-07T20:16:27Z</time>
      </trkpt>
      <trkpt lat="59.201802851053" lon="17.825883708583">
        <ele>33.4</ele>
        <time>2016-07-07T20:16:29Z</time>
      </trkpt>
      <trkpt lat="59.201954898719" lon="17.825865855136">
        <ele>33.4</ele>
        <time>2016-07-07T20:16:31Z</time>
      </trkpt>
      <trkpt lat="59.202029665267" lon="17.825810534596">
        <ele>33.4</ele>
        <time>2016-07-07T20:16:32Z</time>
      </trkpt>
      <trkpt lat="59.202242397889" lon="17.825680698965">
        <ele>33.4</ele>
        <time>2016-07-07T20:16:35Z</time>
      </trkpt>
      <trkpt lat="59.202379190497" lon="17.825612721756">
        <ele>33.4</ele>
        <time>2016-07-07T20:16:37Z</time>
      </trkpt>
      <trkpt lat="59.202841033187" lon="17.825397306926">
        <ele>33.8</ele>
        <time>2016-07-07T20:16:45Z</time>
      </trkpt>
      <trkpt lat="59.202906412007" lon="17.825361180937">
        <ele>34.2</ele>
        <time>2016-07-07T20:16:46Z</time>
      </trkpt>
      <trkpt lat="59.202969695352" lon="17.825326060776">
        <ele>34.6</ele>
        <time>2016-07-07T20:16:47Z</time>
      </trkpt>
      <trkpt lat="59.203034990353" lon="17.825295047746">
        <ele>35</ele>
        <time>2016-07-07T20:16:48Z</time>
      </trkpt>
      <trkpt lat="59.2031031352" lon="17.825262777431">
        <ele>35.4</ele>
        <time>2016-07-07T20:16:49Z</time>
      </trkpt>
      <trkpt lat="59.203353921648" lon="17.825168481056">
        <ele>35.4</ele>
        <time>2016-07-07T20:16:53Z</time>
      </trkpt>
      <trkpt lat="59.203476800302" lon="17.82513545637">
        <ele>35.8</ele>
        <time>2016-07-07T20:16:55Z</time>
      </trkpt>
      <trkpt lat="59.203543939321" lon="17.825123637891">
        <ele>36.2</ele>
        <time>2016-07-07T20:16:56Z</time>
      </trkpt>
      <trkpt lat="59.203607055028" lon="17.825107293186">
        <ele>36.8</ele>
        <time>2016-07-07T20:16:57Z</time>
      </trkpt>
      <trkpt lat="59.203669835459" lon="17.825098073096">
        <ele>37.2</ele>
        <time>2016-07-07T20:16:58Z</time>
      </trkpt>
      <trkpt lat="59.203732867347" lon="17.825091954309">
        <ele>37.6</ele>
        <time>2016-07-07T20:16:59Z</time>
      </trkpt>
      <trkpt lat="59.20379631833" lon="17.825085416427">
        <ele>37.6</ele>
        <time>2016-07-07T20:17:00Z</time>
      </trkpt>
      <trkpt lat="59.204211306199" lon="17.82512791266">
        <ele>37.6</ele>
        <time>2016-07-07T20:17:07Z</time>
      </trkpt>
      <trkpt lat="59.204612631571" lon="17.825269818227">
        <ele>38</ele>
        <time>2016-07-07T20:17:14Z</time>
      </trkpt>
      <trkpt lat="59.204671304871" lon="17.825292868452">
        <ele>38.4</ele>
        <time>2016-07-07T20:17:15Z</time>
      </trkpt>
      <trkpt lat="59.204729726714" lon="17.825318433247">
        <ele>38.8</ele>
        <time>2016-07-07T20:17:16Z</time>
      </trkpt>
      <trkpt lat="59.204789070566" lon="17.825339639454">
        <ele>39.2</ele>
        <time>2016-07-07T20:17:17Z</time>
      </trkpt>
      <trkpt lat="59.204850006979" lon="17.825361683851">
        <ele>39.6</ele>
        <time>2016-07-07T20:17:18Z</time>
      </trkpt>
      <trkpt lat="59.205084700179" lon="17.825436031304">
        <ele>39.6</ele>
        <time>2016-07-07T20:17:22Z</time>
      </trkpt>
      <trkpt lat="59.205608988024" lon="17.8255855644">
        <ele>39.6</ele>
        <time>2016-07-07T20:17:31Z</time>
      </trkpt>
      <trkpt lat="59.205663721831" lon="17.825603753123">
        <ele>40</ele>
        <time>2016-07-07T20:17:32Z</time>
      </trkpt>
      <trkpt lat="59.205720970208" lon="17.825620014009">
        <ele>40.4</ele>
        <time>2016-07-07T20:17:33Z</time>
      </trkpt>
      <trkpt lat="59.205775201101" lon="17.825634766153">
        <ele>41</ele>
        <time>2016-07-07T20:17:34Z</time>
      </trkpt>
      <trkpt lat="59.205829851089" lon="17.825652703419">
        <ele>41.4</ele>
        <time>2016-07-07T20:17:35Z</time>
      </trkpt>
      <trkpt lat="59.205883998163" lon="17.825667455563">
        <ele>41.8</ele>
        <time>2016-07-07T20:17:36Z</time>
      </trkpt>
      <trkpt lat="59.206045265919" lon="17.825682291526">
        <ele>41.8</ele>
        <time>2016-07-07T20:17:39Z</time>
      </trkpt>
      <trkpt lat="59.206469138602" lon="17.825622947674">
        <ele>41.8</ele>
        <time>2016-07-07T20:17:47Z</time>
      </trkpt>
      <trkpt lat="59.20676854007" lon="17.825536781742">
        <ele>42.2</ele>
        <time>2016-07-07T20:17:53Z</time>
      </trkpt>
      <trkpt lat="59.206818412375" lon="17.825530998231">
        <ele>42.6</ele>
        <time>2016-07-07T20:17:54Z</time>
      </trkpt>
      <trkpt lat="59.206868452318" lon="17.825515072621">
        <ele>43</ele>
        <time>2016-07-07T20:17:55Z</time>
      </trkpt>
      <trkpt lat="59.206917402614" lon="17.82549839264">
        <ele>43.6</ele>
        <time>2016-07-07T20:17:56Z</time>
      </trkpt>
      <trkpt lat="59.206966101453" lon="17.825485484514">
        <ele>44</ele>
        <time>2016-07-07T20:17:57Z</time>
      </trkpt>
      <trkpt lat="59.207162908465" lon="17.825431505078">
        <ele>44</ele>
        <time>2016-07-07T20:18:01Z</time>
      </trkpt>
      <trkpt lat="59.207210685295" lon="17.825417507305">
        <ele>44.4</ele>
        <time>2016-07-07T20:18:02Z</time>
      </trkpt>
      <trkpt lat="59.207259300315" lon="17.825403509532">
        <ele>44.8</ele>
        <time>2016-07-07T20:18:03Z</time>
      </trkpt>
      <trkpt lat="59.20730414348" lon="17.825387500103">
        <ele>45.6</ele>
        <time>2016-07-07T20:18:04Z</time>
      </trkpt>
      <trkpt lat="59.20735108212" lon="17.825375933081">
        <ele>46</ele>
        <time>2016-07-07T20:18:05Z</time>
      </trkpt>
      <trkpt lat="59.207525844735" lon="17.825305860397">
        <ele>46.4</ele>
        <time>2016-07-07T20:18:09Z</time>
      </trkpt>
      <trkpt lat="59.207567670416" lon="17.825283983638">
        <ele>46.8</ele>
        <time>2016-07-07T20:18:10Z</time>
      </trkpt>
      <trkpt lat="59.207606646251" lon="17.825264956725">
        <ele>47.2</ele>
        <time>2016-07-07T20:18:11Z</time>
      </trkpt>
      <trkpt lat="59.207647717561" lon="17.825245594536">
        <ele>47.6</ele>
        <time>2016-07-07T20:18:12Z</time>
      </trkpt>
      <trkpt lat="59.207688705052" lon="17.825228411641">
        <ele>48</ele>
        <time>2016-07-07T20:18:13Z</time>
      </trkpt>
      <trkpt lat="59.207847709695" lon="17.825145598469">
        <ele>48.4</ele>
        <time>2016-07-07T20:18:17Z</time>
      </trkpt>
      <trkpt lat="59.20788836191" lon="17.82512120714">
        <ele>49</ele>
        <time>2016-07-07T20:18:18Z</time>
      </trkpt>
      <trkpt lat="59.207927589202" lon="17.825108718109">
        <ele>49.4</ele>
        <time>2016-07-07T20:18:19Z</time>
      </trkpt>
      <trkpt lat="59.207966816494" lon="17.825093043956">
        <ele>49.8</ele>
        <time>2016-07-07T20:18:20Z</time>
      </trkpt>
      <trkpt lat="59.208006965795" lon="17.825086338436">
        <ele>50.2</ele>
        <time>2016-07-07T20:18:21Z</time>
      </trkpt>
      <trkpt lat="59.208122468377" lon="17.825043506927">
        <ele>50.2</ele>
        <time>2016-07-07T20:18:24Z</time>
      </trkpt>
      <trkpt lat="59.2081658028" lon="17.825030431163">
        <ele>50.2</ele>
        <time>2016-07-07T20:18:25Z</time>
      </trkpt>
      <trkpt lat="59.208251130542" lon="17.824998747581">
        <ele>50.8</ele>
        <time>2016-07-07T20:18:27Z</time>
      </trkpt>
      <trkpt lat="59.208293794413" lon="17.824978044288">
        <ele>51.2</ele>
        <time>2016-07-07T20:18:28Z</time>
      </trkpt>
      <trkpt lat="59.208337212655" lon="17.824965136162">
        <ele>52</ele>
        <time>2016-07-07T20:18:29Z</time>
      </trkpt>
      <trkpt lat="59.208377278137" lon="17.824955832253">
        <ele>52.4</ele>
        <time>2016-07-07T20:18:30Z</time>
      </trkpt>
      <trkpt lat="59.208417175981" lon="17.824944181412">
        <ele>52.4</ele>
        <time>2016-07-07T20:18:31Z</time>
      </trkpt>
      <trkpt lat="59.208652875009" lon="17.824842676603">
        <ele>52.8</ele>
        <time>2016-07-07T20:18:37Z</time>
      </trkpt>
      <trkpt lat="59.20869134793" lon="17.824827337726">
        <ele>53.2</ele>
        <time>2016-07-07T20:18:38Z</time>
      </trkpt>
      <trkpt lat="59.20873074286" lon="17.824813339953">
        <ele>53.6</ele>
        <time>2016-07-07T20:18:39Z</time>
      </trkpt>
      <trkpt lat="59.208770640704" lon="17.824807640261">
        <ele>54</ele>
        <time>2016-07-07T20:18:40Z</time>
      </trkpt>
      <trkpt lat="59.208808862168" lon="17.824804958053">
        <ele>54.4</ele>
        <time>2016-07-07T20:18:41Z</time>
      </trkpt>
      <trkpt lat="59.208920844352" lon="17.824734047179">
        <ele>54.4</ele>
        <time>2016-07-07T20:18:44Z</time>
      </trkpt>
      <trkpt lat="59.208958059988" lon="17.82471803775">
        <ele>55</ele>
        <time>2016-07-07T20:18:45Z</time>
      </trkpt>
      <trkpt lat="59.208995359443" lon="17.824699010837">
        <ele>55.4</ele>
        <time>2016-07-07T20:18:46Z</time>
      </trkpt>
      <trkpt lat="59.209033077993" lon="17.824679061915">
        <ele>55.8</ele>
        <time>2016-07-07T20:18:47Z</time>
      </trkpt>
      <trkpt lat="59.209072975837" lon="17.824660789373">
        <ele>56.2</ele>
        <time>2016-07-07T20:18:48Z</time>
      </trkpt>
      <trkpt lat="59.209112622224" lon="17.824646037229">
        <ele>56.6</ele>
        <time>2016-07-07T20:18:49Z</time>
      </trkpt>
      <trkpt lat="59.209274895808" lon="17.824615108018">
        <ele>56.6</ele>
        <time>2016-07-07T20:18:53Z</time>
      </trkpt>
      <trkpt lat="59.209316218575" lon="17.824603038082">
        <ele>57</ele>
        <time>2016-07-07T20:18:54Z</time>
      </trkpt>
      <trkpt lat="59.209356954609" lon="17.824586944834">
        <ele>57.4</ele>
        <time>2016-07-07T20:18:55Z</time>
      </trkpt>
      <trkpt lat="59.209395259892" lon="17.824564229885">
        <ele>57.8</ele>
        <time>2016-07-07T20:18:56Z</time>
      </trkpt>
      <trkpt lat="59.209433397537" lon="17.824547717542">
        <ele>58.2</ele>
        <time>2016-07-07T20:18:57Z</time>
      </trkpt>
      <trkpt lat="59.209472373372" lon="17.824531540475">
        <ele>58.6</ele>
        <time>2016-07-07T20:18:58Z</time>
      </trkpt>
      <trkpt lat="59.209549403033" lon="17.824489463337">
        <ele>58.6</ele>
        <time>2016-07-07T20:19:00Z</time>
      </trkpt>
      <trkpt lat="59.209669850936" lon="17.82440958383">
        <ele>58.6</ele>
        <time>2016-07-07T20:19:03Z</time>
      </trkpt>
      <trkpt lat="59.2097583638" lon="17.824364740665">
        <ele>59</ele>
        <time>2016-07-07T20:19:05Z</time>
      </trkpt>
      <trkpt lat="59.209799518929" lon="17.824348731236">
        <ele>59.4</ele>
        <time>2016-07-07T20:19:06Z</time>
      </trkpt>
      <trkpt lat="59.209840254963" lon="17.824331464522">
        <ele>59.8</ele>
        <time>2016-07-07T20:19:07Z</time>
      </trkpt>
      <trkpt lat="59.209880990997" lon="17.824315874188">
        <ele>60.2</ele>
        <time>2016-07-07T20:19:08Z</time>
      </trkpt>
      <trkpt lat="59.209924409239" lon="17.824300451492">
        <ele>60.6</ele>
        <time>2016-07-07T20:19:09Z</time>
      </trkpt>
      <trkpt lat="59.210133370006" lon="17.824216297216">
        <ele>60.6</ele>
        <time>2016-07-07T20:19:14Z</time>
      </trkpt>
      <trkpt lat="59.210173938402" lon="17.824198695226">
        <ele>60.6</ele>
        <time>2016-07-07T20:19:15Z</time>
      </trkpt>
      <trkpt lat="59.210299583083" lon="17.824175309725">
        <ele>61.6</ele>
        <time>2016-07-07T20:19:18Z</time>
      </trkpt>
      <trkpt lat="59.210342330773" lon="17.824171789327">
        <ele>62</ele>
        <time>2016-07-07T20:19:19Z</time>
      </trkpt>
      <trkpt lat="59.210382480074" lon="17.82414890674">
        <ele>62.4</ele>
        <time>2016-07-07T20:19:20Z</time>
      </trkpt>
      <trkpt lat="59.210423970479" lon="17.824130801836">
        <ele>62.8</ele>
        <time>2016-07-07T20:19:21Z</time>
      </trkpt>
      <trkpt lat="59.210458084812" lon="17.824112948389">
        <ele>62.8</ele>
        <time>2016-07-07T20:19:22Z</time>
      </trkpt>
      <trkpt lat="59.21049848557" lon="17.824081097169">
        <ele>62.8</ele>
        <time>2016-07-07T20:19:23Z</time>
      </trkpt>
      <trkpt lat="59.210647934847" lon="17.824032146873">
        <ele>62.8</ele>
        <time>2016-07-07T20:19:26Z</time>
      </trkpt>
      <trkpt lat="59.210910958869" lon="17.823947908778">
        <ele>62.8</ele>
        <time>2016-07-07T20:19:31Z</time>
      </trkpt>
      <trkpt lat="59.211130313192" lon="17.823889403116">
        <ele>63.2</ele>
        <time>2016-07-07T20:19:35Z</time>
      </trkpt>
      <trkpt lat="59.211187142474" lon="17.823884625433">
        <ele>63.6</ele>
        <time>2016-07-07T20:19:36Z</time>
      </trkpt>
      <trkpt lat="59.211243887937" lon="17.823870795298">
        <ele>64</ele>
        <time>2016-07-07T20:19:37Z</time>
      </trkpt>
      <trkpt lat="59.211300968676" lon="17.823867358719">
        <ele>64.4</ele>
        <time>2016-07-07T20:19:38Z</time>
      </trkpt>
      <trkpt lat="59.211359222881" lon="17.823869621832">
        <ele>64.8</ele>
        <time>2016-07-07T20:19:39Z</time>
      </trkpt>
      <trkpt lat="59.211535158962" lon="17.823889151659">
        <ele>64.8</ele>
        <time>2016-07-07T20:19:42Z</time>
      </trkpt>
      <trkpt lat="59.211703970428" lon="17.823949333701">
        <ele>64.8</ele>
        <time>2016-07-07T20:19:45Z</time>
      </trkpt>
      <trkpt lat="59.212033295279" lon="17.824128538723">
        <ele>64.8</ele>
        <time>2016-07-07T20:19:51Z</time>
      </trkpt>
      <trkpt lat="59.212089202552" lon="17.824178494847">
        <ele>64.8</ele>
        <time>2016-07-07T20:19:52Z</time>
      </trkpt>
      <trkpt lat="59.212513578149" lon="17.824577976201">
        <ele>64.8</ele>
        <time>2016-07-07T20:19:59Z</time>
      </trkpt>
      <trkpt lat="59.212803927165" lon="17.825065132229">
        <ele>64.8</ele>
        <time>2016-07-07T20:20:04Z</time>
      </trkpt>
      <trkpt lat="59.213095617285" lon="17.8256526196">
        <ele>64.4</ele>
        <time>2016-07-07T20:20:09Z</time>
      </trkpt>
      <trkpt lat="59.213157056612" lon="17.82578673">
        <ele>63.8</ele>
        <time>2016-07-07T20:20:10Z</time>
      </trkpt>
      <trkpt lat="59.213218663577" lon="17.825921846228">
        <ele>63.4</ele>
        <time>2016-07-07T20:20:11Z</time>
      </trkpt>
      <trkpt lat="59.213284377673" lon="17.826068529478">
        <ele>62.6</ele>
        <time>2016-07-07T20:20:12Z</time>
      </trkpt>
      <trkpt lat="59.213350259407" lon="17.826209093941">
        <ele>62</ele>
        <time>2016-07-07T20:20:13Z</time>
      </trkpt>
      <trkpt lat="59.21341538677" lon="17.826352340612">
        <ele>61.2</ele>
        <time>2016-07-07T20:20:14Z</time>
      </trkpt>
      <trkpt lat="59.213483699255" lon="17.826498688586">
        <ele>60.6</ele>
        <time>2016-07-07T20:20:15Z</time>
      </trkpt>
      <trkpt lat="59.213553352844" lon="17.826644449827">
        <ele>60</ele>
        <time>2016-07-07T20:20:16Z</time>
      </trkpt>
      <trkpt lat="59.213617977293" lon="17.826797335683">
        <ele>59.2</ele>
        <time>2016-07-07T20:20:17Z</time>
      </trkpt>
      <trkpt lat="59.213687630882" lon="17.82694762315">
        <ele>58.6</ele>
        <time>2016-07-07T20:20:18Z</time>
      </trkpt>
      <trkpt lat="59.213762062154" lon="17.827109058544">
        <ele>58</ele>
        <time>2016-07-07T20:20:19Z</time>
      </trkpt>
      <trkpt lat="59.213837415435" lon="17.827249958283">
        <ele>57.4</ele>
        <time>2016-07-07T20:20:20Z</time>
      </trkpt>
      <trkpt lat="59.213912098164" lon="17.827396557714">
        <ele>56.8</ele>
        <time>2016-07-07T20:20:21Z</time>
      </trkpt>
      <trkpt lat="59.213982254667" lon="17.82755028176">
        <ele>56.2</ele>
        <time>2016-07-07T20:20:22Z</time>
      </trkpt>
      <trkpt lat="59.214054255188" lon="17.827707526204">
        <ele>55.4</ele>
        <time>2016-07-07T20:20:23Z</time>
      </trkpt>
      <trkpt lat="59.21412617189" lon="17.827864351553">
        <ele>54.8</ele>
        <time>2016-07-07T20:20:24Z</time>
      </trkpt>
      <trkpt lat="59.214194987289" lon="17.828021009264">
        <ele>54.2</ele>
        <time>2016-07-07T20:20:25Z</time>
      </trkpt>
      <trkpt lat="59.214266652534" lon="17.828176158233">
        <ele>53.6</ele>
        <time>2016-07-07T20:20:26Z</time>
      </trkpt>
      <trkpt lat="59.21433907215" lon="17.828338347998">
        <ele>52.8</ele>
        <time>2016-07-07T20:20:27Z</time>
      </trkpt>
      <trkpt lat="59.214485252486" lon="17.82860640116">
        <ele>52.8</ele>
        <time>2016-07-07T20:20:29Z</time>
      </trkpt>
      <trkpt lat="59.214637803066" lon="17.828738751361">
        <ele>52.8</ele>
        <time>2016-07-07T20:20:31Z</time>
      </trkpt>
      <trkpt lat="59.214848356394" lon="17.828766411631">
        <ele>52.8</ele>
        <time>2016-07-07T20:20:34Z</time>
      </trkpt>
      <trkpt lat="59.214921278924" lon="17.828908484836">
        <ele>52.8</ele>
        <time>2016-07-07T20:20:36Z</time>
      </trkpt>
      <trkpt lat="59.21501465329" lon="17.82891820784">
        <ele>52.8</ele>
        <time>2016-07-07T20:20:38Z</time>
      </trkpt>
      <trkpt lat="59.215132335166" lon="17.828911334682">
        <ele>52.8</ele>
        <time>2016-07-07T20:20:40Z</time>
      </trkpt>
      <trkpt lat="59.215190505552" lon="17.828922482609">
        <ele>52.8</ele>
        <time>2016-07-07T20:20:41Z</time>
      </trkpt>
      <trkpt lat="59.215316317871" lon="17.828942766807">
        <ele>52.8</ele>
        <time>2016-07-07T20:20:43Z</time>
      </trkpt>
      <trkpt lat="59.215431485177" lon="17.828993980216">
        <ele>52.8</ele>
        <time>2016-07-07T20:20:45Z</time>
      </trkpt>
      <trkpt lat="59.215544808465" lon="17.829083834184">
        <ele>52.8</ele>
        <time>2016-07-07T20:20:47Z</time>
      </trkpt>
      <trkpt lat="59.215850663996" lon="17.829288101087">
        <ele>52.8</ele>
        <time>2016-07-07T20:20:52Z</time>
      </trkpt>
      <trkpt lat="59.216239500337" lon="17.829464288625">
        <ele>52.8</ele>
        <time>2016-07-07T20:20:58Z</time>
      </trkpt>
      <trkpt lat="59.216381489723" lon="17.829314420253">
        <ele>52.8</ele>
        <time>2016-07-07T20:21:00Z</time>
      </trkpt>
      <trkpt lat="59.216442342317" lon="17.829203024802">
        <ele>52.4</ele>
        <time>2016-07-07T20:21:01Z</time>
      </trkpt>
      <trkpt lat="59.216501099436" lon="17.82908416946">
        <ele>51.8</ele>
        <time>2016-07-07T20:21:02Z</time>
      </trkpt>
      <trkpt lat="59.216564382781" lon="17.828966990498">
        <ele>51.4</ele>
        <time>2016-07-07T20:21:03Z</time>
      </trkpt>
      <trkpt lat="59.216628671954" lon="17.828847716061">
        <ele>50.6</ele>
        <time>2016-07-07T20:21:04Z</time>
      </trkpt>
      <trkpt lat="59.216693883136" lon="17.828719640629">
        <ele>50</ele>
        <time>2016-07-07T20:21:05Z</time>
      </trkpt>
      <trkpt lat="59.216760100146" lon="17.828639342027">
        <ele>49.2</ele>
        <time>2016-07-07T20:21:06Z</time>
      </trkpt>
      <trkpt lat="59.216821204197" lon="17.828592068111">
        <ele>48.6</ele>
        <time>2016-07-07T20:21:07Z</time>
      </trkpt>
      <trkpt lat="59.216894378184" lon="17.828582764202">
        <ele>47.8</ele>
        <time>2016-07-07T20:21:08Z</time>
      </trkpt>
      <trkpt lat="59.217102500761" lon="17.828892475407">
        <ele>47.8</ele>
        <time>2016-07-07T20:21:11Z</time>
      </trkpt>
      <trkpt lat="59.217160503509" lon="17.82904812729">
        <ele>47.8</ele>
        <time>2016-07-07T20:21:12Z</time>
      </trkpt>
      <trkpt lat="59.217348844802" lon="17.829427240627">
        <ele>47.8</ele>
        <time>2016-07-07T20:21:15Z</time>
      </trkpt>
      <trkpt lat="59.217422940798" lon="17.829506030487">
        <ele>47.8</ele>
        <time>2016-07-07T20:21:16Z</time>
      </trkpt>
      <trkpt lat="59.217831977518" lon="17.829859830486">
        <ele>47.4</ele>
        <time>2016-07-07T20:21:21Z</time>
      </trkpt>
      <trkpt lat="59.217907749894" lon="17.829933172111">
        <ele>47</ele>
        <time>2016-07-07T20:21:22Z</time>
      </trkpt>
      <trkpt lat="59.217977319664" lon="17.830011375238">
        <ele>46.6</ele>
        <time>2016-07-07T20:21:23Z</time>
      </trkpt>
      <trkpt lat="59.218041944113" lon="17.830115729893">
        <ele>46.2</ele>
        <time>2016-07-07T20:21:24Z</time>
      </trkpt>
      <trkpt lat="59.218101287965" lon="17.830203656024">
        <ele>45.8</ele>
        <time>2016-07-07T20:21:25Z</time>
      </trkpt>
      <trkpt lat="59.218382249253" lon="17.830613111839">
        <ele>45.8</ele>
        <time>2016-07-07T20:21:30Z</time>
      </trkpt>
      <trkpt lat="59.218704281851" lon="17.831023070568">
        <ele>45.8</ele>
        <time>2016-07-07T20:21:35Z</time>
      </trkpt>
      <trkpt lat="59.219199484503" lon="17.831678451329">
        <ele>46.2</ele>
        <time>2016-07-07T20:21:43Z</time>
      </trkpt>
      <trkpt lat="59.219255475595" lon="17.83176134832">
        <ele>46.6</ele>
        <time>2016-07-07T20:21:44Z</time>
      </trkpt>
      <trkpt lat="59.219298893837" lon="17.831858075446">
        <ele>47.2</ele>
        <time>2016-07-07T20:21:45Z</time>
      </trkpt>
      <trkpt lat="59.219332924351" lon="17.83197173401">
        <ele>48</ele>
        <time>2016-07-07T20:21:46Z</time>
      </trkpt>
      <trkpt lat="59.219367625417" lon="17.832091092266">
        <ele>48</ele>
        <time>2016-07-07T20:21:47Z</time>
      </trkpt>
      <trkpt lat="59.219457227928" lon="17.832320001955">
        <ele>48</ele>
        <time>2016-07-07T20:21:49Z</time>
      </trkpt>
      <trkpt lat="59.219574155433" lon="17.832477246399">
        <ele>48</ele>
        <time>2016-07-07T20:21:51Z</time>
      </trkpt>
      <trkpt lat="59.219784205847" lon="17.832596101741">
        <ele>48</ele>
        <time>2016-07-07T20:21:54Z</time>
      </trkpt>
      <trkpt lat="59.219858972395" lon="17.832609345143">
        <ele>48</ele>
        <time>2016-07-07T20:21:55Z</time>
      </trkpt>
      <trkpt lat="59.220068268438" lon="17.83256014339">
        <ele>48</ele>
        <time>2016-07-07T20:21:58Z</time>
      </trkpt>
      <trkpt lat="59.22013096505" lon="17.832530303826">
        <ele>48</ele>
        <time>2016-07-07T20:21:59Z</time>
      </trkpt>
      <trkpt lat="59.220374459245" lon="17.832449083215">
        <ele>48</ele>
        <time>2016-07-07T20:22:03Z</time>
      </trkpt>
      <trkpt lat="59.220431372346" lon="17.832482694634">
        <ele>48</ele>
        <time>2016-07-07T20:22:04Z</time>
      </trkpt>
      <trkpt lat="59.220481747565" lon="17.832552096766">
        <ele>48.4</ele>
        <time>2016-07-07T20:22:05Z</time>
      </trkpt>
      <trkpt lat="59.220524495255" lon="17.832633485015">
        <ele>48.8</ele>
        <time>2016-07-07T20:22:06Z</time>
      </trkpt>
      <trkpt lat="59.22056095652" lon="17.832728535761">
        <ele>49.2</ele>
        <time>2016-07-07T20:22:07Z</time>
      </trkpt>
      <trkpt lat="59.220597501604" lon="17.832826436353">
        <ele>49.6</ele>
        <time>2016-07-07T20:22:08Z</time>
      </trkpt>
      <trkpt lat="59.22063136448" lon="17.832933473216">
        <ele>50</ele>
        <time>2016-07-07T20:22:09Z</time>
      </trkpt>
      <trkpt lat="59.220685343916" lon="17.83314436182">
        <ele>50</ele>
        <time>2016-07-07T20:22:11Z</time>
      </trkpt>
      <trkpt lat="59.220716440765" lon="17.833250141398">
        <ele>50</ele>
        <time>2016-07-07T20:22:12Z</time>
      </trkpt>
      <trkpt lat="59.220853233373" lon="17.833544849002">
        <ele>50</ele>
        <time>2016-07-07T20:22:15Z</time>
      </trkpt>
      <trkpt lat="59.220908386275" lon="17.833635373522">
        <ele>50</ele>
        <time>2016-07-07T20:22:16Z</time>
      </trkpt>
      <trkpt lat="59.220969490326" lon="17.833716929409">
        <ele>50</ele>
        <time>2016-07-07T20:22:17Z</time>
      </trkpt>
      <trkpt lat="59.221180965663" lon="17.833892781671">
        <ele>50</ele>
        <time>2016-07-07T20:22:20Z</time>
      </trkpt>
      <trkpt lat="59.221250619252" lon="17.833942989252">
        <ele>50</ele>
        <time>2016-07-07T20:22:21Z</time>
      </trkpt>
      <trkpt lat="59.221453964146" lon="17.834149100173">
        <ele>50</ele>
        <time>2016-07-07T20:22:24Z</time>
      </trkpt>
      <trkpt lat="59.221522611907" lon="17.834236104295">
        <ele>50</ele>
        <time>2016-07-07T20:22:25Z</time>
      </trkpt>
      <trkpt lat="59.221594109514" lon="17.834340878045">
        <ele>49.6</ele>
        <time>2016-07-07T20:22:26Z</time>
      </trkpt>
      <trkpt lat="59.22166652913" lon="17.834441628483">
        <ele>49.2</ele>
        <time>2016-07-07T20:22:27Z</time>
      </trkpt>
      <trkpt lat="59.221739786936" lon="17.834531230994">
        <ele>48.6</ele>
        <time>2016-07-07T20:22:28Z</time>
      </trkpt>
      <trkpt lat="59.221813966751" lon="17.834615636727">
        <ele>48.2</ele>
        <time>2016-07-07T20:22:29Z</time>
      </trkpt>
      <trkpt lat="59.221889655308" lon="17.834693588397">
        <ele>47.8</ele>
        <time>2016-07-07T20:22:30Z</time>
      </trkpt>
      <trkpt lat="59.222362478287" lon="17.835179403321">
        <ele>46.8</ele>
        <time>2016-07-07T20:22:36Z</time>
      </trkpt>
      <trkpt lat="59.222442022518" lon="17.83526246795">
        <ele>46.4</ele>
        <time>2016-07-07T20:22:37Z</time>
      </trkpt>
      <trkpt lat="59.222521231473" lon="17.835346538407">
        <ele>46</ele>
        <time>2016-07-07T20:22:38Z</time>
      </trkpt>
      <trkpt lat="59.222601278618" lon="17.835427088466">
        <ele>45.6</ele>
        <time>2016-07-07T20:22:39Z</time>
      </trkpt>
      <trkpt lat="59.222998748316" lon="17.835818942291">
        <ele>45.6</ele>
        <time>2016-07-07T20:22:44Z</time>
      </trkpt>
      <trkpt lat="59.223484060326" lon="17.836317330065">
        <ele>45.6</ele>
        <time>2016-07-07T20:22:51Z</time>
      </trkpt>
      <trkpt lat="59.224106081125" lon="17.836969525704">
        <ele>45.6</ele>
        <time>2016-07-07T20:23:00Z</time>
      </trkpt>
      <trkpt lat="59.224522158641" lon="17.837360373701">
        <ele>45.6</ele>
        <time>2016-07-07T20:23:06Z</time>
      </trkpt>
      <trkpt lat="59.224579993751" lon="17.837426423073">
        <ele>45.6</ele>
        <time>2016-07-07T20:23:07Z</time>
      </trkpt>
      <trkpt lat="59.224747296475" lon="17.83764376574">
        <ele>45.6</ele>
        <time>2016-07-07T20:23:10Z</time>
      </trkpt>
      <trkpt lat="59.224865984179" lon="17.837797489786">
        <ele>46</ele>
        <time>2016-07-07T20:23:12Z</time>
      </trkpt>
      <trkpt lat="59.224919041606" lon="17.837869490307">
        <ele>46.4</ele>
        <time>2016-07-07T20:23:13Z</time>
      </trkpt>
      <trkpt lat="59.224975116517" lon="17.837936377869">
        <ele>46.8</ele>
        <time>2016-07-07T20:23:14Z</time>
      </trkpt>
      <trkpt lat="59.225037813129" lon="17.838004355078">
        <ele>47.2</ele>
        <time>2016-07-07T20:23:15Z</time>
      </trkpt>
      <trkpt lat="59.225106712347" lon="17.838056322858">
        <ele>47.6</ele>
        <time>2016-07-07T20:23:16Z</time>
      </trkpt>
      <trkpt lat="59.225301926798" lon="17.838230917835">
        <ele>47.6</ele>
        <time>2016-07-07T20:23:19Z</time>
      </trkpt>
      <trkpt lat="59.225419357217" lon="17.838324459839">
        <ele>47.6</ele>
        <time>2016-07-07T20:23:21Z</time>
      </trkpt>
      <trkpt lat="59.225791765034" lon="17.838692592887">
        <ele>47.6</ele>
        <time>2016-07-07T20:23:27Z</time>
      </trkpt>
      <trkpt lat="59.226182110117" lon="17.838957712384">
        <ele>47.6</ele>
        <time>2016-07-07T20:23:32Z</time>
      </trkpt>
      <trkpt lat="59.22635033485" lon="17.839046728162">
        <ele>47.2</ele>
        <time>2016-07-07T20:23:34Z</time>
      </trkpt>
      <trkpt lat="59.226427867425" lon="17.839092074241">
        <ele>46.8</ele>
        <time>2016-07-07T20:23:35Z</time>
      </trkpt>
      <trkpt lat="59.226503555982" lon="17.839145047849">
        <ele>46.4</ele>
        <time>2016-07-07T20:23:36Z</time>
      </trkpt>
      <trkpt lat="59.226578825444" lon="17.839188969005">
        <ele>45.8</ele>
        <time>2016-07-07T20:23:37Z</time>
      </trkpt>
      <trkpt lat="59.226651077422" lon="17.839228280116">
        <ele>45.4</ele>
        <time>2016-07-07T20:23:38Z</time>
      </trkpt>
      <trkpt lat="59.227079727788" lon="17.839448221172">
        <ele>45.4</ele>
        <time>2016-07-07T20:23:44Z</time>
      </trkpt>
      <trkpt lat="59.227263878131" lon="17.839554336026">
        <ele>45.8</ele>
        <time>2016-07-07T20:23:47Z</time>
      </trkpt>
      <trkpt lat="59.227312074056" lon="17.839587025436">
        <ele>46.2</ele>
        <time>2016-07-07T20:23:48Z</time>
      </trkpt>
      <trkpt lat="59.227357420135" lon="17.83962357052">
        <ele>46.6</ele>
        <time>2016-07-07T20:23:49Z</time>
      </trkpt>
      <trkpt lat="59.227411315752" lon="17.839665396201">
        <ele>47.4</ele>
        <time>2016-07-07T20:23:50Z</time>
      </trkpt>
      <trkpt lat="59.227474096183" lon="17.839695822498">
        <ele>47.4</ele>
        <time>2016-07-07T20:23:51Z</time>
      </trkpt>
      <trkpt lat="59.227614073913" lon="17.839783161896">
        <ele>47.4</ele>
        <time>2016-07-07T20:23:53Z</time>
      </trkpt>
      <trkpt lat="59.228076000422" lon="17.840074265283">
        <ele>48</ele>
        <time>2016-07-07T20:24:00Z</time>
      </trkpt>
      <trkpt lat="59.228129057849" lon="17.840028248652">
        <ele>48.4</ele>
        <time>2016-07-07T20:24:01Z</time>
      </trkpt>
      <trkpt lat="59.228168452779" lon="17.839934706648">
        <ele>48.8</ele>
        <time>2016-07-07T20:24:02Z</time>
      </trkpt>
      <trkpt lat="59.228201561284" lon="17.839830351993">
        <ele>49.2</ele>
        <time>2016-07-07T20:24:03Z</time>
      </trkpt>
      <trkpt lat="59.228228048088" lon="17.839709484995">
        <ele>49.6</ele>
        <time>2016-07-07T20:24:04Z</time>
      </trkpt>
      <trkpt lat="59.228251517408" lon="17.839584678504">
        <ele>49.6</ele>
        <time>2016-07-07T20:24:05Z</time>
      </trkpt>
      <trkpt lat="59.22828152461" lon="17.839346045811">
        <ele>49.6</ele>
        <time>2016-07-07T20:24:07Z</time>
      </trkpt>
      <trkpt lat="59.228317315323" lon="17.838979086229">
        <ele>49.6</ele>
        <time>2016-07-07T20:24:10Z</time>
      </trkpt>
      <trkpt lat="59.22835109438" lon="17.8382673791">
        <ele>49.6</ele>
        <time>2016-07-07T20:24:16Z</time>
      </trkpt>
      <trkpt lat="59.228358721909" lon="17.837934366213">
        <ele>50.2</ele>
        <time>2016-07-07T20:24:19Z</time>
      </trkpt>
      <trkpt lat="59.228359727737" lon="17.837827664626">
        <ele>50.6</ele>
        <time>2016-07-07T20:24:20Z</time>
      </trkpt>
      <trkpt lat="59.228358889547" lon="17.837713000234">
        <ele>51</ele>
        <time>2016-07-07T20:24:21Z</time>
      </trkpt>
      <trkpt lat="59.228358135176" lon="17.837605628095">
        <ele>51.4</ele>
        <time>2016-07-07T20:24:22Z</time>
      </trkpt>
      <trkpt lat="59.228360398289" lon="17.837492807721">
        <ele>51.8</ele>
        <time>2016-07-07T20:24:23Z</time>
      </trkpt>
      <trkpt lat="59.228360230651" lon="17.837377724234">
        <ele>51.8</ele>
        <time>2016-07-07T20:24:24Z</time>
      </trkpt>
      <trkpt lat="59.228373893148" lon="17.836681691258">
        <ele>52.4</ele>
        <time>2016-07-07T20:24:30Z</time>
      </trkpt>
      <trkpt lat="59.228379509021" lon="17.836566775409">
        <ele>52.8</ele>
        <time>2016-07-07T20:24:31Z</time>
      </trkpt>
      <trkpt lat="59.228390824586" lon="17.836458732718">
        <ele>53.4</ele>
        <time>2016-07-07T20:24:32Z</time>
      </trkpt>
      <trkpt lat="59.228397027192" lon="17.83635127676">
        <ele>54</ele>
        <time>2016-07-07T20:24:33Z</time>
      </trkpt>
      <trkpt lat="59.228403732712" lon="17.83624650301">
        <ele>54.4</ele>
        <time>2016-07-07T20:24:34Z</time>
      </trkpt>
      <trkpt lat="59.22843491338" lon="17.835750126892">
        <ele>55.2</ele>
        <time>2016-07-07T20:24:39Z</time>
      </trkpt>
      <trkpt lat="59.22844245709" lon="17.83565306449">
        <ele>55.6</ele>
        <time>2016-07-07T20:24:40Z</time>
      </trkpt>
      <trkpt lat="59.228454610845" lon="17.835552649328">
        <ele>56</ele>
        <time>2016-07-07T20:24:41Z</time>
      </trkpt>
      <trkpt lat="59.228465339677" lon="17.835451312157">
        <ele>56.4</ele>
        <time>2016-07-07T20:24:42Z</time>
      </trkpt>
      <trkpt lat="59.228503561141" lon="17.835146546273">
        <ele>56.4</ele>
        <time>2016-07-07T20:24:45Z</time>
      </trkpt>
      <trkpt lat="59.228526108452" lon="17.835053842459">
        <ele>56.4</ele>
        <time>2016-07-07T20:24:46Z</time>
      </trkpt>
      <trkpt lat="59.228625517786" lon="17.834791153713">
        <ele>56.4</ele>
        <time>2016-07-07T20:24:49Z</time>
      </trkpt>
      <trkpt lat="59.228673629892" lon="17.834724769065">
        <ele>56.4</ele>
        <time>2016-07-07T20:24:50Z</time>
      </trkpt>
      <trkpt lat="59.228905221789" lon="17.834627036111">
        <ele>56.4</ele>
        <time>2016-07-07T20:24:54Z</time>
      </trkpt>
      <trkpt lat="59.229030195918" lon="17.834634579821">
        <ele>56.4</ele>
        <time>2016-07-07T20:24:56Z</time>
      </trkpt>
      <trkpt lat="59.229292297931" lon="17.8347050716">
        <ele>56.4</ele>
        <time>2016-07-07T20:25:00Z</time>
      </trkpt>
      <trkpt lat="59.229833936309" lon="17.834853934144">
        <ele>56.4</ele>
        <time>2016-07-07T20:25:08Z</time>
      </trkpt>
      <trkpt lat="59.23041220359" lon="17.835043616541">
        <ele>56.4</ele>
        <time>2016-07-07T20:25:17Z</time>
      </trkpt>
      <trkpt lat="59.230787545072" lon="17.835190215972">
        <ele>56.4</ele>
        <time>2016-07-07T20:25:23Z</time>
      </trkpt>
      <trkpt lat="59.23122273332" lon="17.835238914811">
        <ele>56.4</ele>
        <time>2016-07-07T20:25:30Z</time>
      </trkpt>
      <trkpt lat="59.231529259403" lon="17.835031881881">
        <ele>56.4</ele>
        <time>2016-07-07T20:25:35Z</time>
      </trkpt>
      <trkpt lat="59.231642415053" lon="17.834891652694">
        <ele>56</ele>
        <time>2016-07-07T20:25:37Z</time>
      </trkpt>
      <trkpt lat="59.231693879919" lon="17.834809510074">
        <ele>55.6</ele>
        <time>2016-07-07T20:25:38Z</time>
      </trkpt>
      <trkpt lat="59.231740818559" lon="17.834716554803">
        <ele>55.2</ele>
        <time>2016-07-07T20:25:39Z</time>
      </trkpt>
      <trkpt lat="59.231787589561" lon="17.834624856817">
        <ele>54.6</ele>
        <time>2016-07-07T20:25:40Z</time>
      </trkpt>
      <trkpt lat="59.231833019459" lon="17.834530979537">
        <ele>54.2</ele>
        <time>2016-07-07T20:25:41Z</time>
      </trkpt>
      <trkpt lat="59.232125966864" lon="17.833923375606">
        <ele>54.2</ele>
        <time>2016-07-07T20:25:47Z</time>
      </trkpt>
      <trkpt lat="59.232281786385" lon="17.833637971911">
        <ele>53.8</ele>
        <time>2016-07-07T20:25:50Z</time>
      </trkpt>
      <trkpt lat="59.232335514364" lon="17.83353328198">
        <ele>53.4</ele>
        <time>2016-07-07T20:25:51Z</time>
      </trkpt>
      <trkpt lat="59.232385554307" lon="17.833433621189">
        <ele>53</ele>
        <time>2016-07-07T20:25:52Z</time>
      </trkpt>
      <trkpt lat="59.232435845707" lon="17.833328595982">
        <ele>52.2</ele>
        <time>2016-07-07T20:25:53Z</time>
      </trkpt>
      <trkpt lat="59.232484712184" lon="17.833222397309">
        <ele>52.2</ele>
        <time>2016-07-07T20:25:54Z</time>
      </trkpt>
      <trkpt lat="59.232819233813" lon="17.83249979371">
        <ele>52.2</ele>
        <time>2016-07-07T20:26:01Z</time>
      </trkpt>
      <trkpt lat="59.233207315783" lon="17.83175129004">
        <ele>52.2</ele>
        <time>2016-07-07T20:26:09Z</time>
      </trkpt>
      <trkpt lat="59.233549129665" lon="17.831035224323">
        <ele>52.2</ele>
        <time>2016-07-07T20:26:16Z</time>
      </trkpt>
      <trkpt lat="59.233812237506" lon="17.830510852659">
        <ele>51.8</ele>
        <time>2016-07-07T20:26:21Z</time>
      </trkpt>
      <trkpt lat="59.233867725684" lon="17.830405492176">
        <ele>51.2</ele>
        <time>2016-07-07T20:26:22Z</time>
      </trkpt>
      <trkpt lat="59.23392002874" lon="17.830300215512">
        <ele>50.8</ele>
        <time>2016-07-07T20:26:23Z</time>
      </trkpt>
      <trkpt lat="59.233968224665" lon="17.830199967988">
        <ele>50.2</ele>
        <time>2016-07-07T20:26:24Z</time>
      </trkpt>
      <trkpt lat="59.234018348427" lon="17.830096870618">
        <ele>49.6</ele>
        <time>2016-07-07T20:26:25Z</time>
      </trkpt>
      <trkpt lat="59.234069813293" lon="17.829995868723">
        <ele>49</ele>
        <time>2016-07-07T20:26:26Z</time>
      </trkpt>
      <trkpt lat="59.234123205996" lon="17.829892855172">
        <ele>48.6</ele>
        <time>2016-07-07T20:26:27Z</time>
      </trkpt>
      <trkpt lat="59.234181124925" lon="17.829782717006">
        <ele>48</ele>
        <time>2016-07-07T20:26:28Z</time>
      </trkpt>
      <trkpt lat="59.234386732932" lon="17.8293490375">
        <ele>48</ele>
        <time>2016-07-07T20:26:32Z</time>
      </trkpt>
      <trkpt lat="59.234671298437" lon="17.828825587845">
        <ele>48</ele>
        <time>2016-07-07T20:26:37Z</time>
      </trkpt>
      <trkpt lat="59.234740281474" lon="17.828735147144">
        <ele>48</ele>
        <time>2016-07-07T20:26:38Z</time>
      </trkpt>
      <trkpt lat="59.234974974674" lon="17.828609837739">
        <ele>48</ele>
        <time>2016-07-07T20:26:41Z</time>
      </trkpt>
      <trkpt lat="59.235128363444" lon="17.828614112508">
        <ele>48</ele>
        <time>2016-07-07T20:26:43Z</time>
      </trkpt>
      <trkpt lat="59.235269430821" lon="17.828612771404">
        <ele>48</ele>
        <time>2016-07-07T20:26:45Z</time>
      </trkpt>
      <trkpt lat="59.235746360931" lon="17.828635570172">
        <ele>48</ele>
        <time>2016-07-07T20:26:52Z</time>
      </trkpt>
      <trkpt lat="59.236264362351" lon="17.828667672849">
        <ele>48</ele>
        <time>2016-07-07T20:27:00Z</time>
      </trkpt>
      <trkpt lat="59.236447590685" lon="17.828668175763">
        <ele>48.4</ele>
        <time>2016-07-07T20:27:03Z</time>
      </trkpt>
      <trkpt lat="59.236512047496" lon="17.828664403908">
        <ele>48.8</ele>
        <time>2016-07-07T20:27:04Z</time>
      </trkpt>
      <trkpt lat="59.236577174859" lon="17.828662056976">
        <ele>49.2</ele>
        <time>2016-07-07T20:27:05Z</time>
      </trkpt>
      <trkpt lat="59.23664498443" lon="17.828659710044">
        <ele>49.6</ele>
        <time>2016-07-07T20:27:06Z</time>
      </trkpt>
      <trkpt lat="59.236713883648" lon="17.828653255981">
        <ele>50.2</ele>
        <time>2016-07-07T20:27:07Z</time>
      </trkpt>
      <trkpt lat="59.236970621245" lon="17.828653088343">
        <ele>50.2</ele>
        <time>2016-07-07T20:27:11Z</time>
      </trkpt>
      <trkpt lat="59.237037592626" lon="17.828657195474">
        <ele>50.2</ele>
        <time>2016-07-07T20:27:12Z</time>
      </trkpt>
      <trkpt lat="59.23722165915" lon="17.828682341174">
        <ele>50.6</ele>
        <time>2016-07-07T20:27:15Z</time>
      </trkpt>
      <trkpt lat="59.237284607219" lon="17.828690723074">
        <ele>51</ele>
        <time>2016-07-07T20:27:16Z</time>
      </trkpt>
      <trkpt lat="59.237341268863" lon="17.828681335346">
        <ele>51.4</ele>
        <time>2016-07-07T20:27:17Z</time>
      </trkpt>
      <trkpt lat="59.237397595231" lon="17.828689298151">
        <ele>51.8</ele>
        <time>2016-07-07T20:27:18Z</time>
      </trkpt>
      <trkpt lat="59.237451742305" lon="17.82870782215">
        <ele>52.2</ele>
        <time>2016-07-07T20:27:19Z</time>
      </trkpt>
      <trkpt lat="59.23750832013" lon="17.82872710052">
        <ele>52.2</ele>
        <time>2016-07-07T20:27:20Z</time>
      </trkpt>
      <trkpt lat="59.237559868815" lon="17.82874637889">
        <ele>52.8</ele>
        <time>2016-07-07T20:27:21Z</time>
      </trkpt>
      <trkpt lat="59.237613764432" lon="17.828766579269">
        <ele>53.2</ele>
        <time>2016-07-07T20:27:22Z</time>
      </trkpt>
      <trkpt lat="59.237661289805" lon="17.828805136009">
        <ele>53.6</ele>
        <time>2016-07-07T20:27:23Z</time>
      </trkpt>
      <trkpt lat="59.237702444934" lon="17.828848302794">
        <ele>54.2</ele>
        <time>2016-07-07T20:27:24Z</time>
      </trkpt>
      <trkpt lat="59.237736391629" lon="17.828895325253">
        <ele>54.6</ele>
        <time>2016-07-07T20:27:25Z</time>
      </trkpt>
      <trkpt lat="59.237768326668" lon="17.828962883367">
        <ele>55</ele>
        <time>2016-07-07T20:27:26Z</time>
      </trkpt>
      <trkpt lat="59.237800513164" lon="17.829027507816">
        <ele>55.4</ele>
        <time>2016-07-07T20:27:27Z</time>
      </trkpt>
      <trkpt lat="59.237830771823" lon="17.829105459486">
        <ele>55.8</ele>
        <time>2016-07-07T20:27:28Z</time>
      </trkpt>
      <trkpt lat="59.237860779025" lon="17.829188356477">
        <ele>56.2</ele>
        <time>2016-07-07T20:27:29Z</time>
      </trkpt>
      <trkpt lat="59.237886092363" lon="17.829274773866">
        <ele>56.6</ele>
        <time>2016-07-07T20:27:30Z</time>
      </trkpt>
      <trkpt lat="59.237906544199" lon="17.829372171544">
        <ele>56.6</ele>
        <time>2016-07-07T20:27:31Z</time>
      </trkpt>
      <trkpt lat="59.23799195576" lon="17.829615079006">
        <ele>56.6</ele>
        <time>2016-07-07T20:27:34Z</time>
      </trkpt>
      <trkpt lat="59.238049036499" lon="17.829542072657">
        <ele>56.6</ele>
        <time>2016-07-07T20:27:36Z</time>
      </trkpt>
      <trkpt lat="59.23805398182" lon="17.829310899855">
        <ele>56.6</ele>
        <time>2016-07-07T20:27:39Z</time>
      </trkpt>
      <trkpt lat="59.238065381204" lon="17.829023233047">
        <ele>56.6</ele>
        <time>2016-07-07T20:27:42Z</time>
      </trkpt>
      <trkpt lat="59.238088934343" lon="17.828919548944">
        <ele>56.6</ele>
        <time>2016-07-07T20:27:43Z</time>
      </trkpt>
      <trkpt lat="59.238194881559" lon="17.828719724448">
        <ele>56.6</ele>
        <time>2016-07-07T20:27:46Z</time>
      </trkpt>
      <trkpt lat="59.23830208606" lon="17.828686280667">
        <ele>56.6</ele>
        <time>2016-07-07T20:27:48Z</time>
      </trkpt>
      <trkpt lat="59.238396214797" lon="17.828650154678">
        <ele>57.2</ele>
        <time>2016-07-07T20:27:50Z</time>
      </trkpt>
      <trkpt lat="59.238435945003" lon="17.828636073086">
        <ele>57.6</ele>
        <time>2016-07-07T20:27:51Z</time>
      </trkpt>
      <trkpt lat="59.23848062053" lon="17.828607658445">
        <ele>58</ele>
        <time>2016-07-07T20:27:52Z</time>
      </trkpt>
      <trkpt lat="59.238517919985" lon="17.828578237976">
        <ele>58.4</ele>
        <time>2016-07-07T20:27:53Z</time>
      </trkpt>
      <trkpt lat="59.238558153105" lon="17.828560971262">
        <ele>58.8</ele>
        <time>2016-07-07T20:27:54Z</time>
      </trkpt>
      <trkpt lat="59.238594698189" lon="17.828543033996">
        <ele>59.4</ele>
        <time>2016-07-07T20:27:55Z</time>
      </trkpt>
      <trkpt lat="59.238635518042" lon="17.828518642667">
        <ele>59.8</ele>
        <time>2016-07-07T20:27:56Z</time>
      </trkpt>
      <trkpt lat="59.238687821098" lon="17.828498190831">
        <ele>60.8</ele>
        <time>2016-07-07T20:27:57Z</time>
      </trkpt>
      <trkpt lat="59.238731909892" lon="17.828479750651">
        <ele>61.4</ele>
        <time>2016-07-07T20:27:58Z</time>
      </trkpt>
      <trkpt lat="59.238811454123" lon="17.828444295214">
        <ele>61.8</ele>
        <time>2016-07-07T20:28:00Z</time>
      </trkpt>
      <trkpt lat="59.238853698899" lon="17.82842032298">
        <ele>62.2</ele>
        <time>2016-07-07T20:28:01Z</time>
      </trkpt>
      <trkpt lat="59.238895608399" lon="17.828406157569">
        <ele>62.6</ele>
        <time>2016-07-07T20:28:02Z</time>
      </trkpt>
      <trkpt lat="59.238939194279" lon="17.828381598602">
        <ele>63</ele>
        <time>2016-07-07T20:28:03Z</time>
      </trkpt>
      <trkpt lat="59.238985881462" lon="17.828355195617">
        <ele>63.4</ele>
        <time>2016-07-07T20:28:04Z</time>
      </trkpt>
      <trkpt lat="59.23903717869" lon="17.828331055745">
        <ele>63.4</ele>
        <time>2016-07-07T20:28:05Z</time>
      </trkpt>
      <trkpt lat="59.239396846019" lon="17.828167943971">
        <ele>63.4</ele>
        <time>2016-07-07T20:28:11Z</time>
      </trkpt>
      <trkpt lat="59.239554090463" lon="17.828095608174">
        <ele>62.8</ele>
        <time>2016-07-07T20:28:13Z</time>
      </trkpt>
      <trkpt lat="59.239633550875" lon="17.828057470529">
        <ele>62.4</ele>
        <time>2016-07-07T20:28:14Z</time>
      </trkpt>
      <trkpt lat="59.239717872789" lon="17.828019584341">
        <ele>61.8</ele>
        <time>2016-07-07T20:28:15Z</time>
      </trkpt>
      <trkpt lat="59.239807140024" lon="17.827978680669">
        <ele>61</ele>
        <time>2016-07-07T20:28:16Z</time>
      </trkpt>
      <trkpt lat="59.239892216309" lon="17.827935513884">
        <ele>60.4</ele>
        <time>2016-07-07T20:28:17Z</time>
      </trkpt>
      <trkpt lat="59.239966815219" lon="17.827892682375">
        <ele>59.8</ele>
        <time>2016-07-07T20:28:18Z</time>
      </trkpt>
      <trkpt lat="59.240034960066" lon="17.827851862522">
        <ele>59</ele>
        <time>2016-07-07T20:28:19Z</time>
      </trkpt>
      <trkpt lat="59.240101512352" lon="17.827823447881">
        <ele>58.4</ele>
        <time>2016-07-07T20:28:20Z</time>
      </trkpt>
      <trkpt lat="59.240163957507" lon="17.827799056552">
        <ele>58.4</ele>
        <time>2016-07-07T20:28:21Z</time>
      </trkpt>
      <trkpt lat="59.240222882264" lon="17.827788662996">
        <ele>58.4</ele>
        <time>2016-07-07T20:28:22Z</time>
      </trkpt>
      <trkpt lat="59.240328997118" lon="17.827725966384">
        <ele>58.8</ele>
        <time>2016-07-07T20:28:24Z</time>
      </trkpt>
      <trkpt lat="59.240375851939" lon="17.827679530658">
        <ele>59.2</ele>
        <time>2016-07-07T20:28:25Z</time>
      </trkpt>
      <trkpt lat="59.240411391195" lon="17.827644578135">
        <ele>59.6</ele>
        <time>2016-07-07T20:28:26Z</time>
      </trkpt>
      <trkpt lat="59.240458246016" lon="17.827637537339">
        <ele>60</ele>
        <time>2016-07-07T20:28:27Z</time>
      </trkpt>
      <trkpt lat="59.240503005362" lon="17.827621779367">
        <ele>60.4</ele>
        <time>2016-07-07T20:28:28Z</time>
      </trkpt>
      <trkpt lat="59.240549189631" lon="17.82760895506">
        <ele>60.8</ele>
        <time>2016-07-07T20:28:29Z</time>
      </trkpt>
      <trkpt lat="59.240578945376" lon="17.827683637789">
        <ele>61.2</ele>
        <time>2016-07-07T20:28:30Z</time>
      </trkpt>
      <trkpt lat="59.240572575132" lon="17.827745160935">
        <ele>61.8</ele>
        <time>2016-07-07T20:28:31Z</time>
      </trkpt>
      <trkpt lat="59.240572407494" lon="17.827816071809">
        <ele>62.2</ele>
        <time>2016-07-07T20:28:32Z</time>
      </trkpt>
      <trkpt lat="59.240566623983" lon="17.827888156149">
        <ele>62.6</ele>
        <time>2016-07-07T20:28:33Z</time>
      </trkpt>
      <trkpt lat="59.240561427205" lon="17.827977339565">
        <ele>62.6</ele>
        <time>2016-07-07T20:28:34Z</time>
      </trkpt>
      <trkpt lat="59.240557487712" lon="17.828078006184">
        <ele>62.6</ele>
        <time>2016-07-07T20:28:35Z</time>
      </trkpt>
      <trkpt lat="59.240499904059" lon="17.828597851622">
        <ele>62.6</ele>
        <time>2016-07-07T20:28:39Z</time>
      </trkpt>
      <trkpt lat="59.240386999866" lon="17.829687582441">
        <ele>62.6</ele>
        <time>2016-07-07T20:28:47Z</time>
      </trkpt>
      <trkpt lat="59.240384317658" lon="17.829831164388">
        <ele>62.6</ele>
        <time>2016-07-07T20:28:48Z</time>
      </trkpt>
      <trkpt lat="59.240376438672" lon="17.830575393289">
        <ele>62.6</ele>
        <time>2016-07-07T20:28:53Z</time>
      </trkpt>
      <trkpt lat="59.240364704012" lon="17.831727736901">
        <ele>62.6</ele>
        <time>2016-07-07T20:29:00Z</time>
      </trkpt>
      <trkpt lat="59.240361854166" lon="17.831915323823">
        <ele>62.2</ele>
        <time>2016-07-07T20:29:01Z</time>
      </trkpt>
      <trkpt lat="59.240359339596" lon="17.832105257677">
        <ele>61.8</ele>
        <time>2016-07-07T20:29:02Z</time>
      </trkpt>
      <trkpt lat="59.240362524718" lon="17.832298711929">
        <ele>61.4</ele>
        <time>2016-07-07T20:29:03Z</time>
      </trkpt>
      <trkpt lat="59.240359339596" lon="17.832489400154">
        <ele>60.8</ele>
        <time>2016-07-07T20:29:04Z</time>
      </trkpt>
      <trkpt lat="59.240362943813" lon="17.832671874117">
        <ele>60.4</ele>
        <time>2016-07-07T20:29:05Z</time>
      </trkpt>
      <trkpt lat="59.240371325713" lon="17.832836326995">
        <ele>60.4</ele>
        <time>2016-07-07T20:29:06Z</time>
      </trkpt>
      <trkpt lat="59.24037995907" lon="17.833660519222">
        <ele>60.4</ele>
        <time>2016-07-07T20:29:11Z</time>
      </trkpt>
      <trkpt lat="59.240322878331" lon="17.833791360681">
        <ele>60.4</ele>
        <time>2016-07-07T20:29:12Z</time>
      </trkpt>
      <trkpt lat="59.240099668334" lon="17.834072573426">
        <ele>60.4</ele>
        <time>2016-07-07T20:29:15Z</time>
      </trkpt>
      <trkpt lat="59.240036720265" lon="17.834187489275">
        <ele>60.8</ele>
        <time>2016-07-07T20:29:16Z</time>
      </trkpt>
      <trkpt lat="59.239975783852" lon="17.834323527512">
        <ele>61.4</ele>
        <time>2016-07-07T20:29:17Z</time>
      </trkpt>
      <trkpt lat="59.239932197972" lon="17.834492087521">
        <ele>61.8</ele>
        <time>2016-07-07T20:29:18Z</time>
      </trkpt>
      <trkpt lat="59.239914847439" lon="17.834676237864">
        <ele>62.2</ele>
        <time>2016-07-07T20:29:19Z</time>
      </trkpt>
      <trkpt lat="59.239926749737" lon="17.83485929856">
        <ele>62.6</ele>
        <time>2016-07-07T20:29:20Z</time>
      </trkpt>
      <trkpt lat="59.240039486292" lon="17.835165908462">
        <ele>62.2</ele>
        <time>2016-07-07T20:29:22Z</time>
      </trkpt>
      <trkpt lat="59.240122215645" lon="17.835273783515">
        <ele>61.6</ele>
        <time>2016-07-07T20:29:23Z</time>
      </trkpt>
      <trkpt lat="59.240195808727" lon="17.835385598061">
        <ele>61.2</ele>
        <time>2016-07-07T20:29:24Z</time>
      </trkpt>
      <trkpt lat="59.240264121212" lon="17.835520714289">
        <ele>60.8</ele>
        <time>2016-07-07T20:29:25Z</time>
      </trkpt>
      <trkpt lat="59.240332349878" lon="17.835672594317">
        <ele>60.4</ele>
        <time>2016-07-07T20:29:26Z</time>
      </trkpt>
      <trkpt lat="59.240464197165" lon="17.83602019171">
        <ele>60.4</ele>
        <time>2016-07-07T20:29:28Z</time>
      </trkpt>
      <trkpt lat="59.240550279278" lon="17.836162516372">
        <ele>60.4</ele>
        <time>2016-07-07T20:29:29Z</time>
      </trkpt>
      <trkpt lat="59.240732166508" lon="17.836450350818">
        <ele>60</ele>
        <time>2016-07-07T20:29:31Z</time>
      </trkpt>
      <trkpt lat="59.240825289417" lon="17.836586305236">
        <ele>59.6</ele>
        <time>2016-07-07T20:29:32Z</time>
      </trkpt>
      <trkpt lat="59.240923273828" lon="17.836720499455">
        <ele>59</ele>
        <time>2016-07-07T20:29:33Z</time>
      </trkpt>
      <trkpt lat="59.241023772809" lon="17.836851005638">
        <ele>58.4</ele>
        <time>2016-07-07T20:29:34Z</time>
      </trkpt>
      <trkpt lat="59.241129468568" lon="17.836973800473">
        <ele>56.8</ele>
        <time>2016-07-07T20:29:35Z</time>
      </trkpt>
      <trkpt lat="59.241239020001" lon="17.837085698838">
        <ele>56</ele>
        <time>2016-07-07T20:29:36Z</time>
      </trkpt>
      <trkpt lat="59.241349577262" lon="17.837189969674">
        <ele>55</ele>
        <time>2016-07-07T20:29:37Z</time>
      </trkpt>
      <trkpt lat="59.241470695717" lon="17.837305472256">
        <ele>54.2</ele>
        <time>2016-07-07T20:29:38Z</time>
      </trkpt>
      <trkpt lat="59.241588209955" lon="17.837410329825">
        <ele>53.4</ele>
        <time>2016-07-07T20:29:39Z</time>
      </trkpt>
      <trkpt lat="59.241706143288" lon="17.837521976733">
        <ele>52.8</ele>
        <time>2016-07-07T20:29:40Z</time>
      </trkpt>
      <trkpt lat="59.241824328078" lon="17.837632701632">
        <ele>52.2</ele>
        <time>2016-07-07T20:29:41Z</time>
      </trkpt>
      <trkpt lat="59.24194402161" lon="17.83773429026">
        <ele>51.4</ele>
        <time>2016-07-07T20:29:42Z</time>
      </trkpt>
      <trkpt lat="59.242063631323" lon="17.837831268843">
        <ele>50.4</ele>
        <time>2016-07-07T20:29:43Z</time>
      </trkpt>
      <trkpt lat="59.24219464042" lon="17.837923972657">
        <ele>49.4</ele>
        <time>2016-07-07T20:29:44Z</time>
      </trkpt>
      <trkpt lat="59.242320871834" lon="17.838010473865">
        <ele>48.6</ele>
        <time>2016-07-07T20:29:45Z</time>
      </trkpt>
      <trkpt lat="59.242443415212" lon="17.838085156594">
        <ele>47.4</ele>
        <time>2016-07-07T20:29:46Z</time>
      </trkpt>
      <trkpt lat="59.242566880599" lon="17.838157073296">
        <ele>46.4</ele>
        <time>2016-07-07T20:29:47Z</time>
      </trkpt>
      <trkpt lat="59.242682550819" lon="17.838241059934">
        <ele>45.4</ele>
        <time>2016-07-07T20:29:48Z</time>
      </trkpt>
      <trkpt lat="59.242799143048" lon="17.838340888363">
        <ele>44.4</ele>
        <time>2016-07-07T20:29:49Z</time>
      </trkpt>
      <trkpt lat="59.242919842408" lon="17.838419342947">
        <ele>43.2</ele>
        <time>2016-07-07T20:29:50Z</time>
      </trkpt>
      <trkpt lat="59.243352599905" lon="17.838693933991">
        <ele>43.2</ele>
        <time>2016-07-07T20:29:54Z</time>
      </trkpt>
      <trkpt lat="59.243757110399" lon="17.838934829797">
        <ele>42.8</ele>
        <time>2016-07-07T20:29:58Z</time>
      </trkpt>
      <trkpt lat="59.243856184457" lon="17.838998448418">
        <ele>42.4</ele>
        <time>2016-07-07T20:29:59Z</time>
      </trkpt>
      <trkpt lat="59.243949642642" lon="17.83907539426">
        <ele>41.6</ele>
        <time>2016-07-07T20:30:00Z</time>
      </trkpt>
      <trkpt lat="59.244047543234" lon="17.839148735885">
        <ele>41.2</ele>
        <time>2016-07-07T20:30:01Z</time>
      </trkpt>
      <trkpt lat="59.244593875476" lon="17.839692050643">
        <ele>41.2</ele>
        <time>2016-07-07T20:30:07Z</time>
      </trkpt>
      <trkpt lat="59.244672246241" lon="17.839828759432">
        <ele>41.2</ele>
        <time>2016-07-07T20:30:08Z</time>
      </trkpt>
      <trkpt lat="59.244816917835" lon="17.840138470637">
        <ele>41.2</ele>
        <time>2016-07-07T20:30:10Z</time>
      </trkpt>
      <trkpt lat="59.244926972182" lon="17.840454132991">
        <ele>41.2</ele>
        <time>2016-07-07T20:30:12Z</time>
      </trkpt>
      <trkpt lat="59.245014814494" lon="17.840787732611">
        <ele>41.2</ele>
        <time>2016-07-07T20:30:14Z</time>
      </trkpt>
      <trkpt lat="59.245108272679" lon="17.841285282195">
        <ele>41.6</ele>
        <time>2016-07-07T20:30:17Z</time>
      </trkpt>
      <trkpt lat="59.245124030651" lon="17.841448645426">
        <ele>42.2</ele>
        <time>2016-07-07T20:30:18Z</time>
      </trkpt>
      <trkpt lat="59.245126964316" lon="17.841615780512">
        <ele>42.6</ele>
        <time>2016-07-07T20:30:19Z</time>
      </trkpt>
      <trkpt lat="59.245105925747" lon="17.84177855701">
        <ele>43</ele>
        <time>2016-07-07T20:30:20Z</time>
      </trkpt>
      <trkpt lat="59.245043732049" lon="17.841891796479">
        <ele>43.4</ele>
        <time>2016-07-07T20:30:21Z</time>
      </trkpt>
      <trkpt lat="59.244890510917" lon="17.841905375157">
        <ele>43.4</ele>
        <time>2016-07-07T20:30:23Z</time>
      </trkpt>
      <trkpt lat="59.244730751903" lon="17.841827758763">
        <ele>44.4</ele>
        <time>2016-07-07T20:30:25Z</time>
      </trkpt>
      <trkpt lat="59.244656991183" lon="17.841805295271">
        <ele>44.8</ele>
        <time>2016-07-07T20:30:26Z</time>
      </trkpt>
      <trkpt lat="59.244580464436" lon="17.84174502941">
        <ele>45.2</ele>
        <time>2016-07-07T20:30:27Z</time>
      </trkpt>
      <trkpt lat="59.244499914377" lon="17.841690798517">
        <ele>45.6</ele>
        <time>2016-07-07T20:30:28Z</time>
      </trkpt>
      <trkpt lat="59.244424896372" lon="17.841618295082">
        <ele>45.6</ele>
        <time>2016-07-07T20:30:29Z</time>
      </trkpt>
      <trkpt lat="59.244346441788" lon="17.841537828842">
        <ele>46</ele>
        <time>2016-07-07T20:30:30Z</time>
      </trkpt>
      <trkpt lat="59.244267987204" lon="17.841451830548">
        <ele>46.6</ele>
        <time>2016-07-07T20:30:31Z</time>
      </trkpt>
      <trkpt lat="59.244198585072" lon="17.841355941612">
        <ele>47</ele>
        <time>2016-07-07T20:30:32Z</time>
      </trkpt>
      <trkpt lat="59.244139325039" lon="17.84127564301">
        <ele>47.4</ele>
        <time>2016-07-07T20:30:33Z</time>
      </trkpt>
      <trkpt lat="59.244077885712" lon="17.841194757675">
        <ele>47.8</ele>
        <time>2016-07-07T20:30:34Z</time>
      </trkpt>
      <trkpt lat="59.244015859652" lon="17.841146226474">
        <ele>48.2</ele>
        <time>2016-07-07T20:30:35Z</time>
      </trkpt>
      <trkpt lat="59.243949642642" lon="17.841175479305">
        <ele>48.6</ele>
        <time>2016-07-07T20:30:36Z</time>
      </trkpt>
      <trkpt lat="59.243898010138" lon="17.841250832586">
        <ele>49</ele>
        <time>2016-07-07T20:30:37Z</time>
      </trkpt>
      <trkpt lat="59.24385928576" lon="17.841335238319">
        <ele>49.4</ele>
        <time>2016-07-07T20:30:38Z</time>
      </trkpt>
      <trkpt lat="59.243821148115" lon="17.8414273554">
        <ele>50</ele>
        <time>2016-07-07T20:30:39Z</time>
      </trkpt>
      <trkpt lat="59.243794577492" lon="17.84152039449">
        <ele>50</ele>
        <time>2016-07-07T20:30:40Z</time>
      </trkpt>
      <trkpt lat="59.243766665765" lon="17.84161510996">
        <ele>50</ele>
        <time>2016-07-07T20:30:41Z</time>
      </trkpt>
      <trkpt lat="59.243742609712" lon="17.8416955762">
        <ele>50.4</ele>
        <time>2016-07-07T20:30:42Z</time>
      </trkpt>
      <trkpt lat="59.243719978582" lon="17.841791465136">
        <ele>50.8</ele>
        <time>2016-07-07T20:30:43Z</time>
      </trkpt>
      <trkpt lat="59.243692653588" lon="17.8418883599">
        <ele>51.4</ele>
        <time>2016-07-07T20:30:44Z</time>
      </trkpt>
      <trkpt lat="59.243662646386" lon="17.841975112565">
        <ele>51.8</ele>
        <time>2016-07-07T20:30:45Z</time>
      </trkpt>
      <trkpt lat="59.243642781283" lon="17.84207192351">
        <ele>52.4</ele>
        <time>2016-07-07T20:30:46Z</time>
      </trkpt>
      <trkpt lat="59.243586287277" lon="17.842357997757">
        <ele>52.8</ele>
        <time>2016-07-07T20:30:49Z</time>
      </trkpt>
      <trkpt lat="59.243569439658" lon="17.842454054331">
        <ele>53.6</ele>
        <time>2016-07-07T20:30:50Z</time>
      </trkpt>
      <trkpt lat="59.243556782989" lon="17.84254298629">
        <ele>54</ele>
        <time>2016-07-07T20:30:51Z</time>
      </trkpt>
      <trkpt lat="59.243543874863" lon="17.842633175534">
        <ele>54.4</ele>
        <time>2016-07-07T20:30:52Z</time>
      </trkpt>
      <trkpt lat="59.243499953707" lon="17.843014384346">
        <ele>54.8</ele>
        <time>2016-07-07T20:30:56Z</time>
      </trkpt>
      <trkpt lat="59.243493332006" lon="17.843106417608">
        <ele>55.2</ele>
        <time>2016-07-07T20:30:57Z</time>
      </trkpt>
      <trkpt lat="59.243486207391" lon="17.843197947956">
        <ele>55.6</ele>
        <time>2016-07-07T20:30:58Z</time>
      </trkpt>
      <trkpt lat="59.243476652025" lon="17.84328059349">
        <ele>56</ele>
        <time>2016-07-07T20:30:59Z</time>
      </trkpt>
      <trkpt lat="59.24346617465" lon="17.843360137721">
        <ele>56.4</ele>
        <time>2016-07-07T20:31:00Z</time>
      </trkpt>
      <trkpt lat="59.243463827718" lon="17.843442783255">
        <ele>56.4</ele>
        <time>2016-07-07T20:31:01Z</time>
      </trkpt>
      <trkpt lat="59.243447399194" lon="17.843760541084">
        <ele>56.4</ele>
        <time>2016-07-07T20:31:05Z</time>
      </trkpt>
      <trkpt lat="59.243449829945" lon="17.843842264609">
        <ele>57</ele>
        <time>2016-07-07T20:31:06Z</time>
      </trkpt>
      <trkpt lat="59.243445722814" lon="17.843928681998">
        <ele>57.4</ele>
        <time>2016-07-07T20:31:07Z</time>
      </trkpt>
      <trkpt lat="59.243443124425" lon="17.844013423007">
        <ele>57.8</ele>
        <time>2016-07-07T20:31:08Z</time>
      </trkpt>
      <trkpt lat="59.243441280407" lon="17.844098499292">
        <ele>58.2</ele>
        <time>2016-07-07T20:31:09Z</time>
      </trkpt>
      <trkpt lat="59.243440777493" lon="17.844181396283">
        <ele>58.6</ele>
        <time>2016-07-07T20:31:10Z</time>
      </trkpt>
      <trkpt lat="59.243430467756" lon="17.844344424238">
        <ele>58.6</ele>
        <time>2016-07-07T20:31:12Z</time>
      </trkpt>
      <trkpt lat="59.24342761791" lon="17.844503764157">
        <ele>59</ele>
        <time>2016-07-07T20:31:14Z</time>
      </trkpt>
      <trkpt lat="59.243424684245" lon="17.844582889293">
        <ele>59.8</ele>
        <time>2016-07-07T20:31:15Z</time>
      </trkpt>
      <trkpt lat="59.243421331485" lon="17.844669977234">
        <ele>60.2</ele>
        <time>2016-07-07T20:31:16Z</time>
      </trkpt>
      <trkpt lat="59.243419906562" lon="17.844758238641">
        <ele>60.6</ele>
        <time>2016-07-07T20:31:17Z</time>
      </trkpt>
      <trkpt lat="59.243417727268" lon="17.844924200261">
        <ele>60.6</ele>
        <time>2016-07-07T20:31:19Z</time>
      </trkpt>
      <trkpt lat="59.243406746979" lon="17.845242628642">
        <ele>61</ele>
        <time>2016-07-07T20:31:23Z</time>
      </trkpt>
      <trkpt lat="59.243407668988" lon="17.845322256692">
        <ele>61.4</ele>
        <time>2016-07-07T20:31:24Z</time>
      </trkpt>
      <trkpt lat="59.243402639848" lon="17.845399873086">
        <ele>62</ele>
        <time>2016-07-07T20:31:25Z</time>
      </trkpt>
      <trkpt lat="59.243397862165" lon="17.845478243851">
        <ele>62.4</ele>
        <time>2016-07-07T20:31:26Z</time>
      </trkpt>
      <trkpt lat="59.243397275432" lon="17.845558877729">
        <ele>62.8</ele>
        <time>2016-07-07T20:31:27Z</time>
      </trkpt>
      <trkpt lat="59.243386043686" lon="17.84589406991">
        <ele>63.2</ele>
        <time>2016-07-07T20:31:31Z</time>
      </trkpt>
      <trkpt lat="59.243381433641" lon="17.845972356856">
        <ele>63.6</ele>
        <time>2016-07-07T20:31:32Z</time>
      </trkpt>
      <trkpt lat="59.243380092537" lon="17.846052320182">
        <ele>64</ele>
        <time>2016-07-07T20:31:33Z</time>
      </trkpt>
      <trkpt lat="59.243379338166" lon="17.846124739798">
        <ele>64.4</ele>
        <time>2016-07-07T20:31:34Z</time>
      </trkpt>
      <trkpt lat="59.243379924899" lon="17.846206211866">
        <ele>64.8</ele>
        <time>2016-07-07T20:31:35Z</time>
      </trkpt>
      <trkpt lat="59.243371878275" lon="17.846700241052">
        <ele>65.4</ele>
        <time>2016-07-07T20:31:41Z</time>
      </trkpt>
      <trkpt lat="59.243371710637" lon="17.846780539654">
        <ele>65.8</ele>
        <time>2016-07-07T20:31:42Z</time>
      </trkpt>
      <trkpt lat="59.243372884103" lon="17.846859580971">
        <ele>66.2</ele>
        <time>2016-07-07T20:31:43Z</time>
      </trkpt>
      <trkpt lat="59.243370956266" lon="17.84693929284">
        <ele>66.8</ele>
        <time>2016-07-07T20:31:44Z</time>
      </trkpt>
      <trkpt lat="59.243371291542" lon="17.847022357469">
        <ele>67.2</ele>
        <time>2016-07-07T20:31:45Z</time>
      </trkpt>
      <trkpt lat="59.243367938782" lon="17.847195024609">
        <ele>67.2</ele>
        <time>2016-07-07T20:31:47Z</time>
      </trkpt>
      <trkpt lat="59.243361736176" lon="17.847269707338">
        <ele>67.2</ele>
        <time>2016-07-07T20:31:48Z</time>
      </trkpt>
      <trkpt lat="59.243355365932" lon="17.847456707527">
        <ele>67.6</ele>
        <time>2016-07-07T20:31:50Z</time>
      </trkpt>
      <trkpt lat="59.24334798986" lon="17.847539939794">
        <ele>68</ele>
        <time>2016-07-07T20:31:51Z</time>
      </trkpt>
      <trkpt lat="59.243344804738" lon="17.847628871753">
        <ele>68.4</ele>
        <time>2016-07-07T20:31:52Z</time>
      </trkpt>
      <trkpt lat="59.243341787254" lon="17.847721072653">
        <ele>69</ele>
        <time>2016-07-07T20:31:53Z</time>
      </trkpt>
      <trkpt lat="59.243339021227" lon="17.847818051236">
        <ele>69.4</ele>
        <time>2016-07-07T20:31:54Z</time>
      </trkpt>
      <trkpt lat="59.243329130585" lon="17.847908911032">
        <ele>69.4</ele>
        <time>2016-07-07T20:31:55Z</time>
      </trkpt>
      <trkpt lat="59.243304571618" lon="17.848268243085">
        <ele>69.4</ele>
        <time>2016-07-07T20:31:59Z</time>
      </trkpt>
      <trkpt lat="59.243285293248" lon="17.848632604278">
        <ele>70</ele>
        <time>2016-07-07T20:32:03Z</time>
      </trkpt>
      <trkpt lat="59.243280431746" lon="17.848721955332">
        <ele>71</ele>
        <time>2016-07-07T20:32:04Z</time>
      </trkpt>
      <trkpt lat="59.243267355982" lon="17.84880594197">
        <ele>71.6</ele>
        <time>2016-07-07T20:32:05Z</time>
      </trkpt>
      <trkpt lat="59.24325830353" lon="17.848897472318">
        <ele>72.2</ele>
        <time>2016-07-07T20:32:06Z</time>
      </trkpt>
      <trkpt lat="59.243192505615" lon="17.849461658007">
        <ele>72.2</ele>
        <time>2016-07-07T20:32:12Z</time>
      </trkpt>
      <trkpt lat="59.243124612225" lon="17.85010681285">
        <ele>72.2</ele>
        <time>2016-07-07T20:32:19Z</time>
      </trkpt>
      <trkpt lat="59.243078176499" lon="17.850692204746">
        <ele>72.6</ele>
        <time>2016-07-07T20:32:25Z</time>
      </trkpt>
      <trkpt lat="59.243070297513" lon="17.850784154189">
        <ele>73</ele>
        <time>2016-07-07T20:32:26Z</time>
      </trkpt>
      <trkpt lat="59.243068118219" lon="17.850884234075">
        <ele>73.4</ele>
        <time>2016-07-07T20:32:27Z</time>
      </trkpt>
      <trkpt lat="59.243059736319" lon="17.850985319789">
        <ele>73.8</ele>
        <time>2016-07-07T20:32:28Z</time>
      </trkpt>
      <trkpt lat="59.243050180953" lon="17.851083807114">
        <ele>74.2</ele>
        <time>2016-07-07T20:32:29Z</time>
      </trkpt>
      <trkpt lat="59.243004918693" lon="17.851493682024">
        <ele>74.2</ele>
        <time>2016-07-07T20:32:33Z</time>
      </trkpt>
      <trkpt lat="59.242914813268" lon="17.852099609575">
        <ele>74.8</ele>
        <time>2016-07-07T20:32:39Z</time>
      </trkpt>
      <trkpt lat="59.242898384744" lon="17.852207652266">
        <ele>75.2</ele>
        <time>2016-07-07T20:32:40Z</time>
      </trkpt>
      <trkpt lat="59.242884219333" lon="17.852309408532">
        <ele>75.6</ele>
        <time>2016-07-07T20:32:41Z</time>
      </trkpt>
      <trkpt lat="59.242868880456" lon="17.852408817866">
        <ele>76</ele>
        <time>2016-07-07T20:32:42Z</time>
      </trkpt>
      <trkpt lat="59.242845411136" lon="17.852511160865">
        <ele>76.4</ele>
        <time>2016-07-07T20:32:43Z</time>
      </trkpt>
      <trkpt lat="59.242745415069" lon="17.852906954183">
        <ele>76.4</ele>
        <time>2016-07-07T20:32:47Z</time>
      </trkpt>
      <trkpt lat="59.24256428221" lon="17.85360877067">
        <ele>76.8</ele>
        <time>2016-07-07T20:32:54Z</time>
      </trkpt>
      <trkpt lat="59.242533772094" lon="17.853718405922">
        <ele>77.2</ele>
        <time>2016-07-07T20:32:55Z</time>
      </trkpt>
      <trkpt lat="59.242499573942" lon="17.853817060885">
        <ele>77.6</ele>
        <time>2016-07-07T20:32:56Z</time>
      </trkpt>
      <trkpt lat="59.242462106849" lon="17.853907333948">
        <ele>78</ele>
        <time>2016-07-07T20:32:57Z</time>
      </trkpt>
      <trkpt lat="59.242419778254" lon="17.853992829328">
        <ele>78.4</ele>
        <time>2016-07-07T20:32:58Z</time>
      </trkpt>
      <trkpt lat="59.242370744139" lon="17.854071283912">
        <ele>78.4</ele>
        <time>2016-07-07T20:32:59Z</time>
      </trkpt>
      <trkpt lat="59.24227762123" lon="17.854228360718">
        <ele>78.4</ele>
        <time>2016-07-07T20:33:01Z</time>
      </trkpt>
      <trkpt lat="59.242226659278" lon="17.854291308787">
        <ele>78.4</ele>
        <time>2016-07-07T20:33:02Z</time>
      </trkpt>
      <trkpt lat="59.242056506708" lon="17.85446037171">
        <ele>78.4</ele>
        <time>2016-07-07T20:33:05Z</time>
      </trkpt>
      <trkpt lat="59.241996492304" lon="17.854506388341">
        <ele>78.4</ele>
        <time>2016-07-07T20:33:06Z</time>
      </trkpt>
      <trkpt lat="59.24179063284" lon="17.85460789315">
        <ele>78.4</ele>
        <time>2016-07-07T20:33:09Z</time>
      </trkpt>
      <trkpt lat="59.241642859943" lon="17.854612838471">
        <ele>78.4</ele>
        <time>2016-07-07T20:33:11Z</time>
      </trkpt>
      <trkpt lat="59.241487878612" lon="17.854586016391">
        <ele>78</ele>
        <time>2016-07-07T20:33:13Z</time>
      </trkpt>
      <trkpt lat="59.241403640517" lon="17.854547627289">
        <ele>77.6</ele>
        <time>2016-07-07T20:33:14Z</time>
      </trkpt>
      <trkpt lat="59.241322336087" lon="17.854497168251">
        <ele>77.2</ele>
        <time>2016-07-07T20:33:15Z</time>
      </trkpt>
      <trkpt lat="59.241243797684" lon="17.854439668417">
        <ele>76.8</ele>
        <time>2016-07-07T20:33:16Z</time>
      </trkpt>
      <trkpt lat="59.241165091643" lon="17.854383761144">
        <ele>76.2</ele>
        <time>2016-07-07T20:33:17Z</time>
      </trkpt>
      <trkpt lat="59.241084625403" lon="17.854323160007">
        <ele>75.6</ele>
        <time>2016-07-07T20:33:18Z</time>
      </trkpt>
      <trkpt lat="59.241007931018" lon="17.854240095378">
        <ele>74.4</ele>
        <time>2016-07-07T20:33:19Z</time>
      </trkpt>
      <trkpt lat="59.240936601049" lon="17.854152336885">
        <ele>73.8</ele>
        <time>2016-07-07T20:33:20Z</time>
      </trkpt>
      <trkpt lat="59.240868120926" lon="17.854063153469">
        <ele>73.8</ele>
        <time>2016-07-07T20:33:21Z</time>
      </trkpt>
      <trkpt lat="59.240626889844" lon="17.853673478938">
        <ele>73.8</ele>
        <time>2016-07-07T20:33:25Z</time>
      </trkpt>
      <trkpt lat="59.24057693372" lon="17.853559066003">
        <ele>73.8</ele>
        <time>2016-07-07T20:33:26Z</time>
      </trkpt>
      <trkpt lat="59.240436453076" lon="17.853150699835">
        <ele>73.8</ele>
        <time>2016-07-07T20:33:30Z</time>
      </trkpt>
      <trkpt lat="59.240309048196" lon="17.852601433928">
        <ele>74.4</ele>
        <time>2016-07-07T20:33:36Z</time>
      </trkpt>
      <trkpt lat="59.240302091219" lon="17.852515267996">
        <ele>74.8</ele>
        <time>2016-07-07T20:33:37Z</time>
      </trkpt>
      <trkpt lat="59.240287171437" lon="17.852427844779">
        <ele>75.2</ele>
        <time>2016-07-07T20:33:38Z</time>
      </trkpt>
      <trkpt lat="59.240274682406" lon="17.85233388368">
        <ele>75.6</ele>
        <time>2016-07-07T20:33:39Z</time>
      </trkpt>
      <trkpt lat="59.240261019909" lon="17.852243275341">
        <ele>76</ele>
        <time>2016-07-07T20:33:40Z</time>
      </trkpt>
      <trkpt lat="59.24025003962" lon="17.852149062785">
        <ele>76</ele>
        <time>2016-07-07T20:33:41Z</time>
      </trkpt>
      <trkpt lat="59.240235622752" lon="17.851970612134">
        <ele>76.8</ele>
        <time>2016-07-07T20:33:43Z</time>
      </trkpt>
      <trkpt lat="59.240230845069" lon="17.851878578872">
        <ele>77.2</ele>
        <time>2016-07-07T20:33:44Z</time>
      </trkpt>
      <trkpt lat="59.240227492309" lon="17.851784450135">
        <ele>77.6</ele>
        <time>2016-07-07T20:33:45Z</time>
      </trkpt>
      <trkpt lat="59.24022237935" lon="17.851691997778">
        <ele>78.2</ele>
        <time>2016-07-07T20:33:46Z</time>
      </trkpt>
      <trkpt lat="59.240222630807" lon="17.851504746132">
        <ele>78.2</ele>
        <time>2016-07-07T20:33:48Z</time>
      </trkpt>
      <trkpt lat="59.240212572527" lon="17.851220851179">
        <ele>78.2</ele>
        <time>2016-07-07T20:33:51Z</time>
      </trkpt>
      <trkpt lat="59.24020645374" lon="17.850853472502">
        <ele>78.2</ele>
        <time>2016-07-07T20:33:55Z</time>
      </trkpt>
      <trkpt lat="59.240217182572" lon="17.850148219436">
        <ele>78.2</ele>
        <time>2016-07-07T20:34:02Z</time>
      </trkpt>
      <trkpt lat="59.240217936943" lon="17.850030453741">
        <ele>78.2</ele>
        <time>2016-07-07T20:34:03Z</time>
      </trkpt>
      <trkpt lat="59.240214332726" lon="17.849068965992">
        <ele>78.2</ele>
        <time>2016-07-07T20:34:11Z</time>
      </trkpt>
      <trkpt lat="59.240202765704" lon="17.848109154623">
        <ele>78.2</ele>
        <time>2016-07-07T20:34:19Z</time>
      </trkpt>
      <trkpt lat="59.240091454072" lon="17.847295272133">
        <ele>78.2</ele>
        <time>2016-07-07T20:34:26Z</time>
      </trkpt>
      <trkpt lat="59.240037223179" lon="17.847068960833">
        <ele>78.2</ele>
        <time>2016-07-07T20:34:28Z</time>
      </trkpt>
      <trkpt lat="59.239909231566" lon="17.846609381256">
        <ele>78.2</ele>
        <time>2016-07-07T20:34:32Z</time>
      </trkpt>
      <trkpt lat="59.239871010102" lon="17.846487089335">
        <ele>78.2</ele>
        <time>2016-07-07T20:34:33Z</time>
      </trkpt>
      <trkpt lat="59.239795824459" lon="17.846240410018">
        <ele>77.6</ele>
        <time>2016-07-07T20:34:35Z</time>
      </trkpt>
      <trkpt lat="59.239760285203" lon="17.846109568559">
        <ele>77.2</ele>
        <time>2016-07-07T20:34:36Z</time>
      </trkpt>
      <trkpt lat="59.239720722635" lon="17.845976044892">
        <ele>76.8</ele>
        <time>2016-07-07T20:34:37Z</time>
      </trkpt>
      <trkpt lat="59.239679064592" lon="17.845846628356">
        <ele>76.2</ele>
        <time>2016-07-07T20:34:38Z</time>
      </trkpt>
      <trkpt lat="59.23963480816" lon="17.845718469105">
        <ele>75.4</ele>
        <time>2016-07-07T20:34:39Z</time>
      </trkpt>
      <trkpt lat="59.23959876599" lon="17.845587376189">
        <ele>74.8</ele>
        <time>2016-07-07T20:34:40Z</time>
      </trkpt>
      <trkpt lat="59.23957026753" lon="17.845436166713">
        <ele>74.2</ele>
        <time>2016-07-07T20:34:41Z</time>
      </trkpt>
      <trkpt lat="59.239546882029" lon="17.845286130703">
        <ele>73.4</ele>
        <time>2016-07-07T20:34:42Z</time>
      </trkpt>
      <trkpt lat="59.239524586175" lon="17.845129472992">
        <ele>72.8</ele>
        <time>2016-07-07T20:34:43Z</time>
      </trkpt>
      <trkpt lat="59.239502038864" lon="17.844966780313">
        <ele>72</ele>
        <time>2016-07-07T20:34:44Z</time>
      </trkpt>
      <trkpt lat="59.239481167933" lon="17.844801237788">
        <ele>71.4</ele>
        <time>2016-07-07T20:34:45Z</time>
      </trkpt>
      <trkpt lat="59.239451412188" lon="17.84446411777">
        <ele>71</ele>
        <time>2016-07-07T20:34:47Z</time>
      </trkpt>
      <trkpt lat="59.239440180442" lon="17.84429731796">
        <ele>70.4</ele>
        <time>2016-07-07T20:34:48Z</time>
      </trkpt>
      <trkpt lat="59.23942609885" lon="17.844112664703">
        <ele>70</ele>
        <time>2016-07-07T20:34:49Z</time>
      </trkpt>
      <trkpt lat="59.239412184896" lon="17.843938991735">
        <ele>69.6</ele>
        <time>2016-07-07T20:34:50Z</time>
      </trkpt>
      <trkpt lat="59.239397265114" lon="17.843764815853">
        <ele>69.2</ele>
        <time>2016-07-07T20:34:51Z</time>
      </trkpt>
      <trkpt lat="59.239362144953" lon="17.843404142696">
        <ele>69.2</ele>
        <time>2016-07-07T20:34:53Z</time>
      </trkpt>
      <trkpt lat="59.239332640665" lon="17.843037266933">
        <ele>68.8</ele>
        <time>2016-07-07T20:34:55Z</time>
      </trkpt>
      <trkpt lat="59.239319397263" lon="17.842843225948">
        <ele>68.2</ele>
        <time>2016-07-07T20:34:56Z</time>
      </trkpt>
      <trkpt lat="59.239304477481" lon="17.842656644854">
        <ele>67.8</ele>
        <time>2016-07-07T20:34:57Z</time>
      </trkpt>
      <trkpt lat="59.239289557699" lon="17.842468806475">
        <ele>66.4</ele>
        <time>2016-07-07T20:34:58Z</time>
      </trkpt>
      <trkpt lat="59.239276733392" lon="17.842282476838">
        <ele>65.8</ele>
        <time>2016-07-07T20:34:59Z</time>
      </trkpt>
      <trkpt lat="59.239264747275" lon="17.84210377473">
        <ele>65</ele>
        <time>2016-07-07T20:35:00Z</time>
      </trkpt>
      <trkpt lat="59.23925175533" lon="17.841933119246">
        <ele>64.2</ele>
        <time>2016-07-07T20:35:01Z</time>
      </trkpt>
      <trkpt lat="59.239197356799" lon="17.841618043625">
        <ele>64.2</ele>
        <time>2016-07-07T20:35:03Z</time>
      </trkpt>
      <trkpt lat="59.239149160874" lon="17.841504133604">
        <ele>64.2</ele>
        <time>2016-07-07T20:35:04Z</time>
      </trkpt>
      <trkpt lat="59.2390614862" lon="17.841356528345">
        <ele>64.2</ele>
        <time>2016-07-07T20:35:06Z</time>
      </trkpt>
      <trkpt lat="59.238979175942" lon="17.841333981034">
        <ele>64.2</ele>
        <time>2016-07-07T20:35:09Z</time>
      </trkpt>
      <trkpt lat="59.238888232327" lon="17.841541852154">
        <ele>64.2</ele>
        <time>2016-07-07T20:35:12Z</time>
      </trkpt>
      <trkpt lat="59.238873312545" lon="17.841646206809">
        <ele>64.2</ele>
        <time>2016-07-07T20:35:13Z</time>
      </trkpt>
      <trkpt lat="59.238835007262" lon="17.841887773167">
        <ele>64.2</ele>
        <time>2016-07-07T20:35:15Z</time>
      </trkpt>
      <trkpt lat="59.238783710034" lon="17.842154317587">
        <ele>63.8</ele>
        <time>2016-07-07T20:35:17Z</time>
      </trkpt>
      <trkpt lat="59.238756133583" lon="17.842291445471">
        <ele>63.4</ele>
        <time>2016-07-07T20:35:18Z</time>
      </trkpt>
      <trkpt lat="59.238721851612" lon="17.842441900576">
        <ele>62.8</ele>
        <time>2016-07-07T20:35:19Z</time>
      </trkpt>
      <trkpt lat="59.238682540501" lon="17.842581375392">
        <ele>62.4</ele>
        <time>2016-07-07T20:35:20Z</time>
      </trkpt>
      <trkpt lat="59.238643564666" lon="17.842721688398">
        <ele>61.8</ele>
        <time>2016-07-07T20:35:21Z</time>
      </trkpt>
      <trkpt lat="59.238605762297" lon="17.842871053856">
        <ele>61.4</ele>
        <time>2016-07-07T20:35:22Z</time>
      </trkpt>
      <trkpt lat="59.238568798118" lon="17.843024777902">
        <ele>60.2</ele>
        <time>2016-07-07T20:35:23Z</time>
      </trkpt>
      <trkpt lat="59.238532336853" lon="17.843180513604">
        <ele>59.6</ele>
        <time>2016-07-07T20:35:24Z</time>
      </trkpt>
      <trkpt lat="59.238497216692" lon="17.843339769704">
        <ele>59</ele>
        <time>2016-07-07T20:35:25Z</time>
      </trkpt>
      <trkpt lat="59.238464946377" lon="17.843498355252">
        <ele>58.2</ele>
        <time>2016-07-07T20:35:26Z</time>
      </trkpt>
      <trkpt lat="59.238448853129" lon="17.843681080672">
        <ele>57.6</ele>
        <time>2016-07-07T20:35:27Z</time>
      </trkpt>
      <trkpt lat="59.238429910035" lon="17.843850897966">
        <ele>57.6</ele>
        <time>2016-07-07T20:35:28Z</time>
      </trkpt>
      <trkpt lat="59.238414654977" lon="17.844019457975">
        <ele>57.2</ele>
        <time>2016-07-07T20:35:29Z</time>
      </trkpt>
      <trkpt lat="59.238406608353" lon="17.844195477875">
        <ele>56.8</ele>
        <time>2016-07-07T20:35:30Z</time>
      </trkpt>
      <trkpt lat="59.238402501222" lon="17.844366133359">
        <ele>56.4</ele>
        <time>2016-07-07T20:35:31Z</time>
      </trkpt>
      <trkpt lat="59.238397723539" lon="17.844534777187">
        <ele>56</ele>
        <time>2016-07-07T20:35:32Z</time>
      </trkpt>
      <trkpt lat="59.238393532589" lon="17.844710629449">
        <ele>55.6</ele>
        <time>2016-07-07T20:35:33Z</time>
      </trkpt>
      <trkpt lat="59.238390179829" lon="17.84586473326">
        <ele>55.6</ele>
        <time>2016-07-07T20:35:40Z</time>
      </trkpt>
      <trkpt lat="59.238393784046" lon="17.846743240199">
        <ele>55</ele>
        <time>2016-07-07T20:35:45Z</time>
      </trkpt>
      <trkpt lat="59.238394538417" lon="17.846925714162">
        <ele>54.6</ele>
        <time>2016-07-07T20:35:46Z</time>
      </trkpt>
      <trkpt lat="59.238395711883" lon="17.847111540885">
        <ele>53.6</ele>
        <time>2016-07-07T20:35:47Z</time>
      </trkpt>
      <trkpt lat="59.238395879521" lon="17.847298457255">
        <ele>53</ele>
        <time>2016-07-07T20:35:48Z</time>
      </trkpt>
      <trkpt lat="59.238396550073" lon="17.847496102457">
        <ele>52.6</ele>
        <time>2016-07-07T20:35:49Z</time>
      </trkpt>
      <trkpt lat="59.238398561729" lon="17.847687628872">
        <ele>52.2</ele>
        <time>2016-07-07T20:35:50Z</time>
      </trkpt>
      <trkpt lat="59.238400908661" lon="17.847880747848">
        <ele>51.6</ele>
        <time>2016-07-07T20:35:51Z</time>
      </trkpt>
      <trkpt lat="59.238402417403" lon="17.848068250951">
        <ele>51.2</ele>
        <time>2016-07-07T20:35:52Z</time>
      </trkpt>
      <trkpt lat="59.23840266886" lon="17.848258352443">
        <ele>50.8</ele>
        <time>2016-07-07T20:35:53Z</time>
      </trkpt>
      <trkpt lat="59.238400741023" lon="17.8484513876">
        <ele>50.4</ele>
        <time>2016-07-07T20:35:54Z</time>
      </trkpt>
      <trkpt lat="59.238405602525" lon="17.848646099137">
        <ele>49.8</ele>
        <time>2016-07-07T20:35:55Z</time>
      </trkpt>
      <trkpt lat="59.238410380208" lon="17.848842067959">
        <ele>49.4</ele>
        <time>2016-07-07T20:35:56Z</time>
      </trkpt>
      <trkpt lat="59.238410883122" lon="17.849051196364">
        <ele>49</ele>
        <time>2016-07-07T20:35:57Z</time>
      </trkpt>
      <trkpt lat="59.238412894778" lon="17.849242387503">
        <ele>48.6</ele>
        <time>2016-07-07T20:35:58Z</time>
      </trkpt>
      <trkpt lat="59.238419097384" lon="17.849442044361">
        <ele>48.2</ele>
        <time>2016-07-07T20:35:59Z</time>
      </trkpt>
      <trkpt lat="59.238427395465" lon="17.849640611572">
        <ele>47.6</ele>
        <time>2016-07-07T20:36:00Z</time>
      </trkpt>
      <trkpt lat="59.238438459573" lon="17.84983775386">
        <ele>47.2</ele>
        <time>2016-07-07T20:36:01Z</time>
      </trkpt>
      <trkpt lat="59.238451786794" lon="17.850037913632">
        <ele>46.8</ele>
        <time>2016-07-07T20:36:02Z</time>
      </trkpt>
      <trkpt lat="59.238464862558" lon="17.850231954617">
        <ele>46.2</ele>
        <time>2016-07-07T20:36:03Z</time>
      </trkpt>
      <trkpt lat="59.238513645216" lon="17.850969477998">
        <ele>45.8</ele>
        <time>2016-07-07T20:36:07Z</time>
      </trkpt>
      <trkpt lat="59.238528900274" lon="17.851140133482">
        <ele>45.4</ele>
        <time>2016-07-07T20:36:08Z</time>
      </trkpt>
      <trkpt lat="59.238547591911" lon="17.851304670179">
        <ele>44.8</ele>
        <time>2016-07-07T20:36:09Z</time>
      </trkpt>
      <trkpt lat="59.238562260236" lon="17.851466943763">
        <ele>44.4</ele>
        <time>2016-07-07T20:36:10Z</time>
      </trkpt>
      <trkpt lat="59.238556392906" lon="17.851621589818">
        <ele>43.8</ele>
        <time>2016-07-07T20:36:11Z</time>
      </trkpt>
      <trkpt lat="59.238518590537" lon="17.851763243928">
        <ele>43.8</ele>
        <time>2016-07-07T20:36:12Z</time>
      </trkpt>
      <trkpt lat="59.238352126003" lon="17.851885787306">
        <ele>43.8</ele>
        <time>2016-07-07T20:36:14Z</time>
      </trkpt>
      <trkpt lat="59.238280544577" lon="17.851887715143">
        <ele>43.8</ele>
        <time>2016-07-07T20:36:15Z</time>
      </trkpt>
      <trkpt lat="59.238195216835" lon="17.851886374039">
        <ele>43.4</ele>
        <time>2016-07-07T20:36:16Z</time>
      </trkpt>
      <trkpt lat="59.238095388406" lon="17.851881763994">
        <ele>43</ele>
        <time>2016-07-07T20:36:17Z</time>
      </trkpt>
      <trkpt lat="59.238009138655" lon="17.851877992139">
        <ele>42.6</ele>
        <time>2016-07-07T20:36:18Z</time>
      </trkpt>
      <trkpt lat="59.237915764289" lon="17.851872962999">
        <ele>42.2</ele>
        <time>2016-07-07T20:36:19Z</time>
      </trkpt>
      <trkpt lat="59.237822976656" lon="17.851867933859">
        <ele>41.8</ele>
        <time>2016-07-07T20:36:20Z</time>
      </trkpt>
      <trkpt lat="59.237294246404" lon="17.851867179488">
        <ele>41.8</ele>
        <time>2016-07-07T20:36:26Z</time>
      </trkpt>
      <trkpt lat="59.236823686538" lon="17.851866760393">
        <ele>41.2</ele>
        <time>2016-07-07T20:36:32Z</time>
      </trkpt>
      <trkpt lat="59.23675227275" lon="17.851852846439">
        <ele>40.8</ele>
        <time>2016-07-07T20:36:33Z</time>
      </trkpt>
      <trkpt lat="59.236678092935" lon="17.85184521891">
        <ele>40.4</ele>
        <time>2016-07-07T20:36:34Z</time>
      </trkpt>
      <trkpt lat="59.236603996939" lon="17.851838932485">
        <ele>39.6</ele>
        <time>2016-07-07T20:36:35Z</time>
      </trkpt>
      <trkpt lat="59.236467707245" lon="17.85181672045">
        <ele>40</ele>
        <time>2016-07-07T20:36:37Z</time>
      </trkpt>
      <trkpt lat="59.236400149131" lon="17.851795346605">
        <ele>40.6</ele>
        <time>2016-07-07T20:36:38Z</time>
      </trkpt>
      <trkpt lat="59.236334518854" lon="17.851775732959">
        <ele>41</ele>
        <time>2016-07-07T20:36:39Z</time>
      </trkpt>
      <trkpt lat="59.236271822242" lon="17.851751928363">
        <ele>41.6</ele>
        <time>2016-07-07T20:36:40Z</time>
      </trkpt>
      <trkpt lat="59.236215747331" lon="17.85172787231">
        <ele>42</ele>
        <time>2016-07-07T20:36:41Z</time>
      </trkpt>
      <trkpt lat="59.236158331316" lon="17.851703732438">
        <ele>42.4</ele>
        <time>2016-07-07T20:36:42Z</time>
      </trkpt>
      <trkpt lat="59.236098987464" lon="17.851679173471">
        <ele>42.8</ele>
        <time>2016-07-07T20:36:43Z</time>
      </trkpt>
      <trkpt lat="59.236040481802" lon="17.85165243521">
        <ele>43.2</ele>
        <time>2016-07-07T20:36:44Z</time>
      </trkpt>
      <trkpt lat="59.235984742167" lon="17.851621254542">
        <ele>43.6</ele>
        <time>2016-07-07T20:36:45Z</time>
      </trkpt>
      <trkpt lat="59.235928499618" lon="17.851592839901">
        <ele>44</ele>
        <time>2016-07-07T20:36:46Z</time>
      </trkpt>
      <trkpt lat="59.235814924873" lon="17.851558306473">
        <ele>44</ele>
        <time>2016-07-07T20:36:48Z</time>
      </trkpt>
      <trkpt lat="59.235637228593" lon="17.851516564611">
        <ele>44.4</ele>
        <time>2016-07-07T20:36:51Z</time>
      </trkpt>
      <trkpt lat="59.235577046551" lon="17.851504243218">
        <ele>44.8</ele>
        <time>2016-07-07T20:36:52Z</time>
      </trkpt>
      <trkpt lat="59.235518289432" lon="17.851496699508">
        <ele>45.2</ele>
        <time>2016-07-07T20:36:53Z</time>
      </trkpt>
      <trkpt lat="59.235461879245" lon="17.851491418911">
        <ele>45.8</ele>
        <time>2016-07-07T20:36:54Z</time>
      </trkpt>
      <trkpt lat="59.235406642524" lon="17.851487395599">
        <ele>46.2</ele>
        <time>2016-07-07T20:36:55Z</time>
      </trkpt>
      <trkpt lat="59.23529466034" lon="17.851489239617">
        <ele>46.6</ele>
        <time>2016-07-07T20:36:57Z</time>
      </trkpt>
      <trkpt lat="59.2352393398" lon="17.851493849662">
        <ele>47</ele>
        <time>2016-07-07T20:36:58Z</time>
      </trkpt>
      <trkpt lat="59.235183767803" lon="17.851496280413">
        <ele>47.4</ele>
        <time>2016-07-07T20:36:59Z</time>
      </trkpt>
      <trkpt lat="59.235128363444" lon="17.851496112775">
        <ele>48.2</ele>
        <time>2016-07-07T20:37:00Z</time>
      </trkpt>
      <trkpt lat="59.235018225278" lon="17.8515023992">
        <ele>48.2</ele>
        <time>2016-07-07T20:37:02Z</time>
      </trkpt>
      <trkpt lat="59.23465512137" lon="17.851499968449">
        <ele>48.6</ele>
        <time>2016-07-07T20:37:09Z</time>
      </trkpt>
      <trkpt lat="59.23460399178" lon="17.851503069752">
        <ele>49</ele>
        <time>2016-07-07T20:37:10Z</time>
      </trkpt>
      <trkpt lat="59.234551521086" lon="17.851502483019">
        <ele>49.6</ele>
        <time>2016-07-07T20:37:11Z</time>
      </trkpt>
      <trkpt lat="59.234495362356" lon="17.851501225734">
        <ele>50</ele>
        <time>2016-07-07T20:37:12Z</time>
      </trkpt>
      <trkpt lat="59.234441550558" lon="17.851498962621">
        <ele>50.4</ele>
        <time>2016-07-07T20:37:13Z</time>
      </trkpt>
      <trkpt lat="59.234288580883" lon="17.851499465535">
        <ele>50.4</ele>
        <time>2016-07-07T20:37:16Z</time>
      </trkpt>
      <trkpt lat="59.233988089768" lon="17.851500136087">
        <ele>50.4</ele>
        <time>2016-07-07T20:37:22Z</time>
      </trkpt>
      <trkpt lat="59.23384626802" lon="17.851499800811">
        <ele>51.2</ele>
        <time>2016-07-07T20:37:25Z</time>
      </trkpt>
      <trkpt lat="59.233804023244" lon="17.851500387544">
        <ele>51.6</ele>
        <time>2016-07-07T20:37:26Z</time>
      </trkpt>
      <trkpt lat="59.233759599174" lon="17.851503572666">
        <ele>52</ele>
        <time>2016-07-07T20:37:27Z</time>
      </trkpt>
      <trkpt lat="59.233716851484" lon="17.851507847435">
        <ele>52.4</ele>
        <time>2016-07-07T20:37:28Z</time>
      </trkpt>
      <trkpt lat="59.233537227367" lon="17.851532993135">
        <ele>52.4</ele>
        <time>2016-07-07T20:37:32Z</time>
      </trkpt>
      <trkpt lat="59.233492216564" lon="17.851572304246">
        <ele>52.4</ele>
        <time>2016-07-07T20:37:33Z</time>
      </trkpt>
      <trkpt lat="59.23345231872" lon="17.851640113817">
        <ele>53</ele>
        <time>2016-07-07T20:37:34Z</time>
      </trkpt>
      <trkpt lat="59.233424742269" lon="17.85172284317">
        <ele>53.4</ele>
        <time>2016-07-07T20:37:35Z</time>
      </trkpt>
      <trkpt lat="59.233412337057" lon="17.851813535328">
        <ele>53.8</ele>
        <time>2016-07-07T20:37:36Z</time>
      </trkpt>
      <trkpt lat="59.233405547718" lon="17.851916213603">
        <ele>54.2</ele>
        <time>2016-07-07T20:37:37Z</time>
      </trkpt>
      <trkpt lat="59.233399596569" lon="17.852021154991">
        <ele>54.8</ele>
        <time>2016-07-07T20:37:38Z</time>
      </trkpt>
      <trkpt lat="59.233390544117" lon="17.852478219998">
        <ele>54.8</ele>
        <time>2016-07-07T20:37:42Z</time>
      </trkpt>
      <trkpt lat="59.233391382307" lon="17.853487149301">
        <ele>54.8</ele>
        <time>2016-07-07T20:37:50Z</time>
      </trkpt>
      <trkpt lat="59.233395992352" lon="17.854413181613">
        <ele>54.8</ele>
        <time>2016-07-07T20:37:57Z</time>
      </trkpt>
      <trkpt lat="59.233401775863" lon="17.855268303051">
        <ele>54.8</ele>
        <time>2016-07-07T20:38:04Z</time>
      </trkpt>
      <trkpt lat="59.233401692044" lon="17.856188887128">
        <ele>54.8</ele>
        <time>2016-07-07T20:38:11Z</time>
      </trkpt>
      <trkpt lat="59.2334120856" lon="17.857107711006">
        <ele>54.4</ele>
        <time>2016-07-07T20:38:17Z</time>
      </trkpt>
      <trkpt lat="59.233413342885" lon="17.85727585192">
        <ele>53.8</ele>
        <time>2016-07-07T20:38:18Z</time>
      </trkpt>
      <trkpt lat="59.233411415048" lon="17.85744348992">
        <ele>53.4</ele>
        <time>2016-07-07T20:38:19Z</time>
      </trkpt>
      <trkpt lat="59.23340705646" lon="17.857621353838">
        <ele>53</ele>
        <time>2016-07-07T20:38:20Z</time>
      </trkpt>
      <trkpt lat="59.233402111139" lon="17.857794188616">
        <ele>52.6</ele>
        <time>2016-07-07T20:38:21Z</time>
      </trkpt>
      <trkpt lat="59.233395405619" lon="17.857974315647">
        <ele>52</ele>
        <time>2016-07-07T20:38:22Z</time>
      </trkpt>
      <trkpt lat="59.233388448642" lon="17.858160477646">
        <ele>51.6</ele>
        <time>2016-07-07T20:38:23Z</time>
      </trkpt>
      <trkpt lat="59.233379228552" lon="17.858352004061">
        <ele>51</ele>
        <time>2016-07-07T20:38:24Z</time>
      </trkpt>
      <trkpt lat="59.233369086453" lon="17.858546967055">
        <ele>50.4</ele>
        <time>2016-07-07T20:38:25Z</time>
      </trkpt>
      <trkpt lat="59.233361626562" lon="17.858743271153">
        <ele>50</ele>
        <time>2016-07-07T20:38:26Z</time>
      </trkpt>
      <trkpt lat="59.233350394816" lon="17.858942341278">
        <ele>49.4</ele>
        <time>2016-07-07T20:38:27Z</time>
      </trkpt>
      <trkpt lat="59.2333366485" lon="17.859153481339">
        <ele>49</ele>
        <time>2016-07-07T20:38:28Z</time>
      </trkpt>
      <trkpt lat="59.233320890528" lon="17.859352802921">
        <ele>48.6</ele>
        <time>2016-07-07T20:38:29Z</time>
      </trkpt>
      <trkpt lat="59.233302617986" lon="17.859551956865">
        <ele>48</ele>
        <time>2016-07-07T20:38:30Z</time>
      </trkpt>
      <trkpt lat="59.233279483942" lon="17.859752368094">
        <ele>47.4</ele>
        <time>2016-07-07T20:38:31Z</time>
      </trkpt>
      <trkpt lat="59.233258026278" lon="17.859953785151">
        <ele>47</ele>
        <time>2016-07-07T20:38:32Z</time>
      </trkpt>
      <trkpt lat="59.233237155347" lon="17.860153442009">
        <ele>46.4</ele>
        <time>2016-07-07T20:38:33Z</time>
      </trkpt>
      <trkpt lat="59.233211087638" lon="17.86034949465">
        <ele>46</ele>
        <time>2016-07-07T20:38:34Z</time>
      </trkpt>
      <trkpt lat="59.233153587804" lon="17.860771607134">
        <ele>45.4</ele>
        <time>2016-07-07T20:38:36Z</time>
      </trkpt>
      <trkpt lat="59.233128693561" lon="17.860982495738">
        <ele>45</ele>
        <time>2016-07-07T20:38:37Z</time>
      </trkpt>
      <trkpt lat="59.233102542033" lon="17.861196234188">
        <ele>44</ele>
        <time>2016-07-07T20:38:38Z</time>
      </trkpt>
      <trkpt lat="59.233072031917" lon="17.861410056457">
        <ele>43.2</ele>
        <time>2016-07-07T20:38:39Z</time>
      </trkpt>
      <trkpt lat="59.233039342507" lon="17.861628321133">
        <ele>42.4</ele>
        <time>2016-07-07T20:38:40Z</time>
      </trkpt>
      <trkpt lat="59.233003970889" lon="17.861847675456">
        <ele>41.6</ele>
        <time>2016-07-07T20:38:41Z</time>
      </trkpt>
      <trkpt lat="59.232966252339" lon="17.862069125254">
        <ele>41</ele>
        <time>2016-07-07T20:38:42Z</time>
      </trkpt>
      <trkpt lat="59.232925600124" lon="17.862295268916">
        <ele>40</ele>
        <time>2016-07-07T20:38:43Z</time>
      </trkpt>
      <trkpt lat="59.232883774443" lon="17.862512779221">
        <ele>39</ele>
        <time>2016-07-07T20:38:44Z</time>
      </trkpt>
      <trkpt lat="59.232840188563" lon="17.862729618974">
        <ele>38.2</ele>
        <time>2016-07-07T20:38:45Z</time>
      </trkpt>
      <trkpt lat="59.232790400077" lon="17.86294033994">
        <ele>37.4</ele>
        <time>2016-07-07T20:38:46Z</time>
      </trkpt>
      <trkpt lat="59.232739438125" lon="17.863140918807">
        <ele>36.6</ele>
        <time>2016-07-07T20:38:47Z</time>
      </trkpt>
      <trkpt lat="59.232699288824" lon="17.863332361403">
        <ele>35.6</ele>
        <time>2016-07-07T20:38:48Z</time>
      </trkpt>
      <trkpt lat="59.23267364021" lon="17.863510141502">
        <ele>34.8</ele>
        <time>2016-07-07T20:38:49Z</time>
      </trkpt>
      <trkpt lat="59.232657798419" lon="17.863663278815">
        <ele>34</ele>
        <time>2016-07-07T20:38:50Z</time>
      </trkpt>
      <trkpt lat="59.232628042674" lon="17.863982880662">
        <ele>34</ele>
        <time>2016-07-07T20:38:53Z</time>
      </trkpt>
      <trkpt lat="59.232551767384" lon="17.864332154435">
        <ele>34</ele>
        <time>2016-07-07T20:38:56Z</time>
      </trkpt>
      <trkpt lat="59.232513126825" lon="17.864587215652">
        <ele>34</ele>
        <time>2016-07-07T20:38:58Z</time>
      </trkpt>
      <trkpt lat="59.232440455752" lon="17.865181240905">
        <ele>33.6</ele>
        <time>2016-07-07T20:39:03Z</time>
      </trkpt>
      <trkpt lat="59.232426709436" lon="17.865295402383">
        <ele>33.2</ele>
        <time>2016-07-07T20:39:04Z</time>
      </trkpt>
      <trkpt lat="59.232415226233" lon="17.865405037635">
        <ele>32.8</ele>
        <time>2016-07-07T20:39:05Z</time>
      </trkpt>
      <trkpt lat="59.232402569564" lon="17.865519115294">
        <ele>32.4</ele>
        <time>2016-07-07T20:39:06Z</time>
      </trkpt>
      <trkpt lat="59.232391505456" lon="17.865633779686">
        <ele>32</ele>
        <time>2016-07-07T20:39:07Z</time>
      </trkpt>
      <trkpt lat="59.232371975629" lon="17.865743834033">
        <ele>32</ele>
        <time>2016-07-07T20:39:08Z</time>
      </trkpt>
      <trkpt lat="59.232329227939" lon="17.86582036078">
        <ele>32</ele>
        <time>2016-07-07T20:39:09Z</time>
      </trkpt>
      <trkpt lat="59.232123955208" lon="17.865957153388">
        <ele>32</ele>
        <time>2016-07-07T20:39:12Z</time>
      </trkpt>
      <trkpt lat="59.231653479161" lon="17.866299470184">
        <ele>32</ele>
        <time>2016-07-07T20:39:19Z</time>
      </trkpt>
      <trkpt lat="59.231547531945" lon="17.866417654974">
        <ele>32</ele>
        <time>2016-07-07T20:39:21Z</time>
      </trkpt>
      <trkpt lat="59.23149765964" lon="17.866580347653">
        <ele>32</ele>
        <time>2016-07-07T20:39:23Z</time>
      </trkpt>
      <trkpt lat="59.231395651917" lon="17.866986534527">
        <ele>32</ele>
        <time>2016-07-07T20:39:27Z</time>
      </trkpt>
      <trkpt lat="59.231367572552" lon="17.867086530594">
        <ele>32</ele>
        <time>2016-07-07T20:39:28Z</time>
      </trkpt>
      <trkpt lat="59.231317532609" lon="17.86735089572">
        <ele>32</ele>
        <time>2016-07-07T20:39:31Z</time>
      </trkpt>
      <trkpt lat="59.231275623109" lon="17.86764007127">
        <ele>32</ele>
        <time>2016-07-07T20:39:34Z</time>
      </trkpt>
      <trkpt lat="59.231252991979" lon="17.867863281267">
        <ele>32</ele>
        <time>2016-07-07T20:39:36Z</time>
      </trkpt>
      <trkpt lat="59.231245029174" lon="17.867970066673">
        <ele>32</ele>
        <time>2016-07-07T20:39:37Z</time>
      </trkpt>
      <trkpt lat="59.231230696125" lon="17.868420174703">
        <ele>32</ele>
        <time>2016-07-07T20:39:41Z</time>
      </trkpt>
      <trkpt lat="59.231258272576" lon="17.868707841511">
        <ele>31.6</ele>
        <time>2016-07-07T20:39:43Z</time>
      </trkpt>
      <trkpt lat="59.231278556774" lon="17.868882352669">
        <ele>31</ele>
        <time>2016-07-07T20:39:44Z</time>
      </trkpt>
      <trkpt lat="59.231304624483" lon="17.869031634308">
        <ele>30.6</ele>
        <time>2016-07-07T20:39:45Z</time>
      </trkpt>
      <trkpt lat="59.231341337205" lon="17.869168510735">
        <ele>30.2</ele>
        <time>2016-07-07T20:39:46Z</time>
      </trkpt>
      <trkpt lat="59.231379223393" lon="17.869308656103">
        <ele>29.8</ele>
        <time>2016-07-07T20:39:47Z</time>
      </trkpt>
      <trkpt lat="59.231524649358" lon="17.870071241365">
        <ele>29.8</ele>
        <time>2016-07-07T20:39:52Z</time>
      </trkpt>
      <trkpt lat="59.231556249121" lon="17.870460748258">
        <ele>30.2</ele>
        <time>2016-07-07T20:39:55Z</time>
      </trkpt>
      <trkpt lat="59.231568319057" lon="17.870582369627">
        <ele>30.6</ele>
        <time>2016-07-07T20:39:56Z</time>
      </trkpt>
      <trkpt lat="59.231578628794" lon="17.870709690688">
        <ele>31</ele>
        <time>2016-07-07T20:39:57Z</time>
      </trkpt>
      <trkpt lat="59.231589525264" lon="17.870825109451">
        <ele>31.4</ele>
        <time>2016-07-07T20:39:58Z</time>
      </trkpt>
      <trkpt lat="59.231605283236" lon="17.87094924539">
        <ele>31.8</ele>
        <time>2016-07-07T20:39:59Z</time>
      </trkpt>
      <trkpt lat="59.231618945733" lon="17.871084696894">
        <ele>31.8</ele>
        <time>2016-07-07T20:40:00Z</time>
      </trkpt>
      <trkpt lat="59.231632775868" lon="17.871359874671">
        <ele>31.8</ele>
        <time>2016-07-07T20:40:02Z</time>
      </trkpt>
      <trkpt lat="59.231649958763" lon="17.871782154793">
        <ele>31.8</ele>
        <time>2016-07-07T20:40:05Z</time>
      </trkpt>
      <trkpt lat="59.231682312897" lon="17.872197142662">
        <ele>31.8</ele>
        <time>2016-07-07T20:40:08Z</time>
      </trkpt>
      <trkpt lat="59.231698573783" lon="17.872445163083">
        <ele>31.8</ele>
        <time>2016-07-07T20:40:10Z</time>
      </trkpt>
      <trkpt lat="59.231720534361" lon="17.872813715226">
        <ele>32.2</ele>
        <time>2016-07-07T20:40:13Z</time>
      </trkpt>
      <trkpt lat="59.23172061818" lon="17.872921171184">
        <ele>32.6</ele>
        <time>2016-07-07T20:40:14Z</time>
      </trkpt>
      <trkpt lat="59.231718774162" lon="17.873011360428">
        <ele>33</ele>
        <time>2016-07-07T20:40:15Z</time>
      </trkpt>
      <trkpt lat="59.231721037275" lon="17.873090569383">
        <ele>34</ele>
        <time>2016-07-07T20:40:16Z</time>
      </trkpt>
      <trkpt lat="59.231722378379" lon="17.873164833017">
        <ele>34.4</ele>
        <time>2016-07-07T20:40:17Z</time>
      </trkpt>
      <trkpt lat="59.231723719483" lon="17.873233983692">
        <ele>35</ele>
        <time>2016-07-07T20:40:18Z</time>
      </trkpt>
      <trkpt lat="59.231726066415" lon="17.873300703616">
        <ele>35.4</ele>
        <time>2016-07-07T20:40:19Z</time>
      </trkpt>
      <trkpt lat="59.231717516877" lon="17.873379912571">
        <ele>36</ele>
        <time>2016-07-07T20:40:20Z</time>
      </trkpt>
      <trkpt lat="59.231668063667" lon="17.873534893902">
        <ele>36</ele>
        <time>2016-07-07T20:40:22Z</time>
      </trkpt>
      <trkpt lat="59.231627662909" lon="17.873623825861">
        <ele>35.4</ele>
        <time>2016-07-07T20:40:23Z</time>
      </trkpt>
      <trkpt lat="59.231584663762" lon="17.873708650689">
        <ele>35</ele>
        <time>2016-07-07T20:40:24Z</time>
      </trkpt>
      <trkpt lat="59.231533366534" lon="17.873798504657">
        <ele>34.4</ele>
        <time>2016-07-07T20:40:25Z</time>
      </trkpt>
      <trkpt lat="59.231475950519" lon="17.873885173503">
        <ele>34</ele>
        <time>2016-07-07T20:40:26Z</time>
      </trkpt>
      <trkpt lat="59.231408979138" lon="17.873963041354">
        <ele>33.6</ele>
        <time>2016-07-07T20:40:27Z</time>
      </trkpt>
      <trkpt lat="59.231272857082" lon="17.874094888641">
        <ele>33.6</ele>
        <time>2016-07-07T20:40:29Z</time>
      </trkpt>
      <trkpt lat="59.230975131994" lon="17.87428775616">
        <ele>33.6</ele>
        <time>2016-07-07T20:40:33Z</time>
      </trkpt>
      <trkpt lat="59.230815289161" lon="17.87433720937">
        <ele>33.6</ele>
        <time>2016-07-07T20:40:35Z</time>
      </trkpt>
      <trkpt lat="59.230750999988" lon="17.874334191886">
        <ele>33.6</ele>
        <time>2016-07-07T20:40:36Z</time>
      </trkpt>
      <trkpt lat="59.230627031687" lon="17.874314075326">
        <ele>33.6</ele>
        <time>2016-07-07T20:40:38Z</time>
      </trkpt>
      <trkpt lat="59.230517396435" lon="17.874216090915">
        <ele>33.6</ele>
        <time>2016-07-07T20:40:40Z</time>
      </trkpt>
      <trkpt lat="59.230404073147" lon="17.874115005201">
        <ele>33.6</ele>
        <time>2016-07-07T20:40:42Z</time>
      </trkpt>
      <trkpt lat="59.230342717639" lon="17.874072425149">
        <ele>33.6</ele>
        <time>2016-07-07T20:40:43Z</time>
      </trkpt>
      <trkpt lat="59.230276165353" lon="17.874037556445">
        <ele>33.6</ele>
        <time>2016-07-07T20:40:44Z</time>
      </trkpt>
      <trkpt lat="59.230065444387" lon="17.874009141804">
        <ele>33.6</ele>
        <time>2016-07-07T20:40:47Z</time>
      </trkpt>
      <trkpt lat="59.230013057512" lon="17.87413436739">
        <ele>33.6</ele>
        <time>2016-07-07T20:40:49Z</time>
      </trkpt>
      <trkpt lat="59.230011129675" lon="17.874253558008">
        <ele>33.6</ele>
        <time>2016-07-07T20:40:51Z</time>
      </trkpt>
      <trkpt lat="59.230034263719" lon="17.874409712805">
        <ele>33</ele>
        <time>2016-07-07T20:40:54Z</time>
      </trkpt>
      <trkpt lat="59.230055721383" lon="17.874450448839">
        <ele>32.6</ele>
        <time>2016-07-07T20:40:55Z</time>
      </trkpt>
      <trkpt lat="59.23008195673" lon="17.874485317543">
        <ele>32.2</ele>
        <time>2016-07-07T20:40:56Z</time>
      </trkpt>
      <trkpt lat="59.230115568149" lon="17.874520102428">
        <ele>31.8</ele>
        <time>2016-07-07T20:40:57Z</time>
      </trkpt>
      <trkpt lat="59.23014482098" lon="17.874551366915">
        <ele>31.4</ele>
        <time>2016-07-07T20:40:58Z</time>
      </trkpt>
      <trkpt lat="59.230156471821" lon="17.874591097121">
        <ele>31.4</ele>
        <time>2016-07-07T20:40:59Z</time>
      </trkpt>
      <trkpt lat="59.230149933939" lon="17.874918494135">
        <ele>31.4</ele>
        <time>2016-07-07T20:41:03Z</time>
      </trkpt>
      <trkpt lat="59.230128643913" lon="17.875024776627">
        <ele>32.2</ele>
        <time>2016-07-07T20:41:05Z</time>
      </trkpt>
      <trkpt lat="59.230116741615" lon="17.8750387744">
        <ele>32.6</ele>
        <time>2016-07-07T20:41:06Z</time>
      </trkpt>
      <trkpt lat="59.230090170992" lon="17.875080097167">
        <ele>33</ele>
        <time>2016-07-07T20:41:07Z</time>
      </trkpt>
      <trkpt lat="59.230065612025" lon="17.875112954215">
        <ele>33.6</ele>
        <time>2016-07-07T20:41:08Z</time>
      </trkpt>
      <trkpt lat="59.230023451068" lon="17.875237928344">
        <ele>33.6</ele>
        <time>2016-07-07T20:41:10Z</time>
      </trkpt>
      <trkpt lat="59.23001238696" lon="17.875340187524">
        <ele>34</ele>
        <time>2016-07-07T20:41:11Z</time>
      </trkpt>
      <trkpt lat="59.229998053911" lon="17.875436160279">
        <ele>34.4</ele>
        <time>2016-07-07T20:41:12Z</time>
      </trkpt>
      <trkpt lat="59.229980284283" lon="17.875511010646">
        <ele>34.8</ele>
        <time>2016-07-07T20:41:13Z</time>
      </trkpt>
      <trkpt lat="59.229957401696" lon="17.875579071674">
        <ele>35.2</ele>
        <time>2016-07-07T20:41:14Z</time>
      </trkpt>
      <trkpt lat="59.229935608756" lon="17.875631961463">
        <ele>35.6</ele>
        <time>2016-07-07T20:41:15Z</time>
      </trkpt>
      <trkpt lat="59.229908619038" lon="17.875699351939">
        <ele>35.2</ele>
        <time>2016-07-07T20:41:16Z</time>
      </trkpt>
      <trkpt lat="59.229875678171" lon="17.875778644713">
        <ele>34.6</ele>
        <time>2016-07-07T20:41:17Z</time>
      </trkpt>
      <trkpt lat="59.229838713992" lon="17.875852908347">
        <ele>34.2</ele>
        <time>2016-07-07T20:41:18Z</time>
      </trkpt>
      <trkpt lat="59.229795714845" lon="17.875935889157">
        <ele>33.8</ele>
        <time>2016-07-07T20:41:19Z</time>
      </trkpt>
      <trkpt lat="59.229754056802" lon="17.876019624338">
        <ele>33.2</ele>
        <time>2016-07-07T20:41:20Z</time>
      </trkpt>
      <trkpt lat="59.229604439887" lon="17.876304106024">
        <ele>33.2</ele>
        <time>2016-07-07T20:41:24Z</time>
      </trkpt>
      <trkpt lat="59.229558255618" lon="17.876382309151">
        <ele>33.6</ele>
        <time>2016-07-07T20:41:25Z</time>
      </trkpt>
      <trkpt lat="59.229514837376" lon="17.876456572785">
        <ele>34.2</ele>
        <time>2016-07-07T20:41:26Z</time>
      </trkpt>
      <trkpt lat="59.229477705559" lon="17.876516754827">
        <ele>34.6</ele>
        <time>2016-07-07T20:41:27Z</time>
      </trkpt>
      <trkpt lat="59.229434706412" lon="17.876569393159">
        <ele>35</ele>
        <time>2016-07-07T20:41:28Z</time>
      </trkpt>
      <trkpt lat="59.229391371989" lon="17.876625551889">
        <ele>35.4</ele>
        <time>2016-07-07T20:41:29Z</time>
      </trkpt>
      <trkpt lat="59.229310738111" lon="17.876719680626">
        <ele>35.8</ele>
        <time>2016-07-07T20:41:31Z</time>
      </trkpt>
      <trkpt lat="59.229272684285" lon="17.876756477167">
        <ele>36.4</ele>
        <time>2016-07-07T20:41:32Z</time>
      </trkpt>
      <trkpt lat="59.229236893572" lon="17.876778521564">
        <ele>36.8</ele>
        <time>2016-07-07T20:41:33Z</time>
      </trkpt>
      <trkpt lat="59.229203114515" lon="17.876800901237">
        <ele>37.2</ele>
        <time>2016-07-07T20:41:34Z</time>
      </trkpt>
      <trkpt lat="59.2291708442" lon="17.876821688349">
        <ele>37.6</ele>
        <time>2016-07-07T20:41:35Z</time>
      </trkpt>
      <trkpt lat="59.229150476183" lon="17.876832249543">
        <ele>37.6</ele>
        <time>2016-07-07T20:41:36Z</time>
      </trkpt>
      <trkpt lat="59.229105213923" lon="17.876855215949">
        <ele>38</ele>
        <time>2016-07-07T20:41:38Z</time>
      </trkpt>
      <trkpt lat="59.229076715463" lon="17.876860748003">
        <ele>38.4</ele>
        <time>2016-07-07T20:41:39Z</time>
      </trkpt>
      <trkpt lat="59.229049222831" lon="17.876854377759">
        <ele>39</ele>
        <time>2016-07-07T20:41:40Z</time>
      </trkpt>
      <trkpt lat="59.229021311104" lon="17.87684758842">
        <ele>39.4</ele>
        <time>2016-07-07T20:41:41Z</time>
      </trkpt>
      <trkpt lat="59.22899147154" lon="17.876846666411">
        <ele>39.8</ele>
        <time>2016-07-07T20:41:42Z</time>
      </trkpt>
      <trkpt lat="59.228909664196" lon="17.876837278683">
        <ele>40.2</ele>
        <time>2016-07-07T20:41:45Z</time>
      </trkpt>
      <trkpt lat="59.228886362514" lon="17.87682914824">
        <ele>40.8</ele>
        <time>2016-07-07T20:41:46Z</time>
      </trkpt>
      <trkpt lat="59.22886155209" lon="17.876820347245">
        <ele>41.2</ele>
        <time>2016-07-07T20:41:47Z</time>
      </trkpt>
      <trkpt lat="59.228837328399" lon="17.876812132983">
        <ele>41.6</ele>
        <time>2016-07-07T20:41:48Z</time>
      </trkpt>
      <trkpt lat="59.22881293707" lon="17.876794698631">
        <ele>42</ele>
        <time>2016-07-07T20:41:49Z</time>
      </trkpt>
      <trkpt lat="59.22878276223" lon="17.87678053322">
        <ele>42</ele>
        <time>2016-07-07T20:41:50Z</time>
      </trkpt>
      <trkpt lat="59.228755604874" lon="17.876765697257">
        <ele>42</ele>
        <time>2016-07-07T20:41:51Z</time>
      </trkpt>
      <trkpt lat="59.228727274052" lon="17.876763350325">
        <ele>42.4</ele>
        <time>2016-07-07T20:41:52Z</time>
      </trkpt>
      <trkpt lat="59.228691231882" lon="17.876757985909">
        <ele>42.8</ele>
        <time>2016-07-07T20:41:53Z</time>
      </trkpt>
      <trkpt lat="59.228656949911" lon="17.876763015049">
        <ele>43.2</ele>
        <time>2016-07-07T20:41:54Z</time>
      </trkpt>
      <trkpt lat="59.228627277985" lon="17.876772235139">
        <ele>44</ele>
        <time>2016-07-07T20:41:55Z</time>
      </trkpt>
      <trkpt lat="59.228594923851" lon="17.876762763592">
        <ele>44.6</ele>
        <time>2016-07-07T20:41:56Z</time>
      </trkpt>
      <trkpt lat="59.228567095943" lon="17.876752202398">
        <ele>45</ele>
        <time>2016-07-07T20:41:57Z</time>
      </trkpt>
      <trkpt lat="59.228538429845" lon="17.876741557385">
        <ele>45.6</ele>
        <time>2016-07-07T20:41:58Z</time>
      </trkpt>
      <trkpt lat="59.228500795114" lon="17.876736025331">
        <ele>46</ele>
        <time>2016-07-07T20:41:59Z</time>
      </trkpt>
      <trkpt lat="59.228474056853" lon="17.876721943739">
        <ele>46.6</ele>
        <time>2016-07-07T20:42:00Z</time>
      </trkpt>
      <trkpt lat="59.22839803302" lon="17.876749017276">
        <ele>47</ele>
        <time>2016-07-07T20:42:03Z</time>
      </trkpt>
      <trkpt lat="59.228379257564" lon="17.876788244568">
        <ele>47.4</ele>
        <time>2016-07-07T20:42:04Z</time>
      </trkpt>
      <trkpt lat="59.228372635863" lon="17.876830573163">
        <ele>48</ele>
        <time>2016-07-07T20:42:05Z</time>
      </trkpt>
      <trkpt lat="59.228380598668" lon="17.876858736347">
        <ele>48.4</ele>
        <time>2016-07-07T20:42:06Z</time>
      </trkpt>
      <trkpt lat="59.228378335555" lon="17.876912883421">
        <ele>48.8</ele>
        <time>2016-07-07T20:42:07Z</time>
      </trkpt>
      <trkpt lat="59.228363248135" lon="17.877105331845">
        <ele>49.4</ele>
        <time>2016-07-07T20:42:11Z</time>
      </trkpt>
      <trkpt lat="59.228358386633" lon="17.877167525543">
        <ele>49.8</ele>
        <time>2016-07-07T20:42:12Z</time>
      </trkpt>
      <trkpt lat="59.228361487936" lon="17.877223181359">
        <ele>50.2</ele>
        <time>2016-07-07T20:42:13Z</time>
      </trkpt>
      <trkpt lat="59.228360482108" lon="17.877274310949">
        <ele>50.6</ele>
        <time>2016-07-07T20:42:14Z</time>
      </trkpt>
      <trkpt lat="59.22836366723" lon="17.87731781301">
        <ele>51</ele>
        <time>2016-07-07T20:42:15Z</time>
      </trkpt>
      <trkpt lat="59.228354363321" lon="17.877409343358">
        <ele>51</ele>
        <time>2016-07-07T20:42:17Z</time>
      </trkpt>
      <trkpt lat="59.228349585638" lon="17.877455192351">
        <ele>51</ele>
        <time>2016-07-07T20:42:18Z</time>
      </trkpt>
      <trkpt lat="59.228352267846" lon="17.87754328612">
        <ele>52</ele>
        <time>2016-07-07T20:42:20Z</time>
      </trkpt>
      <trkpt lat="59.228351764932" lon="17.877591565864">
        <ele>52.4</ele>
        <time>2016-07-07T20:42:21Z</time>
      </trkpt>
      <trkpt lat="59.228337348064" lon="17.877649400974">
        <ele>52.8</ele>
        <time>2016-07-07T20:42:22Z</time>
      </trkpt>
      <trkpt lat="59.228327792698" lon="17.877701536392">
        <ele>53.2</ele>
        <time>2016-07-07T20:42:23Z</time>
      </trkpt>
      <trkpt lat="59.228295438564" lon="17.877846627081">
        <ele>53.6</ele>
        <time>2016-07-07T20:42:26Z</time>
      </trkpt>
      <trkpt lat="59.228280183506" lon="17.877878059206">
        <ele>54.2</ele>
        <time>2016-07-07T20:42:27Z</time>
      </trkpt>
      <trkpt lat="59.228270209045" lon="17.877898594861">
        <ele>54.6</ele>
        <time>2016-07-07T20:42:28Z</time>
      </trkpt>
      <trkpt lat="59.228258306747" lon="17.877926506588">
        <ele>55</ele>
        <time>2016-07-07T20:42:29Z</time>
      </trkpt>
      <trkpt lat="59.22824212968" lon="17.877957687256">
        <ele>55.4</ele>
        <time>2016-07-07T20:42:30Z</time>
      </trkpt>
      <trkpt lat="59.228180187439" lon="17.878053911468">
        <ele>56</ele>
        <time>2016-07-07T20:42:33Z</time>
      </trkpt>
      <trkpt lat="59.228160573793" lon="17.878078135159">
        <ele>56.4</ele>
        <time>2016-07-07T20:42:34Z</time>
      </trkpt>
      <trkpt lat="59.228139283767" lon="17.878099257547">
        <ele>57</ele>
        <time>2016-07-07T20:42:35Z</time>
      </trkpt>
      <trkpt lat="59.228117155551" lon="17.878122056315">
        <ele>57.4</ele>
        <time>2016-07-07T20:42:36Z</time>
      </trkpt>
      <trkpt lat="59.228091339299" lon="17.878150470956">
        <ele>57.8</ele>
        <time>2016-07-07T20:42:37Z</time>
      </trkpt>
      <trkpt lat="59.228033336551" lon="17.878220376002">
        <ele>57.8</ele>
        <time>2016-07-07T20:42:40Z</time>
      </trkpt>
      <trkpt lat="59.228007101204" lon="17.878241246933">
        <ele>58.2</ele>
        <time>2016-07-07T20:42:42Z</time>
      </trkpt>
      <trkpt lat="59.227987739015" lon="17.878259854751">
        <ele>58.6</ele>
        <time>2016-07-07T20:42:43Z</time>
      </trkpt>
      <trkpt lat="59.227966113713" lon="17.87828592246">
        <ele>59.6</ele>
        <time>2016-07-07T20:42:44Z</time>
      </trkpt>
      <trkpt lat="59.227944656049" lon="17.878307463943">
        <ele>60</ele>
        <time>2016-07-07T20:42:45Z</time>
      </trkpt>
      <trkpt lat="59.227871565881" lon="17.878369322365">
        <ele>60</ele>
        <time>2016-07-07T20:42:48Z</time>
      </trkpt>
      <trkpt lat="59.22782806382" lon="17.878431599882">
        <ele>60.4</ele>
        <time>2016-07-07T20:42:50Z</time>
      </trkpt>
      <trkpt lat="59.227803588672" lon="17.878468312604">
        <ele>60.8</ele>
        <time>2016-07-07T20:42:51Z</time>
      </trkpt>
      <trkpt lat="59.227780538447" lon="17.878506282611">
        <ele>61.2</ele>
        <time>2016-07-07T20:42:52Z</time>
      </trkpt>
      <trkpt lat="59.227756650032" lon="17.878549533215">
        <ele>61.6</ele>
        <time>2016-07-07T20:42:53Z</time>
      </trkpt>
      <trkpt lat="59.227734354178" lon="17.878585826842">
        <ele>62</ele>
        <time>2016-07-07T20:42:54Z</time>
      </trkpt>
      <trkpt lat="59.227604686185" lon="17.878808617744">
        <ele>62</ele>
        <time>2016-07-07T20:42:59Z</time>
      </trkpt>
      <trkpt lat="59.227471162518" lon="17.878984889101">
        <ele>62</ele>
        <time>2016-07-07T20:43:03Z</time>
      </trkpt>
      <trkpt lat="59.227255915326" lon="17.879415718761">
        <ele>62</ele>
        <time>2016-07-07T20:43:09Z</time>
      </trkpt>
      <trkpt lat="59.227182908977" lon="17.879545386754">
        <ele>62.4</ele>
        <time>2016-07-07T20:43:11Z</time>
      </trkpt>
      <trkpt lat="59.227147202083" lon="17.879604227692">
        <ele>62.8</ele>
        <time>2016-07-07T20:43:12Z</time>
      </trkpt>
      <trkpt lat="59.227101520728" lon="17.879666756666">
        <ele>63.2</ele>
        <time>2016-07-07T20:43:13Z</time>
      </trkpt>
      <trkpt lat="59.227054665907" lon="17.8797242565">
        <ele>63.6</ele>
        <time>2016-07-07T20:43:14Z</time>
      </trkpt>
      <trkpt lat="59.227013091683" lon="17.879774380262">
        <ele>64</ele>
        <time>2016-07-07T20:43:15Z</time>
      </trkpt>
      <trkpt lat="59.2269747864" lon="17.879801034704">
        <ele>64</ele>
        <time>2016-07-07T20:43:16Z</time>
      </trkpt>
      <trkpt lat="59.226857691257" lon="17.879856941977">
        <ele>64</ele>
        <time>2016-07-07T20:43:19Z</time>
      </trkpt>
      <trkpt lat="59.226728945273" lon="17.879939503692">
        <ele>64</ele>
        <time>2016-07-07T20:43:22Z</time>
      </trkpt>
      <trkpt lat="59.226693322198" lon="17.879966996324">
        <ele>64</ele>
        <time>2016-07-07T20:43:23Z</time>
      </trkpt>
      <trkpt lat="59.226625428808" lon="17.880037152827">
        <ele>64</ele>
        <time>2016-07-07T20:43:25Z</time>
      </trkpt>
      <trkpt lat="59.226536915944" lon="17.880148799735">
        <ele>64</ele>
        <time>2016-07-07T20:43:27Z</time>
      </trkpt>
      <trkpt lat="59.226392160531" lon="17.88038055927">
        <ele>64</ele>
        <time>2016-07-07T20:43:30Z</time>
      </trkpt>
      <trkpt lat="59.226198873917" lon="17.880606786751">
        <ele>64</ele>
        <time>2016-07-07T20:43:34Z</time>
      </trkpt>
      <trkpt lat="59.226145145938" lon="17.880659760359">
        <ele>64</ele>
        <time>2016-07-07T20:43:35Z</time>
      </trkpt>
      <trkpt lat="59.226046742432" lon="17.880747602671">
        <ele>64</ele>
        <time>2016-07-07T20:43:37Z</time>
      </trkpt>
      <trkpt lat="59.225956637007" lon="17.880831170214">
        <ele>64</ele>
        <time>2016-07-07T20:43:39Z</time>
      </trkpt>
      <trkpt lat="59.225669808389" lon="17.881068797079">
        <ele>64</ele>
        <time>2016-07-07T20:43:44Z</time>
      </trkpt>
      <trkpt lat="59.225387422178" lon="17.881275327095">
        <ele>64.4</ele>
        <time>2016-07-07T20:43:49Z</time>
      </trkpt>
      <trkpt lat="59.225343501022" lon="17.881297036216">
        <ele>65</ele>
        <time>2016-07-07T20:43:50Z</time>
      </trkpt>
      <trkpt lat="59.225300166599" lon="17.881318829156">
        <ele>65.4</ele>
        <time>2016-07-07T20:43:51Z</time>
      </trkpt>
      <trkpt lat="59.225262867144" lon="17.881340119182">
        <ele>66</ele>
        <time>2016-07-07T20:43:52Z</time>
      </trkpt>
      <trkpt lat="59.225219113626" lon="17.881364259054">
        <ele>66.4</ele>
        <time>2016-07-07T20:43:53Z</time>
      </trkpt>
      <trkpt lat="59.225178461411" lon="17.881387560736">
        <ele>66.8</ele>
        <time>2016-07-07T20:43:54Z</time>
      </trkpt>
      <trkpt lat="59.225135881359" lon="17.881407593477">
        <ele>67.2</ele>
        <time>2016-07-07T20:43:55Z</time>
      </trkpt>
      <trkpt lat="59.225099587732" lon="17.881422932354">
        <ele>67.6</ele>
        <time>2016-07-07T20:43:56Z</time>
      </trkpt>
      <trkpt lat="59.225074022937" lon="17.881443300371">
        <ele>68</ele>
        <time>2016-07-07T20:43:57Z</time>
      </trkpt>
      <trkpt lat="59.225042674631" lon="17.881463249293">
        <ele>68.6</ele>
        <time>2016-07-07T20:43:58Z</time>
      </trkpt>
      <trkpt lat="59.225012918886" lon="17.881466182958">
        <ele>68.6</ele>
        <time>2016-07-07T20:43:59Z</time>
      </trkpt>
      <trkpt lat="59.224980145657" lon="17.881465847682">
        <ele>69</ele>
        <time>2016-07-07T20:44:00Z</time>
      </trkpt>
      <trkpt lat="59.224942510926" lon="17.881480348369">
        <ele>69.4</ele>
        <time>2016-07-07T20:44:01Z</time>
      </trkpt>
      <trkpt lat="59.22490697167" lon="17.88149116102">
        <ele>70</ele>
        <time>2016-07-07T20:44:02Z</time>
      </trkpt>
      <trkpt lat="59.224877970296" lon="17.881503901508">
        <ele>70.4</ele>
        <time>2016-07-07T20:44:03Z</time>
      </trkpt>
      <trkpt lat="59.224846538171" lon="17.881542542067">
        <ele>71</ele>
        <time>2016-07-07T20:44:04Z</time>
      </trkpt>
      <trkpt lat="59.224812172381" lon="17.881602137376">
        <ele>71.6</ele>
        <time>2016-07-07T20:44:05Z</time>
      </trkpt>
      <trkpt lat="59.22478291955" lon="17.881653853699">
        <ele>72.2</ele>
        <time>2016-07-07T20:44:06Z</time>
      </trkpt>
      <trkpt lat="59.224759534049" lon="17.881696349932">
        <ele>72.8</ele>
        <time>2016-07-07T20:44:07Z</time>
      </trkpt>
      <trkpt lat="59.224735813272" lon="17.881742701839">
        <ele>73.4</ele>
        <time>2016-07-07T20:44:08Z</time>
      </trkpt>
      <trkpt lat="59.224706225165" lon="17.881778827828">
        <ele>73.8</ele>
        <time>2016-07-07T20:44:09Z</time>
      </trkpt>
      <trkpt lat="59.224682085293" lon="17.881831969074">
        <ele>74.2</ele>
        <time>2016-07-07T20:44:10Z</time>
      </trkpt>
      <trkpt lat="59.224659454163" lon="17.881898688998">
        <ele>74.6</ele>
        <time>2016-07-07T20:44:11Z</time>
      </trkpt>
      <trkpt lat="59.224635565748" lon="17.881975215745">
        <ele>75</ele>
        <time>2016-07-07T20:44:12Z</time>
      </trkpt>
      <trkpt lat="59.224608659849" lon="17.882061214039">
        <ele>75.4</ele>
        <time>2016-07-07T20:44:13Z</time>
      </trkpt>
      <trkpt lat="59.224535821138" lon="17.882231534247">
        <ele>75.4</ele>
        <time>2016-07-07T20:44:15Z</time>
      </trkpt>
      <trkpt lat="59.224479327132" lon="17.882296745429">
        <ele>75.4</ele>
        <time>2016-07-07T20:44:16Z</time>
      </trkpt>
      <trkpt lat="59.224360639428" lon="17.882464970162">
        <ele>75.4</ele>
        <time>2016-07-07T20:44:18Z</time>
      </trkpt>
      <trkpt lat="59.224312862598" lon="17.882573599586">
        <ele>75.4</ele>
        <time>2016-07-07T20:44:19Z</time>
      </trkpt>
      <trkpt lat="59.224200964233" lon="17.88283897054">
        <ele>75</ele>
        <time>2016-07-07T20:44:21Z</time>
      </trkpt>
      <trkpt lat="59.224124437486" lon="17.882975679329">
        <ele>74.6</ele>
        <time>2016-07-07T20:44:22Z</time>
      </trkpt>
      <trkpt lat="59.22404447416" lon="17.883111717566">
        <ele>73.6</ele>
        <time>2016-07-07T20:44:23Z</time>
      </trkpt>
      <trkpt lat="59.223966773947" lon="17.883279104109">
        <ele>71.4</ele>
        <time>2016-07-07T20:44:24Z</time>
      </trkpt>
      <trkpt lat="59.223897287996" lon="17.883440036589">
        <ele>70</ele>
        <time>2016-07-07T20:44:25Z</time>
      </trkpt>
      <trkpt lat="59.223822102353" lon="17.883582780346">
        <ele>68.6</ele>
        <time>2016-07-07T20:44:26Z</time>
      </trkpt>
      <trkpt lat="59.223729566177" lon="17.883694511073">
        <ele>67.2</ele>
        <time>2016-07-07T20:44:27Z</time>
      </trkpt>
      <trkpt lat="59.223619260373" lon="17.883789478">
        <ele>65.8</ele>
        <time>2016-07-07T20:44:28Z</time>
      </trkpt>
      <trkpt lat="59.223502500506" lon="17.883867094394">
        <ele>64.2</ele>
        <time>2016-07-07T20:44:29Z</time>
      </trkpt>
      <trkpt lat="59.223375263264" lon="17.883945046064">
        <ele>62.6</ele>
        <time>2016-07-07T20:44:30Z</time>
      </trkpt>
      <trkpt lat="59.223255234456" lon="17.884028697426">
        <ele>61</ele>
        <time>2016-07-07T20:44:31Z</time>
      </trkpt>
      <trkpt lat="59.223146605032" lon="17.884114192806">
        <ele>59.4</ele>
        <time>2016-07-07T20:44:32Z</time>
      </trkpt>
      <trkpt lat="59.223053230666" lon="17.88419097101">
        <ele>58</ele>
        <time>2016-07-07T20:44:33Z</time>
      </trkpt>
      <trkpt lat="59.222967651467" lon="17.884266659567">
        <ele>56.6</ele>
        <time>2016-07-07T20:44:34Z</time>
      </trkpt>
      <trkpt lat="59.222884083924" lon="17.884342767219">
        <ele>55.2</ele>
        <time>2016-07-07T20:44:35Z</time>
      </trkpt>
      <trkpt lat="59.222817950733" lon="17.884432705006">
        <ele>55.4</ele>
        <time>2016-07-07T20:44:36Z</time>
      </trkpt>
      <trkpt lat="59.222776208871" lon="17.884530605598">
        <ele>55.8</ele>
        <time>2016-07-07T20:44:37Z</time>
      </trkpt>
      <trkpt lat="59.222760702356" lon="17.884627835638">
        <ele>56.6</ele>
        <time>2016-07-07T20:44:38Z</time>
      </trkpt>
      <trkpt lat="59.222754164474" lon="17.884730430094">
        <ele>57.2</ele>
        <time>2016-07-07T20:44:39Z</time>
      </trkpt>
      <trkpt lat="59.22276036708" lon="17.88483889188">
        <ele>57.8</ele>
        <time>2016-07-07T20:44:40Z</time>
      </trkpt>
      <trkpt lat="59.222768916618" lon="17.884952382806">
        <ele>58.6</ele>
        <time>2016-07-07T20:44:41Z</time>
      </trkpt>
      <trkpt lat="59.2227754545" lon="17.885062018058">
        <ele>59.2</ele>
        <time>2016-07-07T20:44:42Z</time>
      </trkpt>
      <trkpt lat="59.222780232183" lon="17.885180621943">
        <ele>59.2</ele>
        <time>2016-07-07T20:44:43Z</time>
      </trkpt>
      <trkpt lat="59.22278635097" lon="17.885556466339">
        <ele>59.2</ele>
        <time>2016-07-07T20:44:46Z</time>
      </trkpt>
      <trkpt lat="59.22277126355" lon="17.885728379108">
        <ele>59.2</ele>
        <time>2016-07-07T20:44:47Z</time>
      </trkpt>
      <trkpt lat="59.222759025976" lon="17.88592015698">
        <ele>59.2</ele>
        <time>2016-07-07T20:44:48Z</time>
      </trkpt>
      <trkpt lat="59.222753829198" lon="17.886109420282">
        <ele>60.4</ele>
        <time>2016-07-07T20:44:49Z</time>
      </trkpt>
      <trkpt lat="59.222743938556" lon="17.886290217865">
        <ele>61</ele>
        <time>2016-07-07T20:44:50Z</time>
      </trkpt>
      <trkpt lat="59.222737484493" lon="17.886473613837">
        <ele>61.6</ele>
        <time>2016-07-07T20:44:51Z</time>
      </trkpt>
      <trkpt lat="59.222729018774" lon="17.886629014263">
        <ele>62</ele>
        <time>2016-07-07T20:44:52Z</time>
      </trkpt>
      <trkpt lat="59.222715188639" lon="17.886806459086">
        <ele>62.6</ele>
        <time>2016-07-07T20:44:53Z</time>
      </trkpt>
      <trkpt lat="59.222707728748" lon="17.88696537991">
        <ele>63.2</ele>
        <time>2016-07-07T20:44:54Z</time>
      </trkpt>
      <trkpt lat="59.222706806739" lon="17.887133939919">
        <ele>63.8</ele>
        <time>2016-07-07T20:44:55Z</time>
      </trkpt>
      <trkpt lat="59.222709572766" lon="17.887286909594">
        <ele>64.2</ele>
        <time>2016-07-07T20:44:56Z</time>
      </trkpt>
      <trkpt lat="59.222710159499" lon="17.887422947831">
        <ele>64.2</ele>
        <time>2016-07-07T20:44:57Z</time>
      </trkpt>
      <trkpt lat="59.222720804512" lon="17.887678260505">
        <ele>64.2</ele>
        <time>2016-07-07T20:44:59Z</time>
      </trkpt>
      <trkpt lat="59.222710662413" lon="17.887801558254">
        <ele>64.2</ele>
        <time>2016-07-07T20:45:00Z</time>
      </trkpt>
      <trkpt lat="59.222722983806" lon="17.888177570288">
        <ele>64.2</ele>
        <time>2016-07-07T20:45:03Z</time>
      </trkpt>
      <trkpt lat="59.222741256348" lon="17.88911952821">
        <ele>64.2</ele>
        <time>2016-07-07T20:45:10Z</time>
      </trkpt>
      <trkpt lat="59.222701107047" lon="17.890241445525">
        <ele>64.2</ele>
        <time>2016-07-07T20:45:18Z</time>
      </trkpt>
      <trkpt lat="59.222672943863" lon="17.890489298308">
        <ele>64.2</ele>
        <time>2016-07-07T20:45:20Z</time>
      </trkpt>
      <trkpt lat="59.222617707142" lon="17.890854330053">
        <ele>64.2</ele>
        <time>2016-07-07T20:45:23Z</time>
      </trkpt>
      <trkpt lat="59.222596249478" lon="17.890980729105">
        <ele>64.2</ele>
        <time>2016-07-07T20:45:24Z</time>
      </trkpt>
      <trkpt lat="59.222518800722" lon="17.891382138296">
        <ele>64.2</ele>
        <time>2016-07-07T20:45:27Z</time>
      </trkpt>
      <trkpt lat="59.222484099656" lon="17.891507112425">
        <ele>64.2</ele>
        <time>2016-07-07T20:45:28Z</time>
      </trkpt>
      <trkpt lat="59.222349737799" lon="17.891862504985">
        <ele>64.2</ele>
        <time>2016-07-07T20:45:31Z</time>
      </trkpt>
      <trkpt lat="59.222136586082" lon="17.892409926874">
        <ele>63.8</ele>
        <time>2016-07-07T20:45:36Z</time>
      </trkpt>
      <trkpt lat="59.222094592763" lon="17.892512186054">
        <ele>63.2</ele>
        <time>2016-07-07T20:45:37Z</time>
      </trkpt>
      <trkpt lat="59.222050503969" lon="17.892606650067">
        <ele>62</ele>
        <time>2016-07-07T20:45:38Z</time>
      </trkpt>
      <trkpt lat="59.222000715483" lon="17.892691977809">
        <ele>61.4</ele>
        <time>2016-07-07T20:45:39Z</time>
      </trkpt>
      <trkpt lat="59.221900216502" lon="17.892819717965">
        <ele>61.4</ele>
        <time>2016-07-07T20:45:41Z</time>
      </trkpt>
      <trkpt lat="59.221523617735" lon="17.893178798561">
        <ele>61.4</ele>
        <time>2016-07-07T20:45:47Z</time>
      </trkpt>
      <trkpt lat="59.221423789306" lon="17.893368816234">
        <ele>61</ele>
        <time>2016-07-07T20:45:49Z</time>
      </trkpt>
      <trkpt lat="59.221383556186" lon="17.893485157006">
        <ele>60.6</ele>
        <time>2016-07-07T20:45:50Z</time>
      </trkpt>
      <trkpt lat="59.221344412713" lon="17.893621279062">
        <ele>60.2</ele>
        <time>2016-07-07T20:45:51Z</time>
      </trkpt>
      <trkpt lat="59.221303760498" lon="17.893752707254">
        <ele>59.6</ele>
        <time>2016-07-07T20:45:52Z</time>
      </trkpt>
      <trkpt lat="59.221266209586" lon="17.893883883989">
        <ele>59.2</ele>
        <time>2016-07-07T20:45:53Z</time>
      </trkpt>
      <trkpt lat="59.221150790823" lon="17.894270457217">
        <ele>59.2</ele>
        <time>2016-07-07T20:45:56Z</time>
      </trkpt>
      <trkpt lat="59.221098571586" lon="17.894376152976">
        <ele>59.2</ele>
        <time>2016-07-07T20:45:57Z</time>
      </trkpt>
      <trkpt lat="59.220863626929" lon="17.894686367095">
        <ele>59.2</ele>
        <time>2016-07-07T20:46:01Z</time>
      </trkpt>
      <trkpt lat="59.220802941973" lon="17.89474378311">
        <ele>59.2</ele>
        <time>2016-07-07T20:46:02Z</time>
      </trkpt>
      <trkpt lat="59.220521477771" lon="17.895044358044">
        <ele>59.2</ele>
        <time>2016-07-07T20:46:07Z</time>
      </trkpt>
      <trkpt lat="59.220416368745" lon="17.895146030491">
        <ele>59.2</ele>
        <time>2016-07-07T20:46:09Z</time>
      </trkpt>
      <trkpt lat="59.220123002245" lon="17.89553671085">
        <ele>59.2</ele>
        <time>2016-07-07T20:46:15Z</time>
      </trkpt>
      <trkpt lat="59.22007815908" lon="17.89581415174">
        <ele>59.2</ele>
        <time>2016-07-07T20:46:17Z</time>
      </trkpt>
      <trkpt lat="59.220053264837" lon="17.895951698719">
        <ele>59.2</ele>
        <time>2016-07-07T20:46:18Z</time>
      </trkpt>
      <trkpt lat="59.219863079526" lon="17.8967562773">
        <ele>59.2</ele>
        <time>2016-07-07T20:46:24Z</time>
      </trkpt>
      <trkpt lat="59.219631068534" lon="17.897560269148">
        <ele>59.2</ele>
        <time>2016-07-07T20:46:30Z</time>
      </trkpt>
      <trkpt lat="59.219464352543" lon="17.898200730127">
        <ele>59.2</ele>
        <time>2016-07-07T20:46:35Z</time>
      </trkpt>
      <trkpt lat="59.21926176202" lon="17.898968428348">
        <ele>59.2</ele>
        <time>2016-07-07T20:46:41Z</time>
      </trkpt>
      <trkpt lat="59.219148187275" lon="17.899548455828">
        <ele>59.2</ele>
        <time>2016-07-07T20:46:46Z</time>
      </trkpt>
      <trkpt lat="59.219203591634" lon="17.899825812899">
        <ele>59.2</ele>
        <time>2016-07-07T20:46:49Z</time>
      </trkpt>
      <trkpt lat="59.219381371733" lon="17.900017590771">
        <ele>59.2</ele>
        <time>2016-07-07T20:46:53Z</time>
      </trkpt>
      <trkpt lat="59.219436021721" lon="17.90005455495">
        <ele>59.2</ele>
        <time>2016-07-07T20:46:54Z</time>
      </trkpt>
      <trkpt lat="59.219556050529" lon="17.900124879091">
        <ele>59.2</ele>
        <time>2016-07-07T20:46:56Z</time>
      </trkpt>
      <trkpt lat="59.219684796513" lon="17.900204004227">
        <ele>59.6</ele>
        <time>2016-07-07T20:46:58Z</time>
      </trkpt>
      <trkpt lat="59.219740787605" lon="17.900248009202">
        <ele>60.2</ele>
        <time>2016-07-07T20:46:59Z</time>
      </trkpt>
      <trkpt lat="59.219794683222" lon="17.900282458811">
        <ele>60.6</ele>
        <time>2016-07-07T20:47:00Z</time>
      </trkpt>
      <trkpt lat="59.219848830296" lon="17.900309113253">
        <ele>61</ele>
        <time>2016-07-07T20:47:01Z</time>
      </trkpt>
      <trkpt lat="59.219904067017" lon="17.900340545378">
        <ele>61.4</ele>
        <time>2016-07-07T20:47:02Z</time>
      </trkpt>
      <trkpt lat="59.220002638161" lon="17.900413467908">
        <ele>62</ele>
        <time>2016-07-07T20:47:04Z</time>
      </trkpt>
      <trkpt lat="59.220049241525" lon="17.900442972196">
        <ele>62.4</ele>
        <time>2016-07-07T20:47:05Z</time>
      </trkpt>
      <trkpt lat="59.220091067206" lon="17.900473482312">
        <ele>63</ele>
        <time>2016-07-07T20:47:06Z</time>
      </trkpt>
      <trkpt lat="59.220137838208" lon="17.900509775939">
        <ele>63.4</ele>
        <time>2016-07-07T20:47:07Z</time>
      </trkpt>
      <trkpt lat="59.220181424088" lon="17.900554200009">
        <ele>64</ele>
        <time>2016-07-07T20:47:08Z</time>
      </trkpt>
      <trkpt lat="59.22022316595" lon="17.900600635735">
        <ele>64.4</ele>
        <time>2016-07-07T20:47:09Z</time>
      </trkpt>
      <trkpt lat="59.220263818165" lon="17.900642042321">
        <ele>65</ele>
        <time>2016-07-07T20:47:10Z</time>
      </trkpt>
      <trkpt lat="59.220309583339" lon="17.900704403657">
        <ele>65.4</ele>
        <time>2016-07-07T20:47:11Z</time>
      </trkpt>
      <trkpt lat="59.22034386531" lon="17.900788055019">
        <ele>66</ele>
        <time>2016-07-07T20:47:12Z</time>
      </trkpt>
      <trkpt lat="59.220372531408" lon="17.900881597023">
        <ele>66.4</ele>
        <time>2016-07-07T20:47:13Z</time>
      </trkpt>
      <trkpt lat="59.220396000728" lon="17.900992238103">
        <ele>66.4</ele>
        <time>2016-07-07T20:47:14Z</time>
      </trkpt>
      <trkpt lat="59.220461379548" lon="17.901338829668">
        <ele>66.4</ele>
        <time>2016-07-07T20:47:17Z</time>
      </trkpt>
      <trkpt lat="59.220513012052" lon="17.901542509838">
        <ele>66.4</ele>
        <time>2016-07-07T20:47:19Z</time>
      </trkpt>
      <trkpt lat="59.2205793967" lon="17.901811065914">
        <ele>66.8</ele>
        <time>2016-07-07T20:47:22Z</time>
      </trkpt>
      <trkpt lat="59.220593143016" lon="17.901888849946">
        <ele>67.2</ele>
        <time>2016-07-07T20:47:23Z</time>
      </trkpt>
      <trkpt lat="59.220609068626" lon="17.901963448856">
        <ele>67.6</ele>
        <time>2016-07-07T20:47:24Z</time>
      </trkpt>
      <trkpt lat="59.22062549715" lon="17.902037880128">
        <ele>68</ele>
        <time>2016-07-07T20:47:25Z</time>
      </trkpt>
      <trkpt lat="59.22064477552" lon="17.90211650235">
        <ele>68.4</ele>
        <time>2016-07-07T20:47:26Z</time>
      </trkpt>
      <trkpt lat="59.220663048062" lon="17.902198477332">
        <ele>68.8</ele>
        <time>2016-07-07T20:47:27Z</time>
      </trkpt>
      <trkpt lat="59.220683918993" lon="17.902283469798">
        <ele>69.4</ele>
        <time>2016-07-07T20:47:28Z</time>
      </trkpt>
      <trkpt lat="59.220704622286" lon="17.902370976834">
        <ele>69.8</ele>
        <time>2016-07-07T20:47:29Z</time>
      </trkpt>
      <trkpt lat="59.22072524176" lon="17.902453370911">
        <ele>70.2</ele>
        <time>2016-07-07T20:47:30Z</time>
      </trkpt>
      <trkpt lat="59.220743179026" lon="17.902536770816">
        <ele>70.6</ele>
        <time>2016-07-07T20:47:31Z</time>
      </trkpt>
      <trkpt lat="59.220761870663" lon="17.90261271083">
        <ele>70.6</ele>
        <time>2016-07-07T20:47:32Z</time>
      </trkpt>
      <trkpt lat="59.220837140125" lon="17.902923176406">
        <ele>70.6</ele>
        <time>2016-07-07T20:47:36Z</time>
      </trkpt>
      <trkpt lat="59.220858430151" lon="17.903013114193">
        <ele>70.6</ele>
        <time>2016-07-07T20:47:37Z</time>
      </trkpt>
      <trkpt lat="59.220925066256" lon="17.903401615258">
        <ele>70.6</ele>
        <time>2016-07-07T20:47:41Z</time>
      </trkpt>
      <trkpt lat="59.221023050667" lon="17.904117680975">
        <ele>70.6</ele>
        <time>2016-07-07T20:47:47Z</time>
      </trkpt>
      <trkpt lat="59.221154897954" lon="17.905062069648">
        <ele>70.6</ele>
        <time>2016-07-07T20:47:54Z</time>
      </trkpt>
      <trkpt lat="59.221240980067" lon="17.905628937545">
        <ele>70.2</ele>
        <time>2016-07-07T20:47:58Z</time>
      </trkpt>
      <trkpt lat="59.221262605369" lon="17.905783835057">
        <ele>69.8</ele>
        <time>2016-07-07T20:47:59Z</time>
      </trkpt>
      <trkpt lat="59.221283811576" lon="17.905948539392">
        <ele>69.4</ele>
        <time>2016-07-07T20:48:00Z</time>
      </trkpt>
      <trkpt lat="59.221302670851" lon="17.906111232071">
        <ele>69</ele>
        <time>2016-07-07T20:48:01Z</time>
      </trkpt>
      <trkpt lat="59.221325637257" lon="17.906281384641">
        <ele>68.4</ele>
        <time>2016-07-07T20:48:02Z</time>
      </trkpt>
      <trkpt lat="59.221350699138" lon="17.906454219419">
        <ele>68</ele>
        <time>2016-07-07T20:48:03Z</time>
      </trkpt>
      <trkpt lat="59.221372156802" lon="17.906623030885">
        <ele>67.4</ele>
        <time>2016-07-07T20:48:04Z</time>
      </trkpt>
      <trkpt lat="59.221415491225" lon="17.906960318541">
        <ele>65.6</ele>
        <time>2016-07-07T20:48:05Z</time>
      </trkpt>
      <trkpt lat="59.221439295821" lon="17.907129465283">
        <ele>65</ele>
        <time>2016-07-07T20:48:08Z</time>
      </trkpt>
      <trkpt lat="59.221462597503" lon="17.907292996152">
        <ele>64.4</ele>
        <time>2016-07-07T20:48:09Z</time>
      </trkpt>
      <trkpt lat="59.221528982151" lon="17.907877968953">
        <ele>64.4</ele>
        <time>2016-07-07T20:48:13Z</time>
      </trkpt>
      <trkpt lat="59.221474918896" lon="17.908116517827">
        <ele>64.4</ele>
        <time>2016-07-07T20:48:16Z</time>
      </trkpt>
      <trkpt lat="59.221425800962" lon="17.908106375728">
        <ele>64.8</ele>
        <time>2016-07-07T20:48:18Z</time>
      </trkpt>
      <trkpt lat="59.221388333869" lon="17.908096988">
        <ele>65.2</ele>
        <time>2016-07-07T20:48:19Z</time>
      </trkpt>
      <trkpt lat="59.221344245075" lon="17.90810788447">
        <ele>65.6</ele>
        <time>2016-07-07T20:48:20Z</time>
      </trkpt>
      <trkpt lat="59.221297641711" lon="17.908131018514">
        <ele>66</ele>
        <time>2016-07-07T20:48:21Z</time>
      </trkpt>
      <trkpt lat="59.221251205985" lon="17.908153901101">
        <ele>66.4</ele>
        <time>2016-07-07T20:48:22Z</time>
      </trkpt>
      <trkpt lat="59.221200746947" lon="17.908184075941">
        <ele>66.4</ele>
        <time>2016-07-07T20:48:23Z</time>
      </trkpt>
      <trkpt lat="59.221089267677" lon="17.908246353458">
        <ele>66</ele>
        <time>2016-07-07T20:48:25Z</time>
      </trkpt>
      <trkpt lat="59.221027744531" lon="17.908273175538">
        <ele>65.6</ele>
        <time>2016-07-07T20:48:26Z</time>
      </trkpt>
      <trkpt lat="59.220962952444" lon="17.908309720622">
        <ele>65.2</ele>
        <time>2016-07-07T20:48:27Z</time>
      </trkpt>
      <trkpt lat="59.220896316339" lon="17.908365795533">
        <ele>64.8</ele>
        <time>2016-07-07T20:48:28Z</time>
      </trkpt>
      <trkpt lat="59.220824651094" lon="17.908413237087">
        <ele>64.2</ele>
        <time>2016-07-07T20:48:29Z</time>
      </trkpt>
      <trkpt lat="59.220754410772" lon="17.90845573332">
        <ele>63.6</ele>
        <time>2016-07-07T20:48:30Z</time>
      </trkpt>
      <trkpt lat="59.220688445219" lon="17.908501330856">
        <ele>62.4</ele>
        <time>2016-07-07T20:48:31Z</time>
      </trkpt>
      <trkpt lat="59.220633962869" lon="17.908537959759">
        <ele>61.8</ele>
        <time>2016-07-07T20:48:32Z</time>
      </trkpt>
      <trkpt lat="59.220585012573" lon="17.908559249785">
        <ele>61.2</ele>
        <time>2016-07-07T20:48:33Z</time>
      </trkpt>
      <trkpt lat="59.220528518567" lon="17.908573415196">
        <ele>60.8</ele>
        <time>2016-07-07T20:48:34Z</time>
      </trkpt>
      <trkpt lat="59.220468252706" lon="17.908579366345">
        <ele>60.2</ele>
        <time>2016-07-07T20:48:35Z</time>
      </trkpt>
      <trkpt lat="59.220408825035" lon="17.908543156537">
        <ele>59.6</ele>
        <time>2016-07-07T20:48:36Z</time>
      </trkpt>
      <trkpt lat="59.220272200065" lon="17.90829312446">
        <ele>59.6</ele>
        <time>2016-07-07T20:48:39Z</time>
      </trkpt>
      <trkpt lat="59.22022819509" lon="17.908204611596">
        <ele>59.6</ele>
        <time>2016-07-07T20:48:40Z</time>
      </trkpt>
      <trkpt lat="59.220034740838" lon="17.907776715601">
        <ele>59.6</ele>
        <time>2016-07-07T20:48:45Z</time>
      </trkpt>
      <trkpt lat="59.219896942402" lon="17.907450575872">
        <ele>59.6</ele>
        <time>2016-07-07T20:48:49Z</time>
      </trkpt>
      <trkpt lat="59.219839023473" lon="17.907305485183">
        <ele>59.6</ele>
        <time>2016-07-07T20:48:51Z</time>
      </trkpt>
      <trkpt lat="59.219820164198" lon="17.907251841023">
        <ele>59.6</ele>
        <time>2016-07-07T20:48:52Z</time>
      </trkpt>
    </trkseg>
  </trk>
</gpx>